[[{"header":{"parameterUnit":"m.s-1","parameterCategory":1,"la1":31.0,"la2":29.5877,"lo1":-88.7671,"lo2":-86.6584,"dy":0.0162,"dx":0.0185,"nx":115,"ny":88,"refTime":"2025-11-04T12:00:00:Z","depth":0,"parameterNumber":2,"parameterNumberName":"U-component_of_WINDS"},"data":[0.0,0.0,0.0,0.0,0.0,0.0,0.0,0.0,0.0,0.0,0.0,0.0,0.0,0.0,0.0,0.0,0.0,0.0,0.0,0.0,0.0,0.0,0.0,0.0,0.0,0.0,0.0,0.0,0.0,0.0,0.0,0.0,0.0,0.0,0.0,0.0,0.0,0.0,0.0,0.0,0.0,0.0,0.0,0.0,0.0,0.0,0.0,0.0,0.0,0.0,0.0,0.0,0.0,0.0,0.0,0.0,0.0,0.0,0.0,0.0,0.0,0.0,0.0,0.0,0.0,0.0,0.0,0.0,0.0,0.0,0.0,0.0,0.0,0.0,0.0,0.0,0.0,0.0,0.0,0.0,0.0,0.0,0.0,0.0,0.0,0.0,0.0,0.0,0.0,0.0,0.0,0.0,0.0,0.0,0.0,0.0,0.0,0.0,0.0,0.0,0.0,0.0,0.0,0.0,0.0,0.0,0.0,0.0,0.0,0.0,0.0,0.0,0.0,0.0,0.0,0.0,0.0,0.0,0.0,0.0,0.0,0.0,0.0,0.0,0.0,0.0,0.0,0.0,0.0,0.0,0.0,0.0,0.0,0.0,0.0,0.0,0.0,0.0,0.0,0.0,0.0,0.0,0.0,0.0,0.0,0.0,0.0,0.0,0.0,0.0,0.0,0.0,0.0,0.0,0.0,0.0,0.0,0.0,0.0,0.0,0.0,0.0,0.0,0.0,0.0,0.0,0.0,0.0,0.0,0.0,0.0,0.0,0.0,0.0,0.0,0.0,0.0,0.0,0.0,0.0,0.0,0.0,0.0,0.0,0.0,0.0,0.0,0.0,0.0,0.0,0.0,0.0,0.0,0.0,0.0,0.0,0.0,0.0,0.0,0.0,0.0,0.0,0.0,0.0,0.0,0.0,0.0,0.0,0.0,0.0,0.0,0.0,0.0,0.0,0.0,0.0,0.0,0.0,0.0,0.0,0.0,0.0,0.0,0.0,0.0,0.0,0.0,0.0,0.0,0.0,0.0,0.0,0.0,0.0,0.0,0.0,0.0,0.0,0.0,0.0,0.0,0.0,0.0,0.0,0.0,0.0,0.0,0.0,0.0,0.0,0.0,0.0,0.0,0.0,0.0,0.0,0.0,0.0,0.0,0.0,0.0,0.0,0.0,0.0,0.0,0.0,0.0,0.0,0.0,0.0,0.0,0.0,0.0,0.0,0.0,0.0,0.0,0.0,0.0,0.0,0.0,0.0,0.0,0.0,0.0,0.0,0.0,0.0,0.0,0.0,0.0,0.0,0.0,0.0,0.0,0.0,0.0,0.0,0.0,0.0,0.0,0.0,0.0,0.0,0.0,0.0,0.0,0.0,0.0,0.0,0.0,0.0,0.0,0.0,0.0,0.0,0.0,0.0,0.0,0.0,0.0,0.0,0.0,0.0,0.0,0.0,0.0,0.0,0.0,0.0,0.0,0.0,0.0,0.0,0.0,0.0,0.0,0.0,0.0,0.0,0.0,0.0,0.0,0.0,0.0,0.0,0.0,0.0,0.0,0.0,0.0,0.0,0.0,0.0,0.0,0.0,0.0,0.0,0.0,0.0,0.0,0.0,0.0,0.0,0.0,0.0,0.0,0.0,0.0,0.0,0.0,0.0,0.0,0.0,0.0,0.0,0.0,0.0,0.0,0.0,0.0,0.0,0.0,0.0,0.0,0.0,0.0,0.0,0.0,0.0,0.0,0.0,0.0,0.0,0.0,0.0,0.0,0.0,0.0,0.0,0.0,0.0,0.0,0.0,0.0,0.0,0.0,0.0,0.0,0.0,0.0,0.0,0.0,0.0,0.0,0.0,0.0,0.0,0.0,0.0,0.0,0.0,0.0,0.0,0.0,0.0,0.0,0.0,0.0,0.0,0.0,0.0,0.0,0.0,0.0,0.0,0.0,0.0,0.0,0.0,0.0,0.0,0.0,0.0,0.0,0.0,0.0,0.0,0.0,0.0,0.0,0.0,0.0,0.0,0.0,0.0,0.0,0.0,0.0,0.0,0.0,0.0,0.0,0.0,0.0,0.0,0.0,0.0,0.0,0.0,0.0,0.0,0.0,0.0,0.0,0.0,0.0,0.0,0.0,0.0,0.0,0.0,0.0,0.0,0.0,0.0,0.0,0.0,0.0,0.0,0.0,0.0,0.0,0.0,0.0,0.0,0.0,0.0,0.0,0.0,0.0,0.0,0.0,0.0,0.0,0.0,0.0,0.0,0.0,0.0,0.0,0.0,0.0,0.0,0.0,0.0,0.0,0.0,0.0,0.0,0.0,0.0,0.0,0.0,0.0,0.0,0.0,0.0,0.0,0.0,0.0,0.0,0.0,0.0,0.0,0.0,0.0,0.0,0.0,0.0,0.0,0.0,0.0,0.0,0.0,0.0,0.0,0.0,0.0,0.0,0.0,0.0,0.0,0.0,0.0,0.0,0.0,0.0,0.0,0.0,0.0,0.0,0.0,0.0,0.0,0.0,0.0,0.0,0.0,0.0,0.0,0.0,0.0,0.0,0.0,0.0,0.0,0.0,0.0,0.0,0.0,0.0,0.0,0.0,0.0,0.0,0.0,0.0,0.0,0.0,0.0,0.0,0.0,0.0,0.0,0.0,0.0,0.0,0.0,0.0,0.0,0.0,0.0,0.0,0.0,0.0,0.0,0.0,0.0,0.0,0.0,0.0,0.0,0.0,0.0,0.0,0.0,0.0,0.0,0.0,0.0,0.0,0.0,0.0,0.0,0.0,0.0,0.0,0.0,0.0,0.0,0.0,0.0,0.0,0.0,0.0,0.0,0.0,0.0,0.0,0.0,0.0,0.0,0.0,0.0,0.0,0.0,0.0,0.0,0.0,0.0,0.0,0.0,0.0,0.0,0.0,0.0,0.0,0.0,0.0,0.0,0.0,0.0,0.0,0.0,0.0,0.0,0.0,0.0,0.0,0.0,0.0,0.0,0.0,0.0,0.0,0.0,0.0,0.0,0.0,0.0,0.0,0.0,0.0,0.0,0.0,0.0,0.0,0.0,0.0,0.0,0.0,0.0,0.0,0.0,0.0,0.0,0.0,0.0,0.0,0.0,0.0,0.0,0.0,0.0,0.0,0.0,0.0,0.0,0.0,0.0,0.0,0.0,0.0,0.0,0.0,0.0,0.0,0.0,0.0,0.0,0.0,0.0,0.0,0.0,0.0,0.0,0.0,0.0,0.0,0.0,0.0,0.0,0.0,0.0,0.0,0.0,0.0,0.0,0.0,0.0,0.0,0.0,0.0,0.0,0.0,0.0,0.0,0.0,0.0,0.0,0.0,0.0,0.0,0.0,0.0,0.0,0.0,0.0,0.0,0.0,0.0,0.0,0.0,0.0,0.0,0.0,0.0,0.0,0.0,0.0,0.0,0.0,0.0,0.0,0.0,0.0,0.0,0.0,0.0,0.0,0.0,0.0,0.0,0.0,0.0,0.0,0.0,0.0,0.0,0.0,0.0,0.0,0.0,0.0,0.0,0.0,0.0,0.0,0.0,0.0,0.0,0.0,0.0,0.0,0.0,0.0,0.0,0.0,0.0,0.0,0.0,0.0,0.0,0.0,0.0,0.0,0.0,0.0,0.0,0.0,0.0,0.0,0.0,0.0,0.0,0.0,0.0,0.0,0.0,0.0,0.0,0.0,0.0,0.0,0.0,0.0,0.0,0.0,0.0,0.0,0.0,0.0,0.0,0.0,0.0,0.0,0.0,0.0,0.0,0.0,0.0,0.0,0.0,0.0,0.0,0.0,0.0,0.0,0.0,0.0,0.0,0.0,0.0,0.0,0.0,0.0,0.0,0.0,0.0,0.0,0.0,0.0,0.0,0.0,0.0,0.0,0.0,0.0,0.0,0.0,0.0,0.0,0.0,0.0,0.0,0.0,0.0,0.0,0.0,0.0,0.0,0.0,0.0,0.0,0.0,0.0,0.0,0.0,0.0,0.0,0.0,0.0,0.0,0.0,0.0,0.0,0.0,0.0,0.0,0.0,0.0,0.0,0.0,0.0,0.0,0.0,0.0,0.0,0.0,0.0,0.0,0.0,0.0,0.0,0.0,0.0,0.0,0.0,0.0,0.0,0.0,0.0,0.0,0.0,0.0,0.0,0.0,0.0,0.0,0.0,0.0,0.0,0.0,0.0,0.0,0.0,0.0,0.0,0.0,0.0,0.0,0.0,0.0,0.0,0.0,0.0,0.0,0.0,0.0,0.0,0.0,0.0,0.0,0.0,0.0,-1.6184,0.0,0.0,0.0,0.0,0.0,0.0,0.0,0.0,0.0,0.0,0.0,0.0,0.0,0.0,0.0,0.0,0.0,0.0,0.0,0.0,0.0,0.0,0.0,0.0,0.0,0.0,0.0,0.0,0.0,0.0,0.0,0.0,0.0,0.0,0.0,0.0,0.0,0.0,0.0,0.0,0.0,0.0,0.0,0.0,0.0,0.0,0.0,0.0,0.0,0.0,0.0,0.0,0.0,0.0,0.0,0.0,0.0,0.0,0.0,0.0,0.0,0.0,0.0,0.0,0.0,0.0,0.0,0.0,0.0,0.0,0.0,0.0,0.0,0.0,0.0,0.0,0.0,0.0,0.0,0.0,0.0,0.0,0.0,0.0,0.0,0.0,0.0,0.0,0.0,0.0,0.0,0.0,0.0,0.0,0.0,0.0,0.0,0.0,0.0,0.0,0.0,0.0,0.0,0.0,0.0,0.0,0.0,0.0,0.0,0.0,-1.8495,-1.8477,-1.701,-1.6203,-1.6185,0.0,0.0,0.0,0.0,0.0,0.0,0.0,0.0,0.0,0.0,0.0,0.0,0.0,0.0,0.0,0.0,0.0,0.0,0.0,0.0,0.0,0.0,0.0,0.0,0.0,0.0,0.0,0.0,0.0,0.0,0.0,0.0,0.0,0.0,0.0,0.0,0.0,0.0,0.0,0.0,0.0,0.0,0.0,0.0,0.0,0.0,0.0,0.0,0.0,0.0,0.0,0.0,0.0,0.0,0.0,0.0,0.0,0.0,0.0,0.0,0.0,0.0,0.0,0.0,0.0,0.0,0.0,0.0,0.0,0.0,0.0,0.0,0.0,0.0,0.0,0.0,0.0,0.0,0.0,0.0,0.0,0.0,0.0,0.0,0.0,0.0,0.0,0.0,0.0,0.0,0.0,0.0,0.0,0.0,0.0,0.0,0.0,0.0,0.0,0.0,0.0,0.0,0.0,0.0,0.0,0.0,0.0,0.0,0.0,0.0,0.0,0.0,-1.7256,-1.6361,-1.6203,0.0,0.0,0.0,0.0,0.0,0.0,0.0,0.0,0.0,0.0,0.0,0.0,0.0,0.0,0.0,0.0,0.0,0.0,0.0,0.0,0.0,0.0,0.0,0.0,0.0,0.0,0.0,0.0,0.0,0.0,0.0,0.0,0.0,0.0,0.0,0.0,0.0,0.0,0.0,0.0,0.0,0.0,0.0,0.0,0.0,0.0,0.0,0.0,0.0,0.0,0.0,0.0,0.0,0.0,0.0,0.0,0.0,0.0,0.0,0.0,0.0,0.0,0.0,0.0,0.0,0.0,0.0,0.0,0.0,0.0,0.0,0.0,0.0,0.0,0.0,0.0,0.0,0.0,0.0,0.0,0.0,0.0,0.0,0.0,0.0,0.0,0.0,0.0,0.0,0.0,0.0,0.0,0.0,0.0,0.0,0.0,0.0,0.0,0.0,0.0,0.0,0.0,0.0,0.0,0.0,0.0,0.0,0.0,0.0,0.0,-1.7432,-1.9486,-1.8009,0.0,-1.6282,0.0,0.0,0.0,0.0,0.0,0.0,0.0,0.0,0.0,0.0,0.0,0.0,0.0,0.0,0.0,0.0,0.0,0.0,0.0,0.0,0.0,0.0,0.0,0.0,0.0,0.0,0.0,0.0,0.0,0.0,0.0,0.0,0.0,0.0,0.0,0.0,0.0,0.0,0.0,0.0,0.0,0.0,0.0,0.0,0.0,0.0,0.0,0.0,0.0,0.0,0.0,0.0,0.0,0.0,0.0,0.0,0.0,0.0,0.0,0.0,0.0,0.0,0.0,0.0,0.0,0.0,0.0,0.0,0.0,0.0,0.0,0.0,0.0,0.0,0.0,0.0,0.0,0.0,0.0,0.0,0.0,0.0,0.0,0.0,0.0,0.0,0.0,0.0,0.0,0.0,0.0,0.0,0.0,0.0,0.0,0.0,0.0,0.0,0.0,0.0,0.0,0.0,0.0,0.0,0.0,0.0,0.0,0.0,0.0,0.0,-1.8021,-1.8969,-1.7896,-1.694,0.0,0.0,0.0,0.0,0.0,0.0,0.0,0.0,0.0,0.0,0.0,0.0,0.0,0.0,0.0,0.0,0.0,0.0,0.0,0.0,0.0,0.0,0.0,0.0,0.0,0.0,0.0,0.0,0.0,0.0,0.0,0.0,0.0,0.0,0.0,0.0,0.0,0.0,0.0,0.0,0.0,0.0,0.0,0.0,0.0,0.0,0.0,0.0,0.0,0.0,0.0,0.0,0.0,0.0,0.0,0.0,0.0,0.0,0.0,0.0,0.0,0.0,0.0,0.0,0.0,0.0,0.0,0.0,0.0,0.0,0.0,0.0,0.0,0.0,0.0,0.0,0.0,0.0,0.0,0.0,0.0,0.0,0.0,0.0,0.0,0.0,0.0,0.0,0.0,0.0,0.0,0.0,0.0,0.0,0.0,0.0,0.0,0.0,0.0,0.0,0.0,0.0,0.0,0.0,0.0,0.0,0.0,0.0,0.0,0.0,-1.7757,-1.8073,-1.846,-1.7931,-1.7177,-1.6238,0.0,0.0,0.0,0.0,0.0,0.0,0.0,0.0,0.0,0.0,0.0,0.0,0.0,0.0,0.0,0.0,0.0,0.0,0.0,0.0,0.0,0.0,0.0,0.0,0.0,0.0,0.0,0.0,0.0,0.0,0.0,0.0,0.0,0.0,0.0,0.0,0.0,0.0,0.0,0.0,0.0,0.0,0.0,0.0,0.0,0.0,0.0,0.0,0.0,0.0,0.0,0.0,0.0,0.0,0.0,0.0,0.0,0.0,0.0,0.0,0.0,0.0,0.0,0.0,0.0,0.0,0.0,0.0,0.0,0.0,0.0,0.0,0.0,0.0,0.0,0.0,0.0,0.0,0.0,0.0,0.0,0.0,0.0,0.0,0.0,0.0,0.0,0.0,0.0,0.0,0.0,0.0,0.0,0.0,0.0,0.0,0.0,0.0,0.0,0.0,0.0,0.0,0.0,0.0,0.0,0.0,0.0,0.0,-2.0216,-1.773,-1.701,-1.8477,-1.846,-1.7739,0.0,0.0,0.0,0.0,0.0,0.0,0.0,0.0,0.0,0.0,0.0,0.0,0.0,0.0,0.0,0.0,0.0,0.0,0.0,0.0,0.0,0.0,0.0,0.0,0.0,0.0,0.0,0.0,0.0,0.0,0.0,0.0,0.0,0.0,0.0,0.0,0.0,0.0,0.0,0.0,0.0,0.0,0.0,0.0,0.0,0.0,0.0,0.0,0.0,0.0,0.0,0.0,0.0,0.0,0.0,0.0,0.0,0.0,0.0,0.0,0.0,0.0,0.0,0.0,0.0,0.0,0.0,0.0,0.0,0.0,0.0,0.0,0.0,0.0,0.0,0.0,0.0,0.0,0.0,0.0,0.0,0.0,0.0,0.0,0.0,0.0,0.0,0.0,0.0,0.0,0.0,0.0,0.0,0.0,0.0,0.0,0.0,0.0,0.0,0.0,0.0,0.0,0.0,0.0,0.0,0.0,0.0,0.0,0.0,-1.6273,-1.5746,-1.6896,-1.9742,-1.7564,-1.6449,0.0,0.0,0.0,0.0,0.0,0.0,0.0,0.0,0.0,0.0,0.0,0.0,0.0,0.0,0.0,0.0,0.0,0.0,0.0,0.0,0.0,0.0,0.0,0.0,0.0,0.0,0.0,0.0,0.0,0.0,0.0,0.0,0.0,0.0,0.0,0.0,0.0,0.0,0.0,0.0,0.0,0.0,0.0,0.0,0.0,0.0,0.0,0.0,0.0,0.0,0.0,0.0,0.0,0.0,0.0,0.0,0.0,0.0,0.0,0.0,0.0,0.0,0.0,0.0,0.0,0.0,0.0,0.0,0.0,0.0,0.0,0.0,0.0,0.0,0.0,0.0,0.0,0.0,0.0,0.0,0.0,0.0,0.0,0.0,0.0,0.0,0.0,0.0,0.0,0.0,0.0,0.0,0.0,0.0,0.0,0.0,0.0,0.0,0.0,0.0,0.0,0.0,0.0,0.0,0.0,0.0,0.0,0.0,0.0,-1.536,0.0,-1.7898,-1.983,-1.7511,-1.6036,0.0,0.0,0.0,0.0,0.0,0.0,0.0,0.0,0.0,0.0,0.0,0.0,0.0,0.0,0.0,0.0,0.0,0.0,0.0,0.0,0.0,0.0,0.0,0.0,0.0,0.0,0.0,0.0,0.0,0.0,0.0,0.0,0.0,0.0,0.0,0.0,0.0,0.0,0.0,0.0,0.0,0.0,0.0,0.0,0.0,0.0,0.0,0.0,0.0,0.0,0.0,0.0,0.0,0.0,0.0,0.0,0.0,0.0,0.0,0.0,0.0,0.0,0.0,0.0,0.0,0.0,0.0,0.0,0.0,0.0,0.0,0.0,0.0,0.0,0.0,0.0,0.0,0.0,0.0,0.0,0.0,0.0,0.0,0.0,0.0,0.0,0.0,0.0,0.0,0.0,0.0,0.0,0.0,0.0,0.0,0.0,0.0,0.0,0.0,0.0,0.0,0.0,0.0,0.0,0.0,0.0,0.0,0.0,-1.5405,-1.8319,-1.9805,-1.9865,-1.8618,-1.8407,-1.6633,0.0,0.0,0.0,0.0,0.0,0.0,0.0,0.0,0.0,0.0,0.0,0.0,0.0,0.0,0.0,0.0,0.0,0.0,0.0,0.0,0.0,0.0,0.0,0.0,0.0,0.0,0.0,0.0,0.0,0.0,0.0,0.0,0.0,0.0,0.0,0.0,0.0,0.0,0.0,0.0,0.0,0.0,0.0,0.0,0.0,0.0,0.0,0.0,0.0,0.0,0.0,0.0,0.0,0.0,0.0,0.0,0.0,0.0,0.0,0.0,0.0,0.0,0.0,0.0,0.0,0.0,0.0,0.0,0.0,0.0,0.0,0.0,0.0,0.0,0.0,0.0,0.0,0.0,0.0,0.0,0.0,0.0,0.0,0.0,0.0,0.0,0.0,0.0,0.0,0.0,0.0,0.0,0.0,0.0,0.0,0.0,0.0,0.0,0.0,0.0,0.0,0.0,0.0,0.0,0.0,0.0,0.0,0.0,0.0,-1.6923,-1.7879,-1.9187,-2.0708,-1.7765,-1.6282,0.0,0.0,0.0,0.0,0.0,0.0,0.0,0.0,0.0,0.0,0.0,0.0,0.0,0.0,0.0,0.0,0.0,0.0,0.0,0.0,0.0,0.0,0.0,0.0,0.0,0.0,0.0,0.0,0.0,0.0,0.0,0.0,0.0,0.0,0.0,0.0,0.0,0.0,0.0,0.0,0.0,0.0,0.0,0.0,0.0,0.0,0.0,0.0,0.0,0.0,0.0,0.0,0.0,0.0,0.0,0.0,0.0,0.0,0.0,0.0,0.0,0.0,0.0,0.0,0.0,0.0,0.0,0.0,0.0,0.0,0.0,0.0,0.0,0.0,0.0,0.0,0.0,0.0,0.0,0.0,0.0,0.0,0.0,0.0,0.0,0.0,0.0,0.0,0.0,0.0,0.0,0.0,0.0,0.0,0.0,0.0,0.0,0.0,0.0,0.0,0.0,0.0,0.0,0.0,0.0,0.0,0.0,0.0,0.0,-1.8415,-1.938,-2.0574,-2.1972,-1.8856,-1.716,-1.7142,0.0,0.0,0.0,0.0,0.0,0.0,0.0,0.0,0.0,0.0,0.0,0.0,0.0,0.0,0.0,0.0,0.0,0.0,0.0,0.0,0.0,0.0,0.0,0.0,0.0,0.0,0.0,0.0,0.0,0.0,0.0,0.0,0.0,0.0,0.0,0.0,0.0,0.0,0.0,0.0,0.0,0.0,0.0,0.0,0.0,0.0,0.0,0.0,0.0,0.0,0.0,0.0,0.0,0.0,0.0,0.0,0.0,0.0,0.0,0.0,0.0,0.0,0.0,0.0,0.0,0.0,0.0,0.0,0.0,0.0,0.0,0.0,0.0,0.0,0.0,0.0,0.0,0.0,0.0,0.0,0.0,0.0,0.0,0.0,0.0,0.0,0.0,0.0,0.0,0.0,0.0,0.0,0.0,0.0,0.0,0.0,0.0,0.0,0.0,0.0,0.0,0.0,0.0,0.0,0.0,0.0,0.0,0.0,-2.2183,-2.3588,-2.3623,-2.2271,-2.1264,-1.9057,0.0,0.0,0.0,0.0,0.0,0.0,0.0,0.0,0.0,0.0,0.0,0.0,0.0,0.0,0.0,0.0,0.0,0.0,0.0,0.0,0.0,0.0,0.0,0.0,0.0,0.0,0.0,0.0,0.0,0.0,0.0,0.0,0.0,0.0,0.0,0.0,0.0,0.0,0.0,0.0,0.0,0.0,0.0,0.0,0.0,0.0,0.0,0.0,0.0,0.0,0.0,0.0,0.0,0.0,0.0,0.0,0.0,0.0,0.0,0.0,0.0,0.0,0.0,0.0,0.0,0.0,0.0,0.0,0.0,0.0,0.0,0.0,0.0,0.0,0.0,0.0,0.0,0.0,0.0,0.0,0.0,0.0,0.0,0.0,0.0,0.0,0.0,0.0,0.0,0.0,0.0,0.0,0.0,0.0,0.0,0.0,0.0,0.0,0.0,0.0,0.0,0.0,0.0,0.0,0.0,0.0,0.0,0.0,0.0,-2.4401,-2.4892,-2.491,-2.4471,-2.2095,-2.0075,0.0,0.0,0.0,0.0,0.0,0.0,0.0,0.0,0.0,0.0,0.0,0.0,0.0,0.0,0.0,0.0,0.0,0.0,0.0,0.0,0.0,0.0,0.0,0.0,0.0,0.0,0.0,0.0,0.0,0.0,0.0,0.0,0.0,0.0,0.0,0.0,0.0,0.0,0.0,0.0,0.0,0.0,0.0,0.0,0.0,0.0,0.0,0.0,0.0,0.0,0.0,0.0,0.0,0.0,0.0,0.0,0.0,0.0,0.0,0.0,0.0,0.0,0.0,0.0,0.0,0.0,0.0,0.0,0.0,0.0,0.0,0.0,0.0,0.0,0.0,0.0,0.0,0.0,0.0,0.0,0.0,0.0,0.0,0.0,0.0,0.0,0.0,0.0,0.0,0.0,0.0,0.0,0.0,0.0,0.0,0.0,0.0,0.0,0.0,0.0,0.0,0.0,0.0,0.0,0.0,0.0,0.0,0.0,-2.2944,-2.5349,-2.5735,-2.5897,-2.591,-2.3536,-2.1615,0.0,0.0,0.0,0.0,0.0,0.0,0.0,0.0,0.0,0.0,0.0,0.0,0.0,0.0,0.0,0.0,0.0,0.0,0.0,0.0,0.0,0.0,0.0,0.0,0.0,0.0,0.0,0.0,0.0,0.0,0.0,0.0,0.0,0.0,0.0,0.0,0.0,0.0,0.0,0.0,0.0,0.0,0.0,0.0,0.0,0.0,0.0,0.0,0.0,0.0,0.0,0.0,0.0,0.0,0.0,0.0,0.0,0.0,0.0,0.0,0.0,0.0,0.0,0.0,0.0,0.0,0.0,0.0,0.0,0.0,0.0,0.0,0.0,0.0,0.0,0.0,0.0,0.0,0.0,0.0,0.0,0.0,0.0,0.0,0.0,0.0,0.0,0.0,0.0,0.0,0.0,0.0,0.0,0.0,0.0,0.0,0.0,0.0,0.0,0.0,0.0,0.0,0.0,0.0,0.0,0.0,0.0,0.0,-2.3979,-2.5507,-2.6125,-2.6546,-2.6651,-2.5151,-2.3197,0.0,0.0,0.0,0.0,0.0,0.0,0.0,0.0,0.0,0.0,0.0,0.0,0.0,0.0,0.0,0.0,0.0,0.0,0.0,0.0,0.0,0.0,0.0,0.0,0.0,0.0,0.0,0.0,0.0,0.0,0.0,0.0,0.0,0.0,0.0,0.0,0.0,0.0,0.0,0.0,0.0,0.0,0.0,0.0,0.0,0.0,0.0,0.0,0.0,0.0,0.0,0.0,0.0,0.0,0.0,0.0,0.0,0.0,0.0,0.0,0.0,0.0,0.0,0.0,0.0,0.0,0.0,0.0,0.0,0.0,0.0,0.0,0.0,0.0,0.0,0.0,0.0,0.0,0.0,0.0,0.0,0.0,0.0,0.0,0.0,0.0,0.0,0.0,0.0,0.0,0.0,0.0,0.0,0.0,0.0,0.0,0.0,0.0,0.0,0.0,0.0,0.0,0.0,0.0,0.0,0.0,0.0,0.0,-2.4787,-2.6279,-2.5879,-2.6244,-2.742,-2.5415,-2.3214,0.0,0.0,0.0,0.0,0.0,0.0,0.0,0.0,0.0,0.0,0.0,0.0,0.0,0.0,0.0,0.0,0.0,0.0,0.0,0.0,0.0,0.0,0.0,0.0,0.0,0.0,0.0,0.0,0.0,0.0,0.0,0.0,0.0,0.0,0.0,0.0,0.0,0.0,0.0,0.0,0.0,0.0,0.0,0.0,0.0,0.0,0.0,0.0,-1.3454,0.0,0.0,0.0,0.0,0.0,0.0,0.0,0.0,0.0,0.0,0.0,0.0,0.0,0.0,0.0,0.0,0.0,0.0,0.0,0.0,0.0,0.0,0.0,0.0,0.0,0.0,0.0,0.0,0.0,0.0,0.0,0.0,0.0,0.0,0.0,0.0,0.0,0.0,0.0,0.0,0.0,0.0,0.0,0.0,0.0,0.0,0.0,0.0,0.0,0.0,0.0,0.0,0.0,0.0,0.0,0.0,0.0,0.0,0.0,-2.4274,-2.5282,-2.5045,-2.5437,-2.6507,-2.5116,-2.3536,0.0,0.0,0.0,0.0,0.0,0.0,0.0,0.0,0.0,0.0,0.0,0.0,0.0,0.0,0.0,0.0,0.0,0.0,0.0,0.0,0.0,0.0,0.0,0.0,0.0,0.0,0.0,0.0,0.0,0.0,0.0,0.0,0.0,0.0,0.0,0.0,0.0,0.0,0.0,0.0,0.0,0.0,0.0,0.0,0.0,0.0,0.0,0.0,0.0,0.0,0.0,0.0,0.0,0.0,0.0,0.0,0.0,0.0,0.0,0.0,0.0,0.0,0.0,0.0,0.0,0.0,0.0,0.0,0.0,0.0,0.0,0.0,0.0,0.0,0.0,0.0,0.0,0.0,0.0,0.0,0.0,0.0,0.0,0.0,0.0,0.0,0.0,0.0,0.0,0.0,0.0,0.0,0.0,0.0,0.0,0.0,0.0,0.0,0.0,0.0,0.0,0.0,0.0,0.0,0.0,0.0,0.0,-2.1819,-2.3384,-2.3943,-2.4169,-2.462,-2.5285,-2.4533,-2.3734,-2.2932,0.0,0.0,0.0,0.0,0.0,0.0,0.0,0.0,0.0,0.0,0.0,0.0,0.0,0.0,0.0,0.0,0.0,0.0,0.0,0.0,0.0,0.0,0.0,0.0,0.0,0.0,0.0,0.0,0.0,0.0,0.0,0.0,0.0,0.0,0.0,0.0,0.0,0.0,-1.2436,-1.4446,0.0,0.0,0.0,0.0,0.0,0.0,0.0,0.0,-1.4132,0.0,0.0,0.0,0.0,0.0,0.0,0.0,0.0,0.0,0.0,0.0,0.0,0.0,0.0,0.0,0.0,0.0,0.0,0.0,0.0,0.0,0.0,0.0,0.0,0.0,0.0,0.0,0.0,0.0,0.0,0.0,0.0,0.0,0.0,0.0,0.0,0.0,0.0,0.0,0.0,0.0,0.0,0.0,0.0,0.0,0.0,0.0,0.0,0.0,0.0,0.0,0.0,0.0,0.0,0.0,0.0,-2.1438,-2.2501,-2.3417,-2.4218,-2.4185,-2.4419,-2.4913,-2.3824,-2.2882,-2.2136,0.0,0.0,0.0,0.0,0.0,0.0,0.0,0.0,0.0,0.0,0.0,0.0,0.0,0.0,0.0,0.0,0.0,0.0,0.0,0.0,0.0,0.0,0.0,0.0,0.0,0.0,0.0,0.0,0.0,0.0,0.0,0.0,0.0,0.0,0.0,0.0,0.0,0.0,0.0,-1.715,-1.8065,0.0,0.0,0.0,0.0,0.0,0.0,0.0,0.0,-1.308,0.0,0.0,0.0,0.0,0.0,0.0,0.0,0.0,0.0,0.0,0.0,0.0,0.0,0.0,0.0,0.0,0.0,0.0,0.0,0.0,0.0,0.0,0.0,0.0,0.0,0.0,0.0,0.0,0.0,0.0,0.0,0.0,0.0,0.0,0.0,0.0,0.0,0.0,0.0,0.0,0.0,0.0,0.0,0.0,0.0,0.0,0.0,0.0,0.0,0.0,0.0,0.0,0.0,0.0,0.0,-2.0463,-2.1837,-2.268,-2.3033,-2.3039,-2.322,-2.3612,-2.2293,-2.1491,0.0,0.0,0.0,0.0,0.0,0.0,0.0,0.0,0.0,0.0,0.0,0.0,0.0,0.0,0.0,0.0,0.0,0.0,0.0,0.0,0.0,0.0,0.0,0.0,0.0,0.0,0.0,0.0,0.0,0.0,0.0,0.0,0.0,0.0,0.0,0.0,0.0,0.0,0.0,0.0,-1.8042,-1.8954,-1.9684,0.0,0.0,0.0,0.0,0.0,0.0,-1.5429,-1.4154,0.0,0.0,0.0,0.0,0.0,0.0,0.0,0.0,0.0,0.0,0.0,0.0,0.0,0.0,0.0,0.0,0.0,0.0,0.0,0.0,0.0,0.0,0.0,0.0,0.0,0.0,0.0,0.0,0.0,0.0,0.0,0.0,0.0,0.0,0.0,0.0,0.0,0.0,0.0,0.0,0.0,0.0,0.0,0.0,0.0,0.0,0.0,0.0,0.0,0.0,0.0,0.0,0.0,0.0,0.0,-1.9097,-2.0841,-2.1732,-2.1705,-2.1868,-2.2082,-2.2293,-2.1156,-2.0487,0.0,0.0,0.0,0.0,0.0,0.0,0.0,0.0,0.0,0.0,0.0,0.0,0.0,0.0,0.0,0.0,0.0,0.0,0.0,0.0,0.0,0.0,0.0,0.0,0.0,0.0,0.0,0.0,0.0,0.0,0.0,0.0,0.0,0.0,0.0,0.0,0.0,0.0,0.0,0.0,0.0,-1.9891,-2.0371,-1.9734,0.0,0.0,0.0,0.0,-1.858,-1.7777,0.0,0.0,0.0,0.0,0.0,0.0,0.0,0.0,0.0,0.0,0.0,0.0,0.0,0.0,0.0,0.0,0.0,0.0,0.0,0.0,0.0,0.0,0.0,0.0,0.0,0.0,0.0,0.0,0.0,0.0,0.0,0.0,0.0,0.0,0.0,0.0,0.0,0.0,0.0,0.0,0.0,0.0,0.0,0.0,0.0,0.0,0.0,0.0,0.0,0.0,0.0,0.0,0.0,0.0,0.0,0.0,-1.8702,-2.0131,-2.0867,-2.0958,-2.1509,-2.1763,-2.1702,-2.1699,-2.0931,0.0,0.0,0.0,0.0,0.0,0.0,0.0,0.0,0.0,0.0,0.0,0.0,0.0,0.0,0.0,0.0,0.0,0.0,0.0,0.0,0.0,0.0,0.0,0.0,0.0,0.0,0.0,0.0,0.0,0.0,0.0,0.0,0.0,0.0,0.0,0.0,0.0,0.0,0.0,0.0,0.0,-2.1584,-2.1087,-2.0366,-2.0256,0.0,0.0,-2.005,-2.1255,-2.1402,0.0,0.0,0.0,0.0,0.0,0.0,0.0,0.0,0.0,0.0,0.0,0.0,0.0,0.0,0.0,0.0,0.0,0.0,0.0,0.0,0.0,0.0,0.0,0.0,0.0,0.0,0.0,0.0,0.0,0.0,0.0,0.0,0.0,0.0,0.0,0.0,0.0,0.0,0.0,0.0,0.0,0.0,0.0,0.0,0.0,0.0,0.0,0.0,0.0,0.0,0.0,0.0,0.0,0.0,0.0,-1.6624,-1.8806,-2.0121,-2.0813,-2.0958,-2.1135,-2.1308,-2.1493,-2.0914,-2.0093,0.0,0.0,0.0,0.0,0.0,0.0,0.0,0.0,0.0,0.0,0.0,0.0,0.0,0.0,0.0,0.0,0.0,0.0,0.0,0.0,0.0,0.0,0.0,0.0,0.0,0.0,0.0,0.0,0.0,0.0,0.0,0.0,0.0,0.0,0.0,0.0,0.0,0.0,0.0,0.0,0.0,0.0,-2.163,-2.1325,0.0,0.0,0.0,-2.1669,-2.3483,0.0,0.0,0.0,0.0,0.0,0.0,0.0,0.0,0.0,0.0,0.0,0.0,0.0,0.0,0.0,0.0,0.0,0.0,0.0,0.0,0.0,0.0,0.0,0.0,0.0,0.0,0.0,0.0,0.0,0.0,0.0,0.0,0.0,0.0,0.0,0.0,0.0,0.0,0.0,0.0,0.0,0.0,0.0,0.0,0.0,0.0,0.0,0.0,0.0,0.0,0.0,0.0,0.0,0.0,0.0,0.0,0.0,-1.8882,-2.0162,-2.0876,-2.1038,-2.0876,-2.0958,-2.1292,-2.0226,0.0,0.0,0.0,0.0,0.0,0.0,0.0,0.0,0.0,0.0,0.0,0.0,0.0,0.0,0.0,0.0,0.0,0.0,0.0,0.0,0.0,0.0,0.0,0.0,0.0,0.0,0.0,-0.8632,0.0,0.0,0.0,0.0,0.0,0.0,0.0,0.0,0.0,0.0,0.0,0.0,0.0,0.0,-2.1793,-2.2455,-2.2764,-2.3338,0.0,0.0,-2.3657,-2.5171,-2.43,-2.2695,0.0,0.0,0.0,0.0,0.0,0.0,0.0,0.0,0.0,0.0,0.0,0.0,0.0,0.0,0.0,0.0,0.0,0.0,0.0,0.0,0.0,0.0,0.0,0.0,0.0,0.0,0.0,0.0,0.0,0.0,0.0,0.0,0.0,0.0,0.0,0.0,0.0,0.0,0.0,0.0,0.0,0.0,0.0,0.0,0.0,0.0,0.0,0.0,0.0,0.0,0.0,0.0,0.0,0.0,-1.6016,-1.866,-2.0099,-2.0811,-2.0826,-2.0811,-2.0893,-2.1103,-2.0257,-1.9049,0.0,0.0,0.0,0.0,0.0,0.0,0.0,0.0,0.0,0.0,0.0,0.0,0.0,0.0,0.0,0.0,0.0,0.0,0.0,0.0,0.0,0.0,0.0,0.0,0.0,0.0,0.0,0.0,0.0,0.0,0.0,0.0,0.0,0.0,0.0,0.0,0.0,0.0,0.0,0.0,0.0,-2.3717,-2.3765,-2.4887,-2.5993,0.0,-2.6814,-2.6577,-2.6024,-2.6893,-2.6124,-2.1523,0.0,0.0,0.0,0.0,0.0,0.0,0.0,0.0,0.0,0.0,0.0,0.0,0.0,0.0,0.0,0.0,0.0,0.0,0.0,0.0,0.0,0.0,0.0,0.0,0.0,0.0,0.0,0.0,-1.3076,0.0,0.0,0.0,0.0,0.0,0.0,0.0,0.0,0.0,0.0,0.0,0.0,0.0,0.0,0.0,0.0,0.0,0.0,0.0,0.0,0.0,0.0,0.0,0.0,-1.5943,-1.8662,-2.0083,-2.081,-2.081,-2.081,-2.0844,-2.0909,-2.1017,-2.0115,0.0,0.0,0.0,0.0,0.0,0.0,0.0,0.0,0.0,0.0,0.0,0.0,0.0,0.0,0.0,0.0,0.0,0.0,0.0,0.0,0.0,0.0,0.0,0.0,0.0,0.0,0.0,0.0,-1.1109,-1.1498,-1.1787,0.0,0.0,0.0,0.0,0.0,0.0,0.0,0.0,0.0,0.0,-2.3733,-2.5013,-2.5677,0.0,0.0,-2.7367,-2.7304,-2.7819,-2.6925,-2.5412,-2.3067,-2.1144,0.0,0.0,0.0,0.0,0.0,0.0,0.0,0.0,0.0,0.0,0.0,0.0,0.0,0.0,0.0,0.0,0.0,0.0,0.0,0.0,0.0,0.0,0.0,0.0,0.0,0.0,-1.353,-1.3133,0.0,0.0,0.0,0.0,0.0,0.0,0.0,0.0,0.0,0.0,0.0,0.0,0.0,0.0,0.0,0.0,0.0,0.0,0.0,0.0,0.0,0.0,0.0,0.0,-1.5959,-1.8661,-1.9894,-2.0589,-2.0794,-2.081,-2.081,-2.0811,-2.1098,-2.0424,0.0,0.0,0.0,0.0,0.0,0.0,0.0,0.0,0.0,0.0,0.0,0.0,0.0,0.0,0.0,0.0,0.0,0.0,0.0,0.0,0.0,0.0,0.0,0.0,0.0,0.0,0.0,0.0,-1.221,-1.215,-1.1632,0.0,0.0,0.0,0.0,0.0,0.0,0.0,0.0,0.0,0.0,-2.4744,-2.6388,-2.6799,-2.7288,-2.8252,-2.7826,-2.7567,-2.8088,-2.6735,-2.5112,-2.3541,0.0,0.0,0.0,0.0,0.0,0.0,0.0,0.0,0.0,0.0,0.0,0.0,0.0,0.0,0.0,0.0,0.0,0.0,0.0,0.0,0.0,0.0,0.0,0.0,0.0,0.0,0.0,-1.4116,0.0,0.0,-1.3312,0.0,0.0,0.0,0.0,0.0,0.0,0.0,0.0,0.0,0.0,0.0,0.0,0.0,0.0,0.0,0.0,0.0,0.0,0.0,0.0,0.0,0.0,-1.5991,-1.8662,-1.9514,-2.0178,-2.0778,-2.081,-2.081,-2.0811,-2.021,-1.959,-1.9013,0.0,0.0,0.0,0.0,0.0,0.0,0.0,0.0,0.0,0.0,0.0,0.0,0.0,0.0,0.0,0.0,0.0,0.0,0.0,0.0,0.0,0.0,0.0,0.0,0.0,0.0,-1.3142,-1.2547,-1.1408,0.0,0.0,0.0,0.0,0.0,0.0,0.0,0.0,0.0,-2.1837,-2.4855,-2.7257,-2.7952,-2.8593,-2.8988,-2.9051,-2.8483,-2.762,-2.6404,-2.6625,-2.5898,0.0,0.0,0.0,0.0,0.0,0.0,0.0,0.0,0.0,0.0,0.0,0.0,0.0,0.0,0.0,0.0,0.0,0.0,0.0,0.0,0.0,0.0,0.0,0.0,0.0,0.0,0.0,-1.7498,-1.6858,0.0,0.0,0.0,0.0,0.0,0.0,0.0,0.0,0.0,0.0,0.0,-2.1553,-2.2026,0.0,0.0,0.0,0.0,0.0,0.0,0.0,0.0,0.0,0.0,0.0,0.0,-1.7083,-1.9356,-2.0605,-2.1079,-2.081,-2.081,-2.081,-2.0811,-2.1096,-2.0863,-1.9997,0.0,0.0,0.0,0.0,0.0,0.0,0.0,0.0,0.0,0.0,0.0,0.0,0.0,0.0,0.0,0.0,0.0,0.0,0.0,0.0,0.0,0.0,0.0,0.0,0.0,-1.2521,0.0,0.0,0.0,0.0,0.0,0.0,0.0,0.0,0.0,0.0,-1.9925,-2.1932,-2.495,-2.6356,-2.751,-2.8593,-2.8956,-2.9114,0.0,0.0,0.0,0.0,0.0,0.0,0.0,0.0,0.0,0.0,0.0,0.0,0.0,0.0,-2.7104,-2.2199,-2.086,-2.0472,-2.0348,0.0,0.0,0.0,0.0,0.0,0.0,0.0,0.0,0.0,0.0,0.0,0.0,0.0,0.0,-2.0069,-1.9824,-1.8873,0.0,0.0,0.0,0.0,0.0,0.0,0.0,0.0,-2.2108,-2.3303,-2.3533,-2.4049,-2.4049,-2.361,-2.2912,-2.0842,0.0,0.0,0.0,0.0,0.0,0.0,0.0,0.0,-1.7904,-1.9751,-2.0699,-2.1031,-2.0826,-2.081,-2.0827,-2.0909,-2.163,-2.1464,-2.0265,-1.9125,-1.7844,0.0,0.0,0.0,0.0,0.0,0.0,0.0,0.0,0.0,0.0,0.0,0.0,0.0,0.0,0.0,0.0,0.0,0.0,0.0,0.0,0.0,0.0,0.0,-1.3196,0.0,0.0,0.0,0.0,0.0,0.0,0.0,0.0,0.0,-2.1094,-2.2232,-2.4176,-2.7346,-2.781,-2.8198,-2.9343,0.0,0.0,0.0,0.0,0.0,0.0,0.0,-2.6971,-2.7725,-2.6818,-2.6314,-2.7428,-2.8844,-2.9773,-2.9487,0.0,0.0,-2.5966,-2.4736,-2.4395,-2.4518,-2.5411,-2.5897,-2.5185,-2.624,-2.7078,0.0,0.0,0.0,0.0,-2.2025,0.0,0.0,0.0,-2.2374,-2.2406,0.0,-2.157,0.0,0.0,0.0,0.0,-1.8125,-2.1317,0.0,0.0,-2.514,-2.5993,-2.4176,-2.4796,-2.51,-2.508,-2.5614,-2.4855,-2.2708,-1.817,-1.5482,0.0,0.0,0.0,0.0,0.0,-1.8473,-1.983,-1.9941,-2.0194,-2.0795,-2.0811,-2.0925,-2.1151,-2.1761,-2.1419,-2.0,-2.1055,-1.9897,-1.5984,-1.673,0.0,0.0,0.0,0.0,0.0,0.0,0.0,0.0,0.0,0.0,0.0,0.0,0.0,0.0,0.0,0.0,0.0,0.0,0.0,0.0,-1.3908,0.0,0.0,0.0,0.0,0.0,0.0,0.0,0.0,0.0,-2.2041,-2.2181,-2.4977,-2.7614,-2.894,0.0,0.0,0.0,0.0,-3.0204,-3.0204,-3.0393,-3.0208,-2.9278,-2.9483,-2.9232,-2.7811,0.0,0.0,-2.8192,-2.9026,-2.9567,-2.8241,-2.9231,-3.0473,-3.2199,-3.0957,-3.0044,-3.0028,-2.9314,-2.8833,-2.8635,-2.8778,-2.9014,-2.7857,0.0,0.0,0.0,0.0,-2.525,-2.5787,-2.7267,-2.6609,-2.5851,-2.5092,-2.4697,0.0,0.0,0.0,0.0,0.0,0.0,-2.3923,-2.4586,-2.6309,-2.6783,-2.6214,-2.6878,-2.6709,-2.576,-2.5914,-2.5456,-2.4337,-2.2469,-2.0162,-1.7571,0.0,0.0,0.0,0.0,-2.0368,-2.1238,-2.1402,-2.1309,-2.1022,-2.1119,-2.1402,-2.188,-2.218,-2.2415,-2.2678,-2.1854,-2.1149,-2.0632,-1.8671,0.0,0.0,0.0,0.0,0.0,0.0,0.0,0.0,0.0,0.0,0.0,0.0,0.0,0.0,0.0,0.0,0.0,0.0,0.0,-1.4016,-1.4283,-1.4541,0.0,0.0,0.0,0.0,0.0,0.0,0.0,0.0,0.0,-2.6909,-2.7462,-2.8316,0.0,0.0,-3.0496,-3.0236,-3.022,-3.022,-3.022,-2.9972,0.0,-2.945,-2.8834,-2.8746,-2.9738,-3.0823,-3.1459,-3.1067,-3.1484,-3.1742,-3.1319,-3.1616,-3.2067,-3.2436,-3.1369,-3.034,-3.0396,-3.0611,-3.0696,-3.0511,-3.0914,-3.1257,-3.1049,-2.9453,-2.8363,-2.83,-2.8828,-2.7693,-2.8104,-2.9469,-2.8521,-2.7921,-2.7636,-2.7367,-2.6288,-2.463,-2.3399,0.0,0.0,0.0,-2.5645,-2.6467,-2.7162,-2.7352,-2.713,-2.7225,-2.6988,-2.643,-2.6151,-2.5787,-2.5397,-2.495,-2.3399,-2.0842,0.0,-2.0573,-2.1031,-2.1427,-2.1695,-2.1869,-2.1972,-2.169,-2.1006,-2.1183,-2.1495,-2.1822,-2.2249,-2.2745,-2.3305,-2.2798,-2.2395,-2.2181,-2.0708,-1.8944,0.0,0.0,0.0,0.0,0.0,0.0,0.0,0.0,0.0,0.0,0.0,-1.2443,-1.0413,0.0,0.0,0.0,-1.2166,-1.3793,-1.5854,-1.6331,0.0,0.0,0.0,0.0,0.0,0.0,0.0,-2.4958,-2.6707,-2.812,-2.897,-2.9011,-2.9366,-3.0449,-3.048,-3.0314,-3.022,0.0,-3.022,-3.022,-3.0384,-3.0456,-3.0341,-2.9751,-2.9634,-3.0483,-3.1127,-3.1517,-3.1489,-3.1682,-3.1835,-3.1835,-3.1818,-3.1818,-3.1818,-3.0978,-3.0589,-3.1212,-3.1632,-3.1797,-3.1657,-3.1749,-3.1802,-3.3293,-3.3087,-3.0503,-2.9848,-3.0378,-2.9651,-2.9738,-3.0251,-2.8916,-2.9042,-3.0125,-2.9501,-2.9161,-2.8972,-2.7115,0.0,-2.7273,-2.7273,-2.7257,-2.7288,-2.7889,-2.7826,-2.7162,-2.6477,-2.6467,-2.6988,-2.6325,-2.6009,-2.5993,-2.5993,-2.5392,-2.4156,-2.3528,-2.3183,-2.3072,-2.3072,-2.2722,-2.2088,-2.2092,-2.1713,-2.0955,-2.1215,-2.1372,-2.1387,-2.2148,-2.2603,-2.2627,-2.365,-2.343,-2.1764,-2.2489,-2.1173,-1.7356,0.0,0.0,0.0,0.0,0.0,0.0,0.0,0.0,0.0,0.0,0.0,0.0,0.0,0.0,0.0,-1.5657,0.0,-1.8428,-1.947,0.0,0.0,0.0,-2.2742,-2.3556,-2.4982,-2.6254,-2.7184,0.0,0.0,-2.919,-2.9793,-3.041,-3.0979,-3.0022,-2.9516,-3.0149,-3.0204,-3.022,-3.022,-3.1069,-3.1668,-3.1198,-3.1189,-3.0973,-3.0401,-3.038,-3.0504,-3.0356,-3.0446,-3.0522,-3.0588,-3.0506,-3.0539,-3.0506,-3.0539,-3.0919,-3.215,-3.2237,-3.2095,-3.1997,-3.1548,-3.1172,-3.3293,-3.3245,-3.2582,-3.2408,-3.2503,-3.1849,-3.1643,-3.1706,-3.086,-3.037,-3.0204,-3.0006,-2.9643,-2.9082,-2.8577,-2.8451,-2.8625,-2.8625,-2.8625,-2.8625,-2.8783,-2.8505,-2.7857,-2.7683,-2.7115,-2.6277,-2.6088,-2.6009,-2.6009,-2.6009,-2.6098,-2.6304,-2.6182,-2.5566,-2.4543,-2.4495,-2.4416,-2.4242,-2.3851,-2.3154,-2.22,-2.1957,-2.1851,-2.1926,-2.2257,-2.2716,-2.3314,-2.3102,-2.3069,-2.3252,-2.2461,-2.1451,-2.0311,-1.7684,0.0,0.0,0.0,0.0,0.0,0.0,0.0,0.0,0.0,-1.6359,-1.3252,0.0,-1.7507,0.0,-1.7125,-1.8726,-2.0617,-2.1229,0.0,0.0,-2.4706,-2.5173,-2.7215,-2.7492,-2.7895,-2.883,-2.9749,-3.0322,-3.047,-3.0306,-3.0117,-2.9947,-3.0379,-3.0623,-3.0481,-3.0283,-3.022,-3.022,-3.0284,-3.0238,-3.0128,-3.0303,-3.053,-3.0455,-3.0447,-3.0468,-3.0443,-3.0485,-3.0489,-3.0489,-3.0489,-3.0489,-3.0489,-3.0489,-3.0588,-3.0936,-3.0976,-3.0917,-3.0917,-3.0785,-3.0686,-3.3293,-3.3293,-3.3293,-3.3293,-3.3245,-3.2576,-3.2291,-3.2228,-3.1507,-3.0828,-3.022,-3.022,-3.0133,-3.0014,-2.9738,-2.9595,-2.958,-2.924,-2.9114,-2.9114,-2.9114,-2.8893,-2.8537,-2.8237,-2.7683,-2.6941,-2.6641,-2.6325,-2.6024,-2.6009,-2.6056,-2.6187,-2.6187,-2.5914,-2.5492,-2.5846,-2.5922,-2.562,-2.4807,-2.3766,-2.2573,-2.237,-2.2174,-2.1901,-2.213,-2.2488,-2.2918,-2.2968,-2.3096,-2.3254,-2.2851,-2.2263,-2.1476,-1.9432,-1.8021,0.0,0.0,0.0,0.0,0.0,0.0,0.0,0.0,0.0,0.0,0.0,-1.959,-1.931,-2.0504,-2.209,-2.3902,-2.4659,-2.5711,-2.7427,-2.7424,-2.7873,-2.923,-2.9259,-2.9419,-3.0048,-3.0287,-3.0419,-3.0403,-3.0085,-2.9842,-2.9653,-3.0096,-3.0299,-2.9973,-2.9947,-2.9993,-2.9885,-2.9823,-2.9793,-2.9804,-3.0087,-3.038,-3.0468,-3.0489,-3.0489,-3.0489,-3.0489,-3.0489,-3.0489,-3.0489,-3.0489,-3.0489,-3.0489,-3.0489,-3.0489,-3.0489,-3.0489,-3.0489,-3.0489,-3.0489,-3.3293,-3.3293,-3.3293,-3.3293,-3.3261,-3.2687,-3.2418,-3.2386,-3.165,-3.0907,-3.022,-3.022,-3.0464,-3.0867,-3.0322,-3.0062,-3.0006,-2.9406,-2.9114,-2.9114,-2.9114,-2.9114,-2.9082,-2.8521,-2.8173,-2.8079,-2.751,-2.6846,-2.6151,-2.604,-2.574,-2.527,-2.5199,-2.5516,-2.6197,-2.705,-2.7189,-2.6535,-2.5371,-2.4168,-2.2948,-2.2965,-2.2718,-2.2124,-2.2176,-2.2188,-2.2219,-2.3102,-2.33,-2.2678,-2.3512,-2.3375,-2.1939,-2.1249,-2.0296,0.0,-1.8736,0.0,0.0,0.0,0.0,0.0,0.0,0.0,0.0,-2.1323,-2.1981,-2.3464,-2.4529,-2.5742,-2.7302,-2.831,-2.8779,-2.8628,-2.9563,-3.0248,-3.0287,-3.0413,-3.0568,-3.0768,-3.0259,-2.9853,-2.9913,-2.97,-2.9627,-2.9826,-2.9748,-2.9627,-2.9321,-2.9547,-2.9704,-2.956,-2.9661,-2.9875,-3.0167,-3.0338,-3.0464,-3.0485,-3.0638,-3.0605,-3.0506,-3.0605,-3.0621,-3.0522,-3.0489,-3.0489,-3.0489,-3.0489,-3.0489,-3.0489,-3.0489,-3.0489,-3.0489,-3.0489,-3.0489,-3.3293,-3.3293,-3.3293,-3.3293,-3.3293,-3.3151,-3.3103,-3.3056,-3.2386,-3.139,-3.0236,-3.022,-2.9943,-2.9509,-2.9367,-2.9304,-2.9304,-2.9161,-2.9114,-2.9114,-2.9114,-2.9114,-2.9098,-2.8972,-2.8632,-2.811,-2.7952,-2.7557,-2.6893,-2.6293,-2.623,-2.6672,-2.6284,-2.6429,-2.7125,0.0,0.0,0.0,-2.6159,-2.561,-2.5543,-2.4944,-2.4697,-2.4725,-2.3445,0.0,-2.2768,-2.3318,-2.3434,-2.3129,-2.417,0.0,0.0,0.0,0.0,0.0,0.0,0.0,0.0,0.0,0.0,0.0,-2.3794,-2.3154,-2.335,-2.4637,-2.5782,-2.6584,-2.6773,-2.7352,-2.8611,-2.907,-2.9749,-3.0866,-3.0671,-3.07,-3.1276,-3.0874,-3.0467,-3.0326,-3.0223,-3.0172,-3.03,-3.0006,-2.9853,-3.0065,-3.0081,-2.9957,-2.97,-2.9611,-2.9611,-2.9722,-2.981,-2.9984,-3.0401,-3.0338,-3.0359,-3.0492,-3.1052,-3.1101,-3.0654,-3.0986,-3.1101,-3.0638,-3.0489,-3.0489,-3.0489,-3.0489,-3.0489,-3.0489,-3.0489,-3.0489,-3.0489,-3.0489,-3.0489,-3.3372,-3.3503,-3.3503,-3.3581,0.0,-3.371,-3.3694,-3.3652,-3.3059,-3.2196,-3.1232,-3.0868,-3.0306,-2.9643,-2.9643,-2.9453,-2.9114,-2.9114,-2.9114,-2.9114,-2.9114,-2.9114,-2.9114,-2.9114,-2.8925,-2.8577,-2.8577,-2.8252,-2.7589,-2.7317,-2.7206,-2.7243,-2.6747,-2.6687,-2.703,-2.6987,-2.7084,-2.7346,-2.6838,-2.6315,-2.5727,-2.531,-2.4979,-2.4729,-2.4027,0.0,0.0,0.0,0.0,0.0,0.0,0.0,0.0,0.0,0.0,-2.3621,-2.3361,-2.3553,-2.4326,-2.4655,-2.5163,-2.5932,-2.6448,-2.6234,-2.5131,-2.6521,-2.7751,-2.8375,-2.8694,-2.9128,-2.97,-2.9902,-3.0261,-3.1004,-3.0725,-3.0675,-3.0983,-3.0763,-3.0464,-3.0363,-3.0384,-3.0431,-3.0489,-3.0347,-3.0182,-3.021,-3.0227,-3.0146,-3.0022,-3.0,-3.0006,-3.0,-3.0092,-3.0177,-3.03,-3.038,-3.0363,-3.0534,-3.0803,-3.087,-3.0572,-3.0787,-3.0919,-3.0555,-3.0489,-3.0489,-3.0489,-3.0489,-3.0489,-3.0489,-3.0489,-3.0489,-3.0489,-3.0489,-3.0489,-3.3424,-3.3633,-3.3633,-3.3745,-3.3949,-3.3949,-3.3949,-3.394,-3.3529,0.0,0.0,-3.1665,-3.1042,-3.0466,-3.0299,-2.9943,-2.9427,-2.9238,-2.919,-2.922,-2.919,-2.919,-2.9236,-2.922,-2.9213,-2.9236,-2.9236,-2.8935,-2.8402,-2.8456,-2.8175,-2.7639,-2.7187,-2.6883,-2.6775,-2.6372,-2.6455,-2.7083,-2.7232,-2.672,-2.5594,-2.5508,-2.521,-2.4663,-2.4511,-2.4362,-2.4199,-2.4394,-2.4489,-2.4458,-2.4828,-2.4934,-2.4785,-2.5579,-2.5968,-2.583,-2.641,-2.6613,-2.6303,-2.6971,-2.7145,-2.6568,-2.81,-2.85,-2.705,-2.7999,-2.8912,-2.9549,-3.0026,-3.0361,-3.0572,-3.0572,-3.0651,-3.072,-3.0699,-3.0675,-3.0692,-3.0613,-3.0589,-3.0526,-3.0535,-3.0559,-3.051,-3.0535,-3.0497,-3.03,-3.0274,-3.0253,-3.0274,-3.0342,-3.0401,-3.0279,-3.0342,-3.0422,-3.0338,-3.0401,-3.0489,-3.0489,-3.0638,-3.0654,-3.0539,-3.0588,-3.0621,-3.0522,-3.0489,-3.0489,-3.0489,-3.0489,-3.0489,-3.0489,-3.0489,-3.0489,-3.0489,-3.0489,-3.0489,-3.3335,-3.3346,-3.3361,-3.3372,-3.3424,-3.3398,-3.3398,-3.3424,-3.3565,-3.3131,-3.2291,-3.2196,-3.1879,-3.1358,-3.0751,-3.0548,-3.0587,-2.981,-2.9538,-2.97,-2.9538,-2.9538,-2.97,-2.97,-2.9683,-2.97,-2.97,-2.9657,-2.9528,-2.9017,-2.8704,-2.8579,-2.8152,-2.7676,-2.7257,-2.7127,-2.6864,-2.6402,-2.6984,-2.7311,-2.7346,-2.7113,-2.7063,-2.7126,-2.573,-2.4978,-2.4961,-2.5196,-2.5229,-2.5029,-2.5849,-2.6017,-2.5361,-2.5653,-2.5939,-2.6124,-2.6226,-2.692,-2.832,-2.8731,-2.9036,-2.9256,-2.8999,-2.9049,-2.9818,-2.9775,-2.9864,-3.0282,-2.9926,-2.9969,-3.0758,-3.0915,-3.1078,-3.1526,-3.1449,-3.1351,-3.1274,-3.1089,-3.0844,-3.0597,-3.051,-3.058,-3.0593,-3.058,-3.058,-3.0485,-3.0464,-3.0464,-3.0443,-3.0468,-3.0489,-3.0447,-3.0468,-3.0485,-3.0447,-3.0447,-3.0489,-3.0489,-3.0986,-3.1085,-3.0572,-3.0919,-3.1068,-3.0605,-3.0506,-3.0489,-3.0489,-3.0489,-3.0489,-3.0489,-3.0489,-3.0489,-3.0489,-3.0489,-3.0489,-3.3684,-3.3924,-3.3949,-3.4025,-3.4176,-3.4176,-3.4075,-3.3975,-3.4075,-3.3662,-3.2876,-3.2819,-3.2517,-3.1944,-3.1366,-3.0886,-3.0471,-2.9813,-2.9454,-2.9425,-2.9312,-2.9403,-2.9611,-2.9633,-2.97,-2.9772,-2.9793,-2.9793,-2.9761,-2.9615,-2.9571,-2.9522,-2.9058,-2.8494,-2.7945,-2.7895,-2.7729,-2.7379,-2.6932,-2.6756,-2.6865,-2.6756,-2.6756,-2.6883,-2.6058,-2.5689,-2.5706,-2.5812,-2.5828,-2.5689,-2.6284,-2.6369,-2.5897,-2.6455,-2.6996,-2.7367,-2.7418,-2.791,-2.9086,-2.8921,-2.902,-2.9552,-2.9299,-2.947,-3.0406,-2.9969,-2.9856,-3.0427,-3.0174,-3.0203,-3.0662,-3.0733,-3.0838,-3.112,-3.1021,-3.0958,-3.0989,-3.124,-3.127,-3.1177,-3.1603,-3.1745,-3.1156,-3.1254,-3.1075,-3.0667,-3.063,-3.0712,-3.0564,-3.0667,-3.0692,-3.0531,-3.0489,-3.0489,-3.0489,-3.0489,-3.0489,-3.0489,-3.077,-3.0837,-3.0539,-3.0853,-3.082,-3.0588,-3.0489,-3.0489,-3.0489,-3.0489,-3.0489,-3.0489,-3.0489,-3.0489,-3.0489,-3.0489,-3.0489,-3.4009,-3.4399,-3.4415,-3.4505,-3.4715,-3.4715,-3.4594,-3.4423,-3.4415,-3.4075,-3.3529,-3.3477,-3.3226,-3.2787,-3.2232,-3.1566,-3.0774,-3.0183,-2.972,-2.9441,-2.9373,-2.947,-2.9716,-2.9716,-2.981,-2.9941,-2.9962,-2.9962,-2.9984,-3.0172,-3.0253,-3.0208,-2.9848,-2.9317,-2.8641,-2.8624,-2.8539,-2.8343,-2.7282,-2.6617,-2.6452,-2.6285,-2.6185,-2.6185,-2.6185,-2.6185,-2.6185,-2.6185,-2.6185,-2.6203,-2.6398,-2.6482,-2.647,-2.7238,-2.7929,-2.8391,-2.8472,-2.8788,-2.94,-2.9018,-2.9021,-2.9699,-2.9685,-2.9893,-3.0373,-2.9976,-2.986,-3.039,-3.0472,-3.0531,-3.063,-3.063,-3.07,-3.0879,-3.0949,-3.1124,-3.1166,-3.1627,-3.1916,-3.1978,-3.2589,-3.2715,-3.2217,-3.2177,-3.2039,-3.142,-3.134,-3.1361,-3.1112,-3.1237,-3.1204,-3.0842,-3.0621,-3.0506,-3.0506,-3.0671,-3.0671,-3.0572,-3.0688,-3.0721,-3.0621,-3.0489,-3.0506,-3.0489,-3.0489,-3.0489,-3.0489,-3.0489,-3.0489,-3.0489,-3.0489,-3.0489,-3.0489,-3.0489,-3.0489,-3.4101,-3.4126,-3.4176,-3.4151,-3.4226,-3.4201,-3.4201,-3.4176,-3.4151,-3.4101,-3.4025,-3.4025,-3.4118,-3.4178,-3.3517,-3.2892,-3.2346,-3.1544,-3.0811,-3.0345,-3.0189,-3.021,-3.0359,-3.0384,-3.0405,-3.0405,-3.0405,-3.0384,-3.0384,-3.0426,-3.0447,-3.0485,-3.0423,-3.0009,-2.94,-2.9297,-2.9019,-2.8426,-2.8276,-2.7879,-2.7199,-2.6551,-2.6185,-2.6185,-2.6202,-2.6185,-2.6268,-2.6185,-2.6202,-2.6203,-2.6271,-2.6571,-2.7136,-2.754,-2.8002,-2.8636,-2.8684,-2.9005,-2.9746,-2.976,-2.9973,-3.0734,-3.0521,-3.039,-3.0489,-3.0439,-3.0423,-3.0522,-3.0506,-3.063,-3.0895,-3.0949,-3.1315,-3.207,-3.2201,-3.2493,-3.274,-3.3004,-3.2947,-3.2641,-3.2857,-3.2823,-3.3055,-3.3077,-3.3005,-3.2719,-3.2736,-3.2652,-3.232,-3.2337,-3.2192,-3.1575,-3.0986,-3.0621,-3.0638,-3.1101,-3.1168,-3.0754,-3.1101,-3.1217,-3.0936,-3.0654,-3.0506,-3.0704,-3.0506,-3.0506,-3.0489,-3.0489,-3.0489,-3.0489,-3.0489,-3.0489,-3.0489,-3.0489,-3.0489,-3.4423,-3.457,-3.457,-3.457,-3.457,-3.457,-3.457,-3.4586,-3.457,-3.457,-3.457,-3.457,-3.4472,-3.4226,-3.3655,-3.3236,-3.2868,-3.181,-3.1084,-3.0697,-3.0218,-3.0087,-3.0316,-3.0316,-3.038,-3.0489,-3.0489,-3.0489,-3.0489,-3.0489,-3.0489,-3.0489,-3.0489,-3.034,-3.0059,-3.0059,-2.9893,-2.9632,-2.9218,-2.8837,-2.8506,-2.7843,-2.7495,-2.7495,-2.7479,-2.7495,-2.7514,-2.7495,-2.7495,-2.7514,-2.7479,-2.763,-2.7928,-2.8042,-2.8415,-2.9079,-2.9526,-2.9909,-3.0229,-3.0209,-3.0342,-3.0695,-3.0572,-3.0489,-3.0522,-3.0886,-3.1151,-3.1118,-3.0754,-3.0717,-3.1258,-3.1341,-3.1708,-3.2437,-3.2626,-3.2734,-3.2872,-3.3301,-3.3551,-3.3634,-3.4047,-3.4231,-3.4134,-3.3811,-3.3473,-3.3313,-3.3372,-3.336,-3.2868,-3.2857,-3.2762,-3.2343,-3.1967,-3.1598,-3.13,-3.135,-3.1598,-3.1818,-3.2034,-3.205,-3.1835,-3.135,-3.1168,-3.1135,-3.082,-3.0572,-3.0489,-3.0489,-3.0489,-3.0522,-3.0506,-3.0489,-3.0489,-3.0489,-3.0638,-3.4715,-3.4899,-3.4899,-3.4899,-3.4899,-3.4899,-3.4899,-3.4899,-3.4899,-3.4899,-3.4899,-3.4899,-3.4707,-3.4309,-3.3964,-3.3636,-3.319,-3.238,-3.1767,-3.1332,-3.0641,-3.0419,-3.057,-3.0377,-3.0359,-3.0468,-3.0489,-3.0489,-3.0489,-3.0489,-3.0489,-3.0489,-3.0489,-3.0489,-3.0489,-3.0489,-3.0489,-3.0439,-2.9943,-2.9711,-2.9612,-2.9218,-2.879,-2.8459,-2.8409,-2.8409,-2.8409,-2.8409,-2.8409,-2.8409,-2.8409,-2.8492,-2.8655,-2.8691,-2.8969,-2.9645,-3.0191,-3.0489,-3.0489,-3.0489,-3.0489,-3.0506,-3.0654,-3.0787,-3.0919,-3.1482,-3.1885,-3.1863,-3.1399,-3.1404,-3.1785,-3.1896,-3.2232,-3.2884,-3.3084,-3.3184,-3.3489,-3.4018,-3.4488,-3.4761,-3.5143,-3.5513,-3.5313,-3.4998,-3.4685,-3.4362,-3.4286,-3.413,-3.359,-3.3612,-3.3523,-3.3111,-3.2978,-3.268,-3.21,-3.2194,-3.2431,-3.2531,-3.2746,-3.2895,-3.2801,-3.2183,-3.1697,-3.1482,-3.1068,-3.0853,-3.0886,-3.082,-3.0704,-3.0803,-3.0919,-3.1068,-3.1305,-3.1156,-3.1338,-3.4899,-3.4899,-3.4899,-3.4899,-3.4899,-3.4899,-3.4899,-3.4899,-3.4899,-3.4899,-3.4899,-3.4899,-3.4899,-3.4835,-3.4752,-3.4428,-3.3849,-3.3627,-3.3181,-3.2546,-3.1836,-3.1505,-3.1477,-3.0832,-3.0501,-3.0588,-3.0522,-3.0489,-3.0489,-3.0489,-3.0489,-3.0489,-3.0489,-3.0489,-3.0489,-3.0489,-3.0489,-3.0472,-3.039,-3.0406,-3.0423,-3.0373,-2.9698,-2.8658,-2.8442,-2.8508,-2.8475,-2.8442,-2.8459,-2.8442,-2.8508,-2.8721,-2.9264,-2.9363,-2.9678,-3.0323,-3.0456,-3.0489,-3.0489,-3.0539,-3.0555,-3.0621,-3.1184,-3.1548,-3.1598,-3.2232,-3.2613,-3.2669,-3.2652,-3.2669,-3.2718,-3.268,-3.2984,-3.3692,-3.4041,-3.4482,-3.5149,-3.5362,-3.5735,-3.5783,-3.5856,-3.6045,-3.634,-3.6681,-3.6429,-3.6129,-3.5929,-3.5516,-3.5088,-3.4891,-3.4439,-3.3968,-3.3713,-3.3531,-3.2895,-3.2945,-3.3127,-3.3292,-3.3475,-3.358,-3.305,-3.2586,-3.2232,-3.1912,-3.1714,-3.1548,-3.1432,-3.1317,-3.1184,-3.1383,-3.1967,-3.2216,-3.2034,-3.2437,-3.2569,-3.4899,-3.4899,-3.4899,-3.4899,-3.4899,-3.4899,-3.4899,-3.4899,-3.4899,-3.4899,-3.4899,-3.4899,-3.4899,-3.4899,-3.4899,-3.475,-3.4468,-3.4021,-3.364,-3.3332,-3.263,-3.2315,-3.2232,-3.1532,-3.1201,-3.1135,-3.0721,-3.0489,-3.0489,-3.0489,-3.0489,-3.0489,-3.0489,-3.0489,-3.0489,-3.0489,-3.0489,-3.0489,-3.0489,-3.0489,-3.0489,-3.0489,-3.0224,-2.9781,-2.9748,-2.9748,-2.9748,-2.9748,-2.9748,-2.9748,-2.9748,-2.9864,-3.0059,-3.0092,-3.0208,-3.0456,-3.0489,-3.0489,-3.0539,-3.0936,-3.1201,-3.125,-3.1885,-3.2299,-3.2431,-3.2945,-3.3415,-3.3458,-3.3872,-3.4094,-3.4005,-3.369,-3.3804,-3.4626,-3.493,-3.5138,-3.5598,-3.5842,-3.5994,-3.6259,-3.6451,-3.6673,-3.6751,-3.6911,-3.6851,-3.6527,-3.6156,-3.5793,-3.5453,-3.5102,-3.4767,-3.4584,-3.4485,-3.4419,-3.4227,-3.3829,-3.3796,-3.4144,-3.4336,-3.4369,-3.4094,-3.3547,-3.3176,-3.2878,-3.2613,-3.2249,-3.215,-3.2299,-3.21,-3.2166,-3.2729,-3.2961,-3.2685,-3.3,-3.3183,-3.4899,-3.4899,-3.4899,-3.4899,-3.4899,-3.4899,-3.4899,-3.4899,-3.4899,-3.4899,-3.4899,-3.4899,-3.4899,-3.4899,-3.4899,-3.4899,-3.4849,-3.4369,-3.4154,-3.4087,-3.3392,-3.3066,-3.2928,-3.2299,-3.1813,-3.1515,-3.0853,-3.0489,-3.0489,-3.0489,-3.0489,-3.0489,-3.0489,-3.0489,-3.0489,-3.0489,-3.0489,-3.0489,-3.0489,-3.0489,-3.0522,-3.0737,-3.0853,-3.0853,-3.0853,-3.0721,-3.0506,-3.0489,-3.0489,-3.0489,-3.0489,-3.0489,-3.0489,-3.0489,-3.0605,-3.082,-3.087,-3.0986,-3.1239,-3.1686,-3.1967,-3.1979,-3.2613,-3.3066,-3.3116,-3.3746,-3.4087,-3.427,-3.4551,-3.4899,-3.4816,-3.4435,-3.4469,-3.5134,-3.5333,-3.5476,-3.5727,-3.5963,-3.6262,-3.6609,-3.6811,-3.695,-3.6989,-3.6989,-3.6831,-3.6527,-3.6139,-3.5776,-3.5453,-3.5142,-3.4899,-3.4899,-3.4849,-3.4833,-3.4707,-3.4426,-3.431,-3.4568,-3.4651,-3.4816,-3.4816,-3.4352,-3.4005,-3.3796,-3.3481,-3.3083,-3.2984,-3.3183,-3.3199,-3.3116,-3.3458,-3.3822,-3.364,-3.3508,-3.3723,-3.4899,-3.4899,-3.4899,-3.4899,-3.4899,-3.4899,-3.4899,-3.4899,-3.4899,-3.4899,-3.4899,-3.4899,-3.4899,-3.4899,-3.4899,-3.4899,-3.4883,-3.4816,-3.4783,-3.4717,-3.4104,-3.3806,-3.374,-3.3066,-3.2332,-3.1714,-3.0936,-3.0605,-3.0704,-3.0737,-3.0721,-3.0605,-3.0721,-3.0787,-3.0572,-3.0721,-3.0638,-3.0688,-3.0737,-3.0654,-3.0605,-3.1267,-3.1615,-3.1598,-3.1598,-3.1317,-3.0638,-3.0539,-3.0489,-3.0489,-3.0489,-3.0506,-3.0588,-3.0654,-3.0903,-3.1499,-3.1598,-3.1967,-3.2497,-3.263,-3.2696,-3.2796,-3.3398,-3.3789,-3.3889,-3.4386,-3.4783,-3.4783,-3.4833,-3.4899,-3.4899,-3.4833,-3.4823,-3.4947,-3.5241,-3.5424,-3.5566,-3.6067,-3.6609,-3.6869,-3.695,-3.6989,-3.6989,-3.693,-3.6811,-3.6568,-3.6156,-3.5776,-3.5498,-3.5165,-3.4947,-3.4899,-3.4899,-3.4899,-3.4899,-3.4906,-3.4866,-3.4883,-3.4849,-3.4899,-3.4899,-3.4601,-3.4402,-3.4187,-3.4111,-3.3729,-3.358,-3.3756,-3.4005,-3.4054,-3.4435,-3.4535,-3.4386,-3.4253,-3.4452,-3.4899,-3.4899,-3.4899,-3.4899,-3.4899,-3.4899,-3.4899,-3.4899,-3.4899,-3.4899,-3.4899,-3.4899,-3.4899,-3.4899,-3.4899,-3.4899,-3.4899,-3.4899,-3.4899,-3.4849,-3.4634,-3.4535,-3.4386,-3.3789,-3.3061,-3.2431,-3.2133,-3.2,-3.1967,-3.1984,-3.2,-3.2017,-3.1984,-3.2017,-3.1934,-3.2017,-3.2017,-3.2,-3.2,-3.2017,-3.2017,-3.2232,-3.2365,-3.2348,-3.2348,-3.2216,-3.1984,-3.1035,-3.0522,-3.0539,-3.0489,-3.0721,-3.1217,-3.1752,-3.2122,-3.2315,-3.2348,-3.2415,-3.268,-3.316,-3.3442,-3.3597,-3.4121,-3.4502,-3.4551,-3.4733,-3.4899,-3.4899,-3.4899,-3.4899,-3.4899,-3.4899,-3.4977,-3.5234,-3.5333,-3.5476,-3.5705,-3.6174,-3.6502,-3.665,-3.6851,-3.697,-3.693,-3.6831,-3.6731,-3.671,-3.6135,-3.5594,-3.5638,-3.5241,-3.4923,-3.4899,-3.4899,-3.4899,-3.4899,-3.4899,-3.4899,-3.4899,-3.4899,-3.4899,-3.4899,-3.4883,-3.47,-3.4601,-3.4502,-3.4402,-3.4293,-3.4319,-3.4518,-3.4651,-3.4717,-3.48,-3.4883,-3.4899,-3.4899,-3.4899,-3.4899,-3.4899,-3.4899,-3.4899,-3.4899,-3.4899,-3.4899,-3.4899,-3.4899,-3.4899,-3.4899,-3.4899,-3.4899,-3.4899,-3.4899,-3.4899,-3.4899,-3.4899,-3.4899,-3.4899,-3.4899,-3.48,-3.4137,-3.3591,-3.3133,-3.2834,-3.2702,-3.2685,-3.2685,-3.2685,-3.2685,-3.2685,-3.2669,-3.2685,-3.2685,-3.2685,-3.2685,-3.2669,-3.2685,-3.2752,-3.2984,-3.3116,-3.3116,-3.3133,-3.3116,-3.3033,-3.1951,-3.1321,-3.1317,-3.1321,-3.157,-3.1995,-3.2431,-3.2818,-3.3066,-3.3133,-3.321,-3.3514,-3.3972,-3.4203,-3.4286,-3.4634,-3.4883,-3.4899,-3.4899,-3.4899,-3.4899,-3.4899,-3.4899,-3.4899,-3.4899,-3.5001,-3.5171,-3.5195,-3.5362,-3.5683,-3.6049,-3.6241,-3.6367,-3.6693,-3.6871,-3.6791,-3.6811,-3.6687,-3.669,-3.6237,-3.565,-3.5705,-3.5356,-3.5165,-3.4994,-3.4899,-3.4899,-3.4899,-3.4899,-3.4899,-3.4899,-3.4899,-3.4899,-3.4899,-3.4899,-3.48,-3.48,-3.4733,-3.47,-3.4601,-3.4667,-3.4816,-3.4899,-3.4899,-3.4899,-3.4899,-3.4899,-3.4899,-3.4899,-3.4899,-3.4899,-3.4899,-3.4899,-3.4899,-3.4899,-3.4899,-3.4899,-3.4899,-3.4899,-3.4899,-3.4899,-3.4899,-3.4899,-3.4899,-3.4899,-3.4899,-3.4899,-3.4899,-3.4899,-3.4899,-3.48,-3.427,-3.3955,-3.3796,-3.3282,-3.2967,-3.3061,-3.3066,-3.2818,-3.3017,-3.305,-3.2884,-3.305,-3.2868,-3.3,-3.305,-3.2967,-3.2967,-3.2994,-3.3508,-3.3879,-3.3862,-3.3879,-3.3856,-3.374,-3.3176,-3.2768,-3.2685,-3.258,-3.2685,-3.2768,-3.2785,-3.3299,-3.3829,-3.3856,-3.4154,-3.4667,-3.4733,-3.4783,-3.4783,-3.4833,-3.4899,-3.4899,-3.4899,-3.4899,-3.4899,-3.4899,-3.4899,-3.4899,-3.4899,-3.4923,-3.4923,-3.497,-3.5095,-3.5356,-3.5705,-3.5924,-3.6032,-3.6471,-3.6871,-3.6606,-3.6768,-3.6748,-3.6606,-3.6402,-3.6028,-3.5722,-3.5453,-3.5264,-3.5142,-3.5048,-3.497,-3.497,-3.4899,-3.4899,-3.4899,-3.4899,-3.4899,-3.4899,-3.4899,-3.4899,-3.4899,-3.4899,-3.4899,-3.4899,-3.4899,-3.4899,-3.4899,-3.4899,-3.4899,-3.4899,-3.4899,-3.4899,-3.4899,-3.4899,-3.4899,-3.4899,-3.4899,-3.4899,-3.4899,-3.4899,-3.4899,-3.4899,-3.4899,-3.4899,-3.4899,-3.4899,-3.4899,-3.4899,-3.4899,-3.4899,-3.4899,-3.4899,-3.4899,-3.4899,-3.4883,-3.4717,-3.4584,-3.4542,-3.4326,-3.4319,-3.4319,-3.4203,-3.426,-3.4336,-3.4187,-3.427,-3.4319,-3.4237,-3.4319,-3.4303,-3.4286,-3.427,-3.4286,-3.4435,-3.4601,-3.4601,-3.4584,-3.4584,-3.4601,-3.4435,-3.3763,-3.2834,-3.3226,-3.3514,-3.3564,-3.3938,-3.4303,-3.4468,-3.4584,-3.4674,-3.4833,-3.4899,-3.4899,-3.4899,-3.4899,-3.4899,-3.4899,-3.4899,-3.4899,-3.4899,-3.4899,-3.4923,-3.4923,-3.4947,-3.4923,-3.4899,-3.497,-3.4994,-3.5125,-3.5526,-3.582,-3.5683,-3.643,-3.669,-3.6609,-3.6588,-3.6667,-3.6523,-3.6322,-3.6075,-3.5859,-3.5788,-3.5655,-3.5424,-3.5264,-3.5118,-3.5001,-3.4947,-3.4899,-3.4899,-3.4899,-3.4899,-3.4899,-3.4899,-3.4899,-3.4899,-3.4899,-3.4899,-3.4899,-3.4899,-3.4899,-3.4899,-3.4899,-3.4899,-3.4899,-3.4899,-3.4899,-3.4899,-3.4899,-3.4899,-3.4899,-3.4899,-3.4899,-3.4899,-3.4899,-3.4899,-3.4899,-3.4899,-3.4899,-3.4899,-3.4899,-3.4899,-3.4899,-3.4899,-3.4899,-3.4899,-3.4899,-3.4899,-3.4899,-3.4899,-3.4899,-3.4899,-3.4899,-3.4899,-3.4883,-3.4866,-3.4899,-3.4899,-3.4849,-3.4899,-3.4899,-3.4833,-3.4899,-3.4899,-3.4883,-3.4899,-3.4899,-3.4899,-3.4899,-3.4899,-3.4899,-3.4899,-3.4899,-3.4899,-3.4883,-3.4452,-3.3912,-3.4038,-3.4253,-3.4286,-3.4634,-3.4899,-3.4899,-3.4899,-3.4899,-3.4899,-3.4899,-3.4899,-3.4899,-3.4899,-3.4899,-3.4899,-3.4899,-3.4899,-3.4899,-3.4899,-3.4977,-3.5118,-3.5241,-3.5224,-3.5171,-3.5241,-3.5247,-3.5142,-3.5594,-3.5776,-3.5859,-3.6241,-3.6731,-3.6544,-3.6609,-3.669,-3.669,-3.6591,-3.6388,-3.6182,-3.6156,-3.6006,-3.5677,-3.5424,-3.5241,-3.5078,-3.4977,-3.497,-3.497,-3.4899,-3.4899,-3.4899,-3.4899,-3.4899,-3.4899,-3.4899,-3.4899,-3.4899,-3.4899,-3.4899,-3.4899,-3.4899,-3.4899,-3.4899,-3.4899,-3.4899,-3.4899,-3.4899,-3.4899,-3.4899,-3.4899,-3.4899,-3.4899,-3.4899,-3.4899,-3.4899,-3.4899,-3.4899,-3.4899,-3.4899,-3.4899,-3.4899,-3.4899,-3.4899,-3.4899,-3.4899,-3.4899,-3.4899,-3.4899,-3.4899,-3.4899,-3.4899,-3.4899,-3.4899,-3.4899,-3.4899,-3.4899,-3.4899,-3.4899,-3.4899,-3.4899,-3.4899,-3.4899,-3.4899,-3.4899,-3.4899,-3.4899,-3.4899,-3.4899,-3.4899,-3.4899,-3.4899,-3.4899,-3.4899,-3.484,-3.4866,-3.4899,-3.4833,-3.4866,-3.4899,-3.4899,-3.4899,-3.4899,-3.4899,-3.4899,-3.4899,-3.4899,-3.4899,-3.4899,-3.4899,-3.4923,-3.4947,-3.5001,-3.5024,-3.4977,-3.5285,-3.5706,-3.597,-3.6055,-3.5915,-3.5958,-3.5939,-3.5677,-3.5771,-3.595,-3.5933,-3.6262,-3.6506,-3.6585,-3.6768,-3.6968,-3.6708,-3.6652,-3.6632,-3.6509,-3.6468,-3.6216,-3.581,-3.5566,-3.5362,-3.5195,-3.5031,-3.5048,-3.5041,-3.4947,-3.4899,-3.4899,-3.4899,-3.4899,-3.4899,-3.4899,-3.4899,-3.4899,-3.4899,-3.4899,-3.4899,-3.4899,-3.4899,-3.4899,-3.4899,-3.4899,-3.4899,-3.4899,-3.4899,-3.4899,-3.4899,-3.4899,-3.4923,-3.4923,-3.4923,-3.4947,-3.4923,-3.4923,-3.4899,-3.4923,-3.4923,-3.4899,-3.4923,-3.4923,-3.4899,-3.4899,-3.4899,-3.4899,-3.4923,-3.4923,-3.4899,-3.4899,-3.4899,-3.4899,-3.4899,-3.4899,-3.4899,-3.4899,-3.4899,-3.4899,-3.4899,-3.4899,-3.4899,-3.4899,-3.4899,-3.4899,-3.4899,-3.4899,-3.4899,-3.4899,-3.4899,-3.4899,-3.4899,-3.4899,-3.4899,-3.4899,-3.4899,-3.4899,-3.4899,-3.4899,-3.4899,-3.4899,-3.4899,-3.4899,-3.4899,-3.4899,-3.4899,-3.4899,-3.4947,-3.4923,-3.4947,-3.5148,-3.5264,-3.5356,-3.5543,-3.5988,-3.6627,-3.76,-3.7536,-3.706,-3.7189,-3.7248,-3.6533,-3.6335,-3.6237,-3.6161,-3.6471,-3.6791,-3.6547,-3.6809,-3.6888,-3.6728,-3.6748,-3.6791,-3.6771,-3.6751,-3.6447,-3.6067,-3.5898,-3.5722,-3.5481,-3.5293,-3.5171,-3.5118,-3.5018,-3.4899,-3.4899,-3.4899,-3.4899,-3.4899,-3.4899,-3.4899,-3.4899,-3.4899,-3.4899,-3.4899,-3.4899,-3.4899,-3.4899,-3.4899,-3.4899,-3.4994,-3.5118,-3.4954,-3.4899,-3.4947,-3.5071,-3.5142,-3.5125,-3.5142,-3.5125,-3.5095,-3.4977,-3.4977,-3.5135,-3.4994,-3.497,-3.5071,-3.497,-3.5018,-3.5071,-3.5018,-3.4994,-3.5071,-3.4977,-3.4899,-3.4899,-3.4899,-3.4899,-3.4899,-3.4899,-3.4899,-3.4899,-3.4899,-3.4899,-3.4899,-3.4899,-3.4899,-3.4899,-3.4899,-3.4899,-3.4899,-3.4899,-3.4899,-3.4899,-3.4899,-3.4899,-3.4899,-3.4899,-3.4899,-3.4899,-3.4899,-3.4899,-3.4899,-3.4899,-3.4899,-3.4899,-3.4899,-3.4899,-3.4899,-3.4899,-3.4899,-3.4923,-3.5024,-3.5118,-3.5218,-3.5453,-3.5633,-3.5745,-3.6151,-3.6801,-3.7581,-3.8408,-3.8504,-3.8239,-3.8341,-3.8377,-3.7812,-3.7075,-3.6527,-3.643,-3.6629,-3.6768,-3.6809,-3.7121,-3.7018,-3.6936,-3.6904,-3.6963,-3.6911,-3.6851,-3.6728,-3.6464,-3.6301,-3.6092,-3.5837,-3.5616,-3.5356,-3.5234,-3.5071,-3.497,-3.4899,-3.4899,-3.4899,-3.4899,-3.4899,-3.4899,-3.4899,-3.4899,-3.4899,-3.4899,-3.4899,-3.4899,-3.4899,-3.4899,-3.4899,-3.5188,-3.543,-3.5071,-3.4954,-3.5071,-3.531,-3.5424,-3.5476,-3.5407,-3.5356,-3.5333,-3.5048,-3.5024,-3.5211,-3.5024,-3.5071,-3.5165,-3.5071,-3.5024,-3.5148,-3.5001,-3.5024,-3.5142,-3.5024,-3.4899,-3.4899,-3.4899,-3.4899,-3.4899,-3.4899,-3.4899,-3.4899,-3.4899,-3.4899,-3.4899,-3.4899,-3.4899,-3.4899,-3.4899,-3.4899,-3.4899,-3.4899,-3.4899,-3.4899,-3.4899,-3.4899,-3.4899,-3.4899,-3.4899,-3.4899,-3.4899,-3.4899,-3.4899,-3.4899,-3.4899,-3.4899,-3.4899,-3.4899,-3.4899,-3.4899,-3.4923,-3.4906,-3.5211,-3.548,-3.5621,-3.6038,-3.6361,-3.6774,-3.7291,-3.8045,-3.859,-3.939,-3.9516,-3.9238,-3.9332,-3.9406,-3.9031,-3.7847,-3.7376,-3.7356,-3.7542,-3.763,-3.7589,-3.7725,-3.7426,-3.72,-3.7183,-3.7112,-3.7095,-3.6985,-3.6864,-3.6708,-3.6489,-3.6364,-3.6135,-3.5881,-3.5633,-3.5515,-3.5287,-3.5071,-3.4994,-3.4923,-3.4923,-3.4923,-3.4899,-3.4899,-3.4899,-3.4899,-3.4899,-3.4899,-3.4899,-3.4899,-3.4899,-3.4899,-3.4899,-3.5521,-3.5754,-3.5148,-3.5201,-3.5661,-3.5498,-3.5526,-3.5732,-3.5498,-3.5402,-3.5356,-3.5048,-3.4947,-3.4994,-3.497,-3.497,-3.4994,-3.4947,-3.497,-3.5048,-3.493,-3.4994,-3.5048,-3.4977,-3.4923,-3.4899,-3.4899,-3.4899,-3.4899,-3.4899,-3.4899,-3.4899,-3.4899,-3.4899,-3.4899,-3.4899,-3.4899,-3.4899,-3.4899,-3.4899,-3.4899,-3.4899,-3.4899,-3.4899,-3.4899,-3.4899,-3.4899,-3.4899,-3.4899,-3.4899,-3.4899,-3.4899,-3.4899,-3.4899,-3.4899,-3.4899,-3.4899,-3.4899,-3.4899,-3.4899,-3.4899,-3.4977,-3.5325,-3.5874,-3.6378,-3.6987,-3.7538,-3.8287,-3.9047,-3.9883,-4.0141,-4.0609,-4.0736,-4.0455,-4.0192,-4.0059,-3.9512,-3.9101,-3.8793,-3.8877,-3.8856,-3.8639,-3.8474,-3.8357,-3.8216,-3.8041,-3.7953,-3.7725,-3.7514,-3.7341,-3.7091,-3.6898,-3.667,-3.6547,-3.644,-3.6135,-3.5881,-3.5876,-3.5694,-3.5281,-3.5142,-3.5001,-3.493,-3.4923,-3.4899,-3.4899,-3.4899,-3.4899,-3.4899,-3.4899,-3.4899,-3.4899,-3.4899,-3.4899,-3.4899,-3.5356,-3.5571,-3.5102,-3.5078,-3.5339,-3.5424,-3.5498,-3.5594,-3.5453,-3.5402,-3.5287,-3.5088,-3.5018,-3.5071,-3.497,-3.4899,-3.4923,-3.4923,-3.4994,-3.5078,-3.5001,-3.5001,-3.5095,-3.5001,-3.4923,-3.4899,-3.4899,-3.4923,-3.4899,-3.4899,-3.4899,-3.4899,-3.4899,-3.4899,-3.4899,-3.4899,-3.4899,-3.4899,-3.4899,-3.4899,-3.4899,-3.4899,-3.4899,-3.4899,-3.4899,-3.4899,-3.4899,-3.4899,-3.4899,-3.4899,-3.4899,-3.4899,-3.4899,-3.4899,-3.4899,-3.4899,-3.4899,-3.4916,-3.4899,-3.4939,-3.5143,-3.577,-3.6066,-3.6763,-3.7562,-3.8248,-3.8798,-3.9508,-3.9747,-4.0464,-4.0981,-4.1372,-4.1376,-4.1183,-4.1064,-4.0849,-4.0604,-4.0481,-4.0446,-4.0284,-3.9684,-3.9333,-3.9122,-3.9059,-3.902,-3.8898,-3.874,-3.8444,-3.8076,-3.7812,-3.7567,-3.7434,-3.7295,-3.7157,-3.7016,-3.6693,-3.6405,-3.6336,-3.6132,-3.5728,-3.5318,-3.5157,-3.5013,-3.4923,-3.4899,-3.4899,-3.4899,-3.4899,-3.4899,-3.4899,-3.4899,-3.4899,-3.4899,-3.4899,-3.4899,-3.5195,-3.5476,-3.5071,-3.4994,-3.5125,-3.5327,-3.5453,-3.5476,-3.5447,-3.5447,-3.5453,-3.5211,-3.5195,-3.5362,-3.5264,-3.5125,-3.5102,-3.5125,-3.531,-3.5407,-3.5293,-3.5287,-3.5339,-3.5247,-3.5125,-3.5071,-3.5065,-3.497,-3.4923,-3.4899,-3.4899,-3.4899,-3.4899,-3.4899,-3.4899,-3.4899,-3.4899,-3.4899,-3.4899,-3.4899,-3.4899,-3.4899,-3.4899,-3.4899,-3.4899,-3.4899,-3.4899,-3.4899,-3.4899,-3.4899,-3.4899,-3.4899,-3.4899,-3.4899,-3.4899,-3.4899,-3.4899,-3.4965,-3.5131,-3.5181,-3.5632,-3.6489,-3.6971,-3.7741,-3.8533,-3.9093,-3.9778,-4.0355,-4.0306,-4.0429,-4.1131,-4.1436,-4.148,-4.1569,-4.1534,-4.1569,-4.1516,-4.1516,-4.1674,-4.1271,-4.0481,-4.02,-4.02,-4.0059,-4.0073,-3.9708,-3.9533,-3.9182,-3.8831,-3.855,-3.8339,-3.8193,-3.8041,-3.7909,-3.7707,-3.7379,-3.7127,-3.6949,-3.6678,-3.6299,-3.5756,-3.5326,-3.5195,-3.5114,-3.4899,-3.4899,-3.4899,-3.4916,-3.4899,-3.4899,-3.4899,-3.4899,-3.4899,-3.4899,-3.4899,-3.5543,-3.5793,-3.5171,-3.5224,-3.5666,-3.5498,-3.5588,-3.5776,-3.5526,-3.5571,-3.5776,-3.5498,-3.5498,-3.5683,-3.5754,-3.5754,-3.5732,-3.5688,-3.5705,-3.5732,-3.571,-3.5688,-3.582,-3.582,-3.5526,-3.5362,-3.5333,-3.5165,-3.5048,-3.4977,-3.4923,-3.493,-3.4947,-3.4923,-3.4994,-3.4994,-3.4899,-3.4923,-3.4923,-3.4899,-3.4899,-3.4899,-3.4899,-3.4899,-3.4899,-3.4899,-3.4899,-3.4899,-3.4899,-3.4899,-3.4899,-3.4899,-3.4899,-3.4899,-3.4899,-3.4899,-3.4965,-3.5181,-3.5661,-3.5843,-3.6265,-3.706,-3.7439,-3.7988,-3.8925,-3.9696,-4.03,-4.0839,-4.0576,-4.0606,-4.1065,-4.114,-4.1255,-4.1453,-4.1604,-4.1604,-4.1657,-4.2131,-4.2342,-4.25,-4.178,-4.1604,-4.1569,-4.1358,-4.1148,-4.0691,-4.027,-3.9937,-3.9638,-3.9375,-3.9164,-3.9056,-3.8709,-3.8538,-3.8425,-3.8096,-3.7671,-3.7496,-3.7168,-3.6817,-3.6367,-3.5891,-3.5553,-3.5429,-3.5247,-3.5197,-3.5346,-3.5313,-3.5032,-3.4899,-3.4899,-3.4899,-3.4899,-3.4899,-3.4932,-3.5661,-3.5611,-3.531,-3.5356,-3.5588,-3.5453,-3.5594,-3.582,-3.5754,-3.5754,-3.582,-3.5549,-3.5385,-3.5504,-3.5688,-3.5776,-3.5688,-3.5842,-3.589,-3.5912,-3.5912,-3.589,-3.5868,-3.589,-3.5776,-3.571,-3.5666,-3.5661,-3.5391,-3.5102,-3.4954,-3.5148,-3.5024,-3.5024,-3.5165,-3.5188,-3.5188,-3.5142,-3.5041,-3.4923,-3.4899,-3.4899,-3.4899,-3.4899,-3.4899,-3.4899,-3.4899,-3.4899,-3.4899,-3.4899,-3.4899,-3.4899,-3.4899,-3.4932,-3.5032,-3.5545,-3.5545,-3.5694,-3.5976,-3.639,-3.7087,-3.7786,-3.8262,-3.8826,-3.9715,-4.0041,-4.0507,-4.126,-4.0754,-4.0731,-4.1163,-4.134,-4.1448,-4.156,-4.1604,-4.1604,-4.1762,-4.2377,-4.2723,-4.2956,-4.3149,-4.2973,-4.264,-4.2096,-4.1762,-4.1358,-4.106,-4.0849,-4.0551,-4.0288,-4.0095,-3.9954,-3.9532,-3.9111,-3.9042,-3.8839,-3.8105,-3.7817,-3.7621,-3.7248,-3.6945,-3.6564,-3.6299,-3.6257,-3.634,-3.6241,-3.6025,-3.5578,-3.5197,-3.5032,-3.4899,-3.4998,-3.5065,-3.4998,-3.4998,-3.5754,-3.5521,-3.5521,-3.5476,-3.5424,-3.5476,-3.5549,-3.5638,-3.571,-3.5771,-3.5771,-3.57,-3.5605,-3.5566,-3.5989,-3.6122,-3.5881,-3.6075,-3.6097,-3.6075,-3.6015,-3.6011,-3.5929,-3.589,-3.589,-3.589,-3.5825,-3.5842,-3.5666,-3.543,-3.5218,-3.5498,-3.5339,-3.5339,-3.547,-3.5521,-3.5498,-3.5333,-3.5048,-3.4923,-3.4899,-3.4899,-3.4899,-3.4899,-3.4899,-3.4899,-3.4899,-3.4899,-3.4899,-3.4899,-3.4899,-3.4899,-3.4899,-3.5164,-3.5446,-3.5959,-3.6241,-3.6655,-3.6854,-3.7194,-3.791,-3.8539,-3.8984,-3.9345,-4.035,-4.0271,-4.0271,-4.1255,-4.0802,-4.0866,-4.1232,-4.1408,-4.1453,-4.1515,-4.1604,-4.1604,-4.1797,-4.2587,-4.3202,-4.3447,-4.3728,-4.4132,-4.3658,-4.2851,-4.2342,-4.199,-4.1797,-4.1639,-4.1341,-4.0972,-4.0867,-4.0691,-4.0508,-3.9992,-3.9669,-3.937,-3.87,-3.8244,-3.8042,-3.7794,-3.7552,-3.7368,-3.7152,-3.7218,-3.7268,-3.6953,-3.6555,-3.5943,-3.5379,-3.5396,-3.5396,-3.5297,-3.5263,-3.5247,-3.5396,-3.589,-3.5864,-3.5864,-3.5666,-3.5407,-3.5749,-3.5526,-3.5195,-3.5402,-3.5521,-3.5677,-3.6088,-3.6506,-3.6652,-3.6652,-3.6774,-3.6811,-3.6908,-3.669,-3.6527,-3.6423,-3.6284,-3.6161,-3.6058,-3.5977,-3.5977,-3.5994,-3.5972,-3.5825,-3.5616,-3.5594,-3.5776,-3.5549,-3.5732,-3.5776,-3.5683,-3.5571,-3.5362,-3.5088,-3.4923,-3.4899,-3.4899,-3.4899,-3.4899,-3.4899,-3.4899,-3.4899,-3.4899,-3.4899,-3.4899,-3.5032,-3.5065,-3.5181,-3.5644,-3.6042,-3.6489,-3.7218,-3.7649,-3.7914,-3.8013,-3.8486,-3.902,-3.9335,-3.964,-4.0521,-4.0221,-4.037,-4.0977,-4.0772,-4.0754,-4.0984,-4.1076,-4.1363,-4.1498,-4.1604,-4.1604,-4.2026,-4.3061,-4.3623,-4.3921,-4.4343,-4.4834,-4.4746,-4.3939,-4.2921,-4.25,-4.178,-4.1604,-4.1604,-4.1341,-4.1411,-4.1358,-4.1394,-4.1016,-4.0371,-3.9893,-3.9406,-3.9009,-3.8746,-3.8509,-3.8247,-3.8096,-3.798,-3.7781,-3.7715,-3.74,-3.7218,-3.7036,-3.6738,-3.6174,-3.5926,-3.5926,-3.6025,-3.6141,-3.639,-3.5368,-3.557,-3.6035,-3.5937,-3.5402,-3.5543,-3.5571,-3.5594,-3.5898,-3.6084,-3.6088,-3.6568,-3.6632,-3.6533,-3.6834,-3.6888,-3.6768,-3.6928,-3.6869,-3.6869,-3.6771,-3.6693,-3.6574,-3.6512,-3.6594,-3.6492,-3.6367,-3.628,-3.6241,-3.5881,-3.5798,-3.5798,-3.5594,-3.5476,-3.5481,-3.5638,-3.5543,-3.5385,-3.5095,-3.4923,-3.4899,-3.4899,-3.4899,-3.4899,-3.4899,-3.4899,-3.4899,-3.4899,-3.4899,-3.5015,-3.533,-3.5462,-3.5652,-3.6282,-3.6829,-3.721,-3.798,-3.8404,-3.8801,-3.8877,-3.9156,-3.9492,-3.9729,-3.9969,-4.0628,-4.041,-4.0669,-4.0977,-4.1024,-4.096,-4.1277,-4.1386,-4.1475,-4.156,-4.1604,-4.1604,-4.2131,-4.3131,-4.3763,-4.3939,-4.4887,-4.5705,-4.5442,-4.5062,-4.3974,-4.2951,-4.2219,-4.1604,-4.1604,-4.1604,-4.1604,-4.1604,-4.1604,-4.1277,-4.0659,-4.0368,-4.012,-3.9738,-3.9369,-3.9076,-3.8795,-3.8917,-3.8768,-3.8477,-3.8328,-3.8295,-3.8311,-3.8411,-3.7963,-3.7052,-3.6721,-3.6671,-3.682,-3.7003,-3.7251,-3.4833,-3.5319,-3.5808,-3.5835,-3.5594,-3.5788,-3.5864,-3.595,-3.6301,-3.6502,-3.6523,-3.6728,-3.6652,-3.6471,-3.6713,-3.6891,-3.6791,-3.6871,-3.6891,-3.6831,-3.6771,-3.6774,-3.6696,-3.6615,-3.655,-3.6731,-3.6667,-3.6482,-3.6444,-3.6199,-3.6032,-3.5776,-3.5481,-3.5459,-3.5498,-3.5447,-3.547,-3.5453,-3.5125,-3.4923,-3.4899,-3.4899,-3.4899,-3.4899,-3.4899,-3.4899,-3.4899,-3.4899,-3.4899,-3.5131,-3.5479,-3.5909,-3.6356,-3.6912,-3.7701,-3.8157,-3.8581,-3.8959,-3.9318,-3.9511,-3.9651,-3.9952,-4.0028,-4.0377,-4.0724,-4.0754,-4.0954,-4.1386,-4.1318,-4.1295,-4.1604,-4.1542,-4.152,-4.1604,-4.1604,-4.1657,-4.2113,-4.2903,-4.3465,-4.3939,-4.5062,-4.6091,-4.581,-4.5361,-4.4284,-4.3302,-4.2658,-4.199,-4.1604,-4.1604,-4.1604,-4.1604,-4.1604,-4.1169,-4.0731,-4.0611,-4.0434,-3.9918,-3.959,-3.9432,-3.9289,-3.9352,-3.9342,-3.9017,-3.8984,-3.9232,-3.9166,-3.895,-3.8361,-3.7665,-3.7516,-3.7433,-3.7599,-3.7781,-3.7963,-3.424,-3.5209,-3.4977,-3.5258,-3.5865,-3.6635,-3.6512,-3.5994,-3.6322,-3.6523,-3.6544,-3.6606,-3.6731,-3.6851,-3.695,-3.693,-3.693,-3.6968,-3.6908,-3.671,-3.669,-3.6388,-3.6224,-3.6245,-3.6512,-3.6506,-3.6502,-3.6502,-3.6502,-3.6322,-3.6156,-3.5989,-3.5776,-3.5754,-3.5825,-3.5566,-3.5588,-3.5732,-3.5224,-3.5055,-3.4994,-3.5024,-3.5071,-3.4994,-3.5071,-3.5118,-3.5118,-3.5118,-3.5102,-3.5235,-3.5961,-3.6345,-3.6495,-3.7944,-3.8606,-3.8493,-3.9344,-3.9774,-3.9926,-3.9884,-4.0096,-4.0343,-4.041,-4.0652,-4.0931,-4.1024,-4.1117,-4.156,-4.152,-4.152,-4.1604,-4.1604,-4.1604,-4.1604,-4.1604,-4.1692,-4.2131,-4.2675,-4.3272,-4.3746,-4.5038,-4.6126,-4.5916,-4.5477,-4.4459,-4.3617,-4.3044,-4.2517,-4.2043,-4.1832,-4.192,-4.1797,-4.1775,-4.13,-4.096,-4.0937,-4.07,-4.0171,-3.9849,-3.9713,-3.9547,-3.9484,-3.9432,-3.9325,-3.9315,-3.9315,-3.9315,-3.9265,-3.8752,-3.8295,-3.8245,-3.8228,-3.8377,-3.8477,-3.8593,-3.3228,-3.3794,-3.4231,-3.4829,-3.5542,-3.6038,-3.6122,-3.6011,-3.6322,-3.6609,-3.6791,-3.6829,-3.6869,-3.6987,-3.6989,-3.6989,-3.6989,-3.6989,-3.6871,-3.6831,-3.6791,-3.6791,-3.6615,-3.6553,-3.6655,-3.6731,-3.6667,-3.6523,-3.6502,-3.6364,-3.6118,-3.5929,-3.5998,-3.589,-3.5885,-3.5754,-3.582,-3.5864,-3.5644,-3.5481,-3.527,-3.5391,-3.5413,-3.5218,-3.5362,-3.5459,-3.5453,-3.5407,-3.543,-3.5638,-3.6441,-3.7212,-3.7523,-3.8948,-3.9662,-3.9606,-4.0195,-4.0343,-4.0524,-4.0645,-4.0669,-4.0772,-4.0819,-4.0984,-4.1318,-4.1386,-4.1515,-4.156,-4.1604,-4.1604,-4.1604,-4.1604,-4.1604,-4.1604,-4.1604,-4.1604,-4.1938,-4.257,-4.3149,-4.35,-4.4424,-4.5547,-4.5828,-4.5723,-4.4881,-4.4477,-4.4027,-4.3553,-4.3096,-4.2658,-4.25,-4.2254,-4.2051,-4.1515,-4.1163,-4.114,-4.0937,-4.0434,-4.0179,-4.0062,-3.9901,-3.9651,-3.9484,-3.9379,-3.9342,-3.9315,-3.9315,-3.9299,-3.9216,-3.9,-3.8808,-3.8758,-3.8841,-3.895,-3.9067,-3.2739,-3.322,-3.3742,-3.4405,-3.5114,-3.5641,-3.599,-3.6277,-3.655,-3.6809,-3.6968,-3.697,-3.6989,-3.6989,-3.6989,-3.6989,-3.6989,-3.6989,-3.6989,-3.6989,-3.697,-3.695,-3.695,-3.6989,-3.6911,-3.6911,-3.6811,-3.667,-3.6708,-3.6447,-3.6367,-3.635,-3.6249,-3.635,-3.6266,-3.6139,-3.5972,-3.5994,-3.5946,-3.5666,-3.5571,-3.5571,-3.5621,-3.543,-3.543,-3.5616,-3.5599,-3.5661,-3.5766,-3.6191,-3.7013,-3.8046,-3.8587,-3.9443,-4.0297,-4.04,-4.0587,-4.0707,-4.0907,-4.1157,-4.114,-4.1186,-4.1209,-4.134,-4.1538,-4.156,-4.156,-4.1604,-4.1604,-4.1604,-4.1604,-4.1604,-4.1604,-4.1604,-4.1604,-4.1604,-4.178,-4.2412,-4.2851,-4.3219,-4.3728,-4.4799,-4.5642,-4.5688,-4.5354,-4.522,-4.5062,-4.4518,-4.3992,-4.357,-4.3096,-4.2816,-4.2482,-4.2013,-4.159,-4.1318,-4.1053,-4.0683,-4.0538,-4.0483,-4.0028,-3.9755,-3.959,-3.9432,-3.9379,-3.9325,-3.9315,-3.9282,-3.9232,-3.9232,-3.9199,-3.9216,-3.9315,-3.9315,-3.9315,-3.2827,-3.3424,-3.3441,-3.3915,-3.4687,-3.5384,-3.6157,-3.6933,-3.6987,-3.6987,-3.6989,-3.6989,-3.6989,-3.6989,-3.6989,-3.6989,-3.6989,-3.6989,-3.6989,-3.6989,-3.6989,-3.6989,-3.6989,-3.6989,-3.6989,-3.6989,-3.693,-3.6871,-3.695,-3.6831,-3.6831,-3.6891,-3.6794,-3.6794,-3.6652,-3.6451,-3.6245,-3.6262,-3.6156,-3.5815,-3.5566,-3.5688,-3.5571,-3.5385,-3.5385,-3.543,-3.5391,-3.543,-3.5571,-3.6101,-3.6979,-3.7736,-3.8591,-3.9631,-4.0168,-4.0538,-4.0819,-4.1001,-4.1117,-4.1386,-4.1493,-4.1475,-4.152,-4.1582,-4.1604,-4.1604,-4.1604,-4.1604,-4.1604,-4.1604,-4.1604,-4.1604,-4.1604,-4.1604,-4.1604,-4.1639,-4.1727,-4.2096,-4.25,-4.2921,-4.3377,-4.415,-4.4834,-4.5062,-4.5115,-4.5098,-4.4834,-4.4589,-4.4167,-4.4237,-4.3781,-4.3412,-4.3044,-4.257,-4.2204,-4.196,-4.1695,-4.1481,-4.107,-4.0884,-4.0395,-3.9995,-3.9944,-3.9816,-3.9468,-3.9379,-3.9484,-3.9432,-3.9309,-3.9325,-3.9379,-3.9315,-3.9315,-3.9315,-3.9315,-3.2529,-3.2721,-3.2722,-3.3161,-3.3915,-3.4688,-3.576,-3.6902,-3.6989,-3.6989,-3.6989,-3.6989,-3.6989,-3.6989,-3.6989,-3.6989,-3.6989,-3.6989,-3.6989,-3.6989,-3.6989,-3.6989,-3.6989,-3.6989,-3.6989,-3.6989,-3.6989,-3.6989,-3.697,-3.6989,-3.6989,-3.697,-3.6989,-3.6989,-3.6911,-3.6774,-3.6629,-3.6485,-3.636,-3.6023,-3.5722,-3.5837,-3.5616,-3.5498,-3.5594,-3.5616,-3.5616,-3.5661,-3.5919,-3.665,-3.7763,-3.8585,-3.9047,-4.0102,-4.0843,-4.0884,-4.118,-4.1431,-4.1448,-4.1538,-4.1604,-4.1604,-4.1604,-4.1604,-4.1604,-4.1604,-4.1604,-4.1604,-4.1604,-4.1604,-4.1604,-4.1604,-4.1604,-4.1604,-4.1604,-4.1622,-4.1692,-4.1797,-4.2184,-4.2324,-4.2798,-4.3377,-4.4027,-4.4255,-4.4325,-4.4483,-4.4501,-4.4325,-4.436,-4.4413,-4.4255,-4.3851,-4.3763,-4.336,-4.3096,-4.2875,-4.2589,-4.2293,-4.1834,-4.1308,-4.0765,-4.0458,-4.0385,-4.0187,-3.985,-3.9755,-3.9746,-3.9642,-3.9484,-3.9511,-3.9563,-3.9405,-3.9315,-3.9315,-3.9315,-3.2406,-3.2406,-3.2406,-3.2845,-3.3529,-3.4003,-3.511,-3.6338,-3.6513,-3.6654,-3.6972,-3.6989,-3.6989,-3.6989,-3.6989,-3.6989,-3.6989,-3.6989,-3.6989,-3.6989,-3.6989,-3.6989,-3.6989,-3.6989,-3.6989,-3.6989,-3.6989,-3.6989,-3.6989,-3.6989,-3.6989,-3.6989,-3.6989,-3.6989,-3.697,-3.6911,-3.6788,-3.6667,-3.6523,-3.6301,-3.6135,-3.6075,-3.5989,-3.5749,-3.5946,-3.6011,-3.5968,-3.6011,-3.6526,-3.7217,-3.8278,-3.9106,-3.9664,-4.0706,-4.1232,-4.1295,-4.1426,-4.156,-4.156,-4.1582,-4.1604,-4.1604,-4.1604,-4.1604,-4.1604,-4.1604,-4.1604,-4.1604,-4.1604,-4.1604,-4.1604,-4.1604,-4.1604,-4.1604,-4.1604,-4.1604,-4.1604,-4.1604,-4.1674,-4.1727,-4.2131,-4.2693,-4.3096,-4.3325,-4.3641,-4.3992,-4.4167,-4.4097,-4.429,-4.4606,-4.4413,-4.4062,-4.422,-4.422,-4.3939,-4.3553,-4.3214,-4.284,-4.2449,-4.1899,-4.1255,-4.0819,-4.0652,-4.0458,-4.0212,-4.0154,-4.0096,-3.9807,-3.9642,-3.972,-3.9703,-3.9484,-3.9352,-3.9315,-3.9315,-3.2406,-3.2406,-3.2406,-3.2739,-3.3353,-3.3424,-3.4249,-3.5529,-3.5547,-3.6145,-3.6849,-3.6989,-3.6989,-3.6989,-3.6989,-3.6989,-3.6989,-3.6989,-3.6989,-3.6989,-3.6989,-3.6989,-3.6989,-3.6989,-3.6989,-3.6989,-3.6989,-3.6989,-3.6989,-3.6989,-3.6989,-3.6989,-3.6989,-3.6989,-3.6989,-3.6989,-3.6851,-3.6728,-3.6768,-3.669,-3.6468,-3.655,-3.6615,-3.6058,-3.6135,-3.6259,-3.611,-3.635,-3.6876,-3.762,-3.8486,-3.9412,-4.0323,-4.0989,-4.1343,-4.1515,-4.1515,-4.1582,-4.1604,-4.1604,-4.1604,-4.1604,-4.1604,-4.1604,-4.1604,-4.1604,-4.1604,-4.1604,-4.1604,-4.1604,-4.1604,-4.1604,-4.1604,-4.1604,-4.1604,-4.1604,-4.1604,-4.1604,-4.1622,-4.1639,-4.1762,-4.2254,-4.2447,-4.2693,-4.2745,-4.3325,-4.3465,-4.3412,-4.3728,-4.4167,-4.4273,-4.3992,-4.4202,-4.4325,-4.4325,-4.3957,-4.3658,-4.3325,-4.3044,-4.2323,-4.1549,-4.1142,-4.0866,-4.07,-4.0531,-4.049,-4.041,-4.0154,-3.9995,-4.007,-3.9969,-3.9599,-3.9484,-3.9573,-3.9511,-3.2406,-3.2406,-3.2406,-3.2529,-3.2669,-3.2651,-3.3213,-3.4021,-3.4038,-3.5197,-3.6744,-3.6972,-3.6989,-3.6989,-3.6989,-3.6989,-3.6989,-3.6989,-3.6989,-3.6989,-3.6989,-3.6989,-3.6989,-3.6989,-3.6989,-3.6989,-3.6989,-3.6989,-3.6989,-3.6989,-3.6989,-3.6989,-3.6989,-3.6989,-3.6989,-3.6989,-3.6911,-3.6811,-3.6871,-3.6713,-3.6346,-3.6139,-3.6015,-3.595,-3.6097,-3.6191,-3.6242,-3.6654,-3.7315,-3.8065,-3.9093,-3.999,-4.0839,-4.1059,-4.1146,-4.1186,-4.1453,-4.156,-4.1604,-4.1604,-4.1604,-4.1604,-4.1604,-4.1604,-4.1604,-4.1604,-4.1604,-4.1604,-4.1604,-4.1604,-4.1604,-4.1604,-4.1604,-4.1604,-4.1604,-4.1604,-4.1604,-4.1604,-4.1604,-4.1604,-4.1604,-4.1727,-4.192,-4.1973,-4.199,-4.2043,-4.2078,-4.2148,-4.2464,-4.2903,-4.3535,-4.35,-4.3886,-4.4062,-4.422,-4.436,-4.4062,-4.3986,-4.3763,-4.291,-4.1881,-4.1316,-4.0893,-4.0935,-4.0866,-4.0795,-4.0659,-4.049,-4.0392,-4.0483,-4.036,-4.0062,-4.0195,-4.0343,-4.0104,-3.2406,-3.2406,-3.2406,-3.2406,-3.2406,-3.2406,-3.2809,-3.3424,-3.3494,-3.4599,-3.6285,-3.6496,-3.6636,-3.6919,-3.6989,-3.6989,-3.6989,-3.6989,-3.6989,-3.6989,-3.6989,-3.6989,-3.6989,-3.6989,-3.6989,-3.6989,-3.6989,-3.6989,-3.6989,-3.6989,-3.6989,-3.6989,-3.6989,-3.6989,-3.6989,-3.6989,-3.6989,-3.697,-3.6989,-3.6733,-3.6367,-3.635,-3.6392,-3.6392,-3.6388,-3.6492,-3.6963,-3.743,-3.8157,-3.9096,-4.0205,-4.0685,-4.1201,-4.1323,-4.1318,-4.134,-4.1493,-4.1604,-4.1604,-4.1604,-4.1604,-4.1604,-4.1604,-4.1604,-4.1604,-4.1604,-4.1604,-4.1604,-4.1604,-4.1604,-4.1604,-4.1604,-4.1604,-4.1604,-4.1604,-4.1604,-4.1604,-4.1604,-4.1604,-4.1604,-4.1604,-4.1622,-4.1762,-4.1762,-4.178,-4.178,-4.1639,-4.1639,-4.1815,-4.1955,-4.25,-4.2956,-4.3307,-4.3781,-4.4079,-4.4343,-4.4466,-4.4418,-4.4336,-4.3253,-4.2115,-4.1388,-4.0929,-4.0889,-4.089,-4.096,-4.0825,-4.0707,-4.0849,-4.0984,-4.0825,-4.0594,-4.0814,-4.1024,-4.0879,-3.2406,-3.2406,-3.2406,-3.2406,-3.2406,-3.2406,-3.2757,-3.3284,-3.3371,-3.4108,-3.5354,-3.5599,-3.6162,-3.6761,-3.6989,-3.6989,-3.6989,-3.6989,-3.6989,-3.6989,-3.6989,-3.6989,-3.6989,-3.6989,-3.6989,-3.6989,-3.6989,-3.6989,-3.6989,-3.6989,-3.6989,-3.6989,-3.6989,-3.6989,-3.6989,-3.6989,-3.6989,-3.6989,-3.6989,-3.6989,-3.697,-3.6989,-3.693,-3.695,-3.706,-3.7391,-3.7848,-3.8441,-3.9129,-4.0038,-4.0959,-4.1288,-4.1468,-4.1515,-4.1538,-4.156,-4.1538,-4.1604,-4.1604,-4.1604,-4.1604,-4.1604,-4.1604,-4.1604,-4.1604,-4.1604,-4.1604,-4.1604,-4.1604,-4.1604,-4.1604,-4.1604,-4.1604,-4.1604,-4.1604,-4.1604,-4.1604,-4.1604,-4.1604,-4.1604,-4.1604,-4.1604,-4.1604,-4.1604,-4.1604,-4.1604,-4.1604,-4.1604,-4.1639,-4.171,-4.2008,-4.2342,-4.2622,-4.3131,-4.3676,-4.3939,-4.4115,-4.4442,-4.4165,-4.3242,-4.2318,-4.1473,-4.0901,-4.0741,-4.0795,-4.0937,-4.0984,-4.0873,-4.11,-4.1351,-4.1237,-4.1105,-4.1455,-4.163,-4.163,-3.2406,-3.2406,-3.2406,-3.2406,-3.2406,-3.2406,-3.2476,-3.2599,-3.2634,-3.3143,-3.402,-3.4793,-3.5637,-3.6989,-3.6989,-3.6989,-3.6989,-3.6989,-3.6989,-3.6989,-3.6989,-3.6989,-3.6989,-3.6989,-3.6989,-3.6989,-3.6989,-3.6989,-3.6989,-3.6989,-3.6989,-3.6989,-3.6989,-3.6989,-3.6989,-3.6989,-3.6989,-3.6989,-3.6989,-3.6989,-3.6989,-3.6989,-3.6989,-3.6989,-3.7007,-3.7461,-3.8023,-3.8722,-3.955,-4.0414,-4.1148,-4.1499,-4.1604,-4.1604,-4.1604,-4.1604,-4.1604,-4.1604,-4.1604,-4.1604,-4.1604,-4.1604,-4.1604,-4.1604,-4.1604,-4.1604,-4.1604,-4.1604,-4.1604,-4.1604,-4.1604,-4.1604,-4.1604,-4.1604,-4.1604,-4.1604,-4.1604,-4.1604,-4.1604,-4.1604,-4.1604,-4.1604,-4.1604,-4.1604,-4.1604,-4.1604,-4.1604,-4.1604,-4.1604,-4.1604,-4.1604,-4.1815,-4.2078,-4.2394,-4.2886,-4.3149,-4.3389,-4.3857,-4.4095,-4.3392,-4.2492,-4.1425,-4.0944,-4.0721,-4.0795,-4.0984,-4.0984,-4.0913,-4.1283,-4.1485,-4.1542,-4.1631,-4.1963,-4.2071,-4.1906]},{"header":{"parameterUnit":"m.s-1","parameterCategory":1,"la1":31.0,"la2":29.5877,"lo1":-88.7671,"lo2":-86.6584,"dy":0.0162,"dx":0.0185,"nx":115,"ny":88,"refTime":"2025-11-04T12:00:00:Z","depth":0,"parameterNumber":3,"parameterNumberName":"V-component_of_WINDS"},"data":[0.0,0.0,0.0,0.0,0.0,0.0,0.0,0.0,0.0,0.0,0.0,0.0,0.0,0.0,0.0,0.0,0.0,0.0,0.0,0.0,0.0,0.0,0.0,0.0,0.0,0.0,0.0,0.0,0.0,0.0,0.0,0.0,0.0,0.0,0.0,0.0,0.0,0.0,0.0,0.0,0.0,0.0,0.0,0.0,0.0,0.0,0.0,0.0,0.0,0.0,0.0,0.0,0.0,0.0,0.0,0.0,0.0,0.0,0.0,0.0,0.0,0.0,0.0,0.0,0.0,0.0,0.0,0.0,0.0,0.0,0.0,0.0,0.0,0.0,0.0,0.0,0.0,0.0,0.0,0.0,0.0,0.0,0.0,0.0,0.0,0.0,0.0,0.0,0.0,0.0,0.0,0.0,0.0,0.0,0.0,0.0,0.0,0.0,0.0,0.0,0.0,0.0,0.0,0.0,0.0,0.0,0.0,0.0,0.0,0.0,0.0,0.0,0.0,0.0,0.0,0.0,0.0,0.0,0.0,0.0,0.0,0.0,0.0,0.0,0.0,0.0,0.0,0.0,0.0,0.0,0.0,0.0,0.0,0.0,0.0,0.0,0.0,0.0,0.0,0.0,0.0,0.0,0.0,0.0,0.0,0.0,0.0,0.0,0.0,0.0,0.0,0.0,0.0,0.0,0.0,0.0,0.0,0.0,0.0,0.0,0.0,0.0,0.0,0.0,0.0,0.0,0.0,0.0,0.0,0.0,0.0,0.0,0.0,0.0,0.0,0.0,0.0,0.0,0.0,0.0,0.0,0.0,0.0,0.0,0.0,0.0,0.0,0.0,0.0,0.0,0.0,0.0,0.0,0.0,0.0,0.0,0.0,0.0,0.0,0.0,0.0,0.0,0.0,0.0,0.0,0.0,0.0,0.0,0.0,0.0,0.0,0.0,0.0,0.0,0.0,0.0,0.0,0.0,0.0,0.0,0.0,0.0,0.0,0.0,0.0,0.0,0.0,0.0,0.0,0.0,0.0,0.0,0.0,0.0,0.0,0.0,0.0,0.0,0.0,0.0,0.0,0.0,0.0,0.0,0.0,0.0,0.0,0.0,0.0,0.0,0.0,0.0,0.0,0.0,0.0,0.0,0.0,0.0,0.0,0.0,0.0,0.0,0.0,0.0,0.0,0.0,0.0,0.0,0.0,0.0,0.0,0.0,0.0,0.0,0.0,0.0,0.0,0.0,0.0,0.0,0.0,0.0,0.0,0.0,0.0,0.0,0.0,0.0,0.0,0.0,0.0,0.0,0.0,0.0,0.0,0.0,0.0,0.0,0.0,0.0,0.0,0.0,0.0,0.0,0.0,0.0,0.0,0.0,0.0,0.0,0.0,0.0,0.0,0.0,0.0,0.0,0.0,0.0,0.0,0.0,0.0,0.0,0.0,0.0,0.0,0.0,0.0,0.0,0.0,0.0,0.0,0.0,0.0,0.0,0.0,0.0,0.0,0.0,0.0,0.0,0.0,0.0,0.0,0.0,0.0,0.0,0.0,0.0,0.0,0.0,0.0,0.0,0.0,0.0,0.0,0.0,0.0,0.0,0.0,0.0,0.0,0.0,0.0,0.0,0.0,0.0,0.0,0.0,0.0,0.0,0.0,0.0,0.0,0.0,0.0,0.0,0.0,0.0,0.0,0.0,0.0,0.0,0.0,0.0,0.0,0.0,0.0,0.0,0.0,0.0,0.0,0.0,0.0,0.0,0.0,0.0,0.0,0.0,0.0,0.0,0.0,0.0,0.0,0.0,0.0,0.0,0.0,0.0,0.0,0.0,0.0,0.0,0.0,0.0,0.0,0.0,0.0,0.0,0.0,0.0,0.0,0.0,0.0,0.0,0.0,0.0,0.0,0.0,0.0,0.0,0.0,0.0,0.0,0.0,0.0,0.0,0.0,0.0,0.0,0.0,0.0,0.0,0.0,0.0,0.0,0.0,0.0,0.0,0.0,0.0,0.0,0.0,0.0,0.0,0.0,0.0,0.0,0.0,0.0,0.0,0.0,0.0,0.0,0.0,0.0,0.0,0.0,0.0,0.0,0.0,0.0,0.0,0.0,0.0,0.0,0.0,0.0,0.0,0.0,0.0,0.0,0.0,0.0,0.0,0.0,0.0,0.0,0.0,0.0,0.0,0.0,0.0,0.0,0.0,0.0,0.0,0.0,0.0,0.0,0.0,0.0,0.0,0.0,0.0,0.0,0.0,0.0,0.0,0.0,0.0,0.0,0.0,0.0,0.0,0.0,0.0,0.0,0.0,0.0,0.0,0.0,0.0,0.0,0.0,0.0,0.0,0.0,0.0,0.0,0.0,0.0,0.0,0.0,0.0,0.0,0.0,0.0,0.0,0.0,0.0,0.0,0.0,0.0,0.0,0.0,0.0,0.0,0.0,0.0,0.0,0.0,0.0,0.0,0.0,0.0,0.0,0.0,0.0,0.0,0.0,0.0,0.0,0.0,0.0,0.0,0.0,0.0,0.0,0.0,0.0,0.0,0.0,0.0,0.0,0.0,0.0,0.0,0.0,0.0,0.0,0.0,0.0,0.0,0.0,0.0,0.0,0.0,0.0,0.0,0.0,0.0,0.0,0.0,0.0,0.0,0.0,0.0,0.0,0.0,0.0,0.0,0.0,0.0,0.0,0.0,0.0,0.0,0.0,0.0,0.0,0.0,0.0,0.0,0.0,0.0,0.0,0.0,0.0,0.0,0.0,0.0,0.0,0.0,0.0,0.0,0.0,0.0,0.0,0.0,0.0,0.0,0.0,0.0,0.0,0.0,0.0,0.0,0.0,0.0,0.0,0.0,0.0,0.0,0.0,0.0,0.0,0.0,0.0,0.0,0.0,0.0,0.0,0.0,0.0,0.0,0.0,0.0,0.0,0.0,0.0,0.0,0.0,0.0,0.0,0.0,0.0,0.0,0.0,0.0,0.0,0.0,0.0,0.0,0.0,0.0,0.0,0.0,0.0,0.0,0.0,0.0,0.0,0.0,0.0,0.0,0.0,0.0,0.0,0.0,0.0,0.0,0.0,0.0,0.0,0.0,0.0,0.0,0.0,0.0,0.0,0.0,0.0,0.0,0.0,0.0,0.0,0.0,0.0,0.0,0.0,0.0,0.0,0.0,0.0,0.0,0.0,0.0,0.0,0.0,0.0,0.0,0.0,0.0,0.0,0.0,0.0,0.0,0.0,0.0,0.0,0.0,0.0,0.0,0.0,0.0,0.0,0.0,0.0,0.0,0.0,0.0,0.0,0.0,0.0,0.0,0.0,0.0,0.0,0.0,0.0,0.0,0.0,0.0,0.0,0.0,0.0,0.0,0.0,0.0,0.0,0.0,0.0,0.0,0.0,0.0,0.0,0.0,0.0,0.0,0.0,0.0,0.0,0.0,0.0,0.0,0.0,0.0,0.0,0.0,0.0,0.0,0.0,0.0,0.0,0.0,0.0,0.0,0.0,0.0,0.0,0.0,0.0,0.0,0.0,0.0,0.0,0.0,0.0,0.0,0.0,0.0,0.0,0.0,0.0,0.0,0.0,0.0,0.0,0.0,0.0,0.0,0.0,0.0,0.0,0.0,0.0,0.0,0.0,0.0,0.0,0.0,0.0,0.0,0.0,0.0,0.0,0.0,0.0,0.0,0.0,0.0,0.0,0.0,0.0,0.0,0.0,0.0,0.0,0.0,0.0,0.0,0.0,0.0,0.0,0.0,0.0,0.0,0.0,0.0,0.0,0.0,0.0,0.0,0.0,0.0,0.0,0.0,0.0,0.0,0.0,0.0,0.0,0.0,0.0,0.0,0.0,0.0,0.0,0.0,0.0,0.0,0.0,0.0,0.0,0.0,0.0,0.0,0.0,0.0,0.0,0.0,0.0,0.0,0.0,0.0,0.0,0.0,0.0,0.0,0.0,0.0,0.0,0.0,0.0,0.0,0.0,0.0,0.0,0.0,0.0,0.0,0.0,0.0,0.0,0.0,0.0,0.0,0.0,0.0,0.0,0.0,0.0,0.0,0.0,0.0,0.0,0.0,0.0,0.0,0.0,0.0,0.0,0.0,0.0,0.0,0.0,0.0,0.0,0.0,0.0,0.0,0.0,0.0,0.0,0.0,0.0,0.0,0.0,0.0,0.0,0.0,0.0,0.0,0.0,0.0,0.0,0.0,0.0,0.0,0.0,0.0,0.0,0.0,0.0,0.0,0.0,0.0,0.0,0.0,0.0,0.0,0.0,0.0,0.0,0.0,0.0,-0.7806,0.0,0.0,0.0,0.0,0.0,0.0,0.0,0.0,0.0,0.0,0.0,0.0,0.0,0.0,0.0,0.0,0.0,0.0,0.0,0.0,0.0,0.0,0.0,0.0,0.0,0.0,0.0,0.0,0.0,0.0,0.0,0.0,0.0,0.0,0.0,0.0,0.0,0.0,0.0,0.0,0.0,0.0,0.0,0.0,0.0,0.0,0.0,0.0,0.0,0.0,0.0,0.0,0.0,0.0,0.0,0.0,0.0,0.0,0.0,0.0,0.0,0.0,0.0,0.0,0.0,0.0,0.0,0.0,0.0,0.0,0.0,0.0,0.0,0.0,0.0,0.0,0.0,0.0,0.0,0.0,0.0,0.0,0.0,0.0,0.0,0.0,0.0,0.0,0.0,0.0,0.0,0.0,0.0,0.0,0.0,0.0,0.0,0.0,0.0,0.0,0.0,0.0,0.0,0.0,0.0,0.0,0.0,0.0,0.0,0.0,-0.8996,-0.8987,-0.8296,-0.7903,-0.7894,0.0,0.0,0.0,0.0,0.0,0.0,0.0,0.0,0.0,0.0,0.0,0.0,0.0,0.0,0.0,0.0,0.0,0.0,0.0,0.0,0.0,0.0,0.0,0.0,0.0,0.0,0.0,0.0,0.0,0.0,0.0,0.0,0.0,0.0,0.0,0.0,0.0,0.0,0.0,0.0,0.0,0.0,0.0,0.0,0.0,0.0,0.0,0.0,0.0,0.0,0.0,0.0,0.0,0.0,0.0,0.0,0.0,0.0,0.0,0.0,0.0,0.0,0.0,0.0,0.0,0.0,0.0,0.0,0.0,0.0,0.0,0.0,0.0,0.0,0.0,0.0,0.0,0.0,0.0,0.0,0.0,0.0,0.0,0.0,0.0,0.0,0.0,0.0,0.0,0.0,0.0,0.0,0.0,0.0,0.0,0.0,0.0,0.0,0.0,0.0,0.0,0.0,0.0,0.0,0.0,0.0,0.0,0.0,0.0,0.0,0.0,0.0,-0.8416,-0.798,-0.7903,0.0,0.0,0.0,0.0,0.0,0.0,0.0,0.0,0.0,0.0,0.0,0.0,0.0,0.0,0.0,0.0,0.0,0.0,0.0,0.0,0.0,0.0,0.0,0.0,0.0,0.0,0.0,0.0,0.0,0.0,0.0,0.0,0.0,0.0,0.0,0.0,0.0,0.0,0.0,0.0,0.0,0.0,0.0,0.0,0.0,0.0,0.0,0.0,0.0,0.0,0.0,0.0,0.0,0.0,0.0,0.0,0.0,0.0,0.0,0.0,0.0,0.0,0.0,0.0,0.0,0.0,0.0,0.0,0.0,0.0,0.0,0.0,0.0,0.0,0.0,0.0,0.0,0.0,0.0,0.0,0.0,0.0,0.0,0.0,0.0,0.0,0.0,0.0,0.0,0.0,0.0,0.0,0.0,0.0,0.0,0.0,0.0,0.0,0.0,0.0,0.0,0.0,0.0,0.0,0.0,0.0,0.0,0.0,0.0,0.0,-0.8502,-0.9504,-0.8832,0.0,-0.7963,0.0,0.0,0.0,0.0,0.0,0.0,0.0,0.0,0.0,0.0,0.0,0.0,0.0,0.0,0.0,0.0,0.0,0.0,0.0,0.0,0.0,0.0,0.0,0.0,0.0,0.0,0.0,0.0,0.0,0.0,0.0,0.0,0.0,0.0,0.0,0.0,0.0,0.0,0.0,0.0,0.0,0.0,0.0,0.0,0.0,0.0,0.0,0.0,0.0,0.0,0.0,0.0,0.0,0.0,0.0,0.0,0.0,0.0,0.0,0.0,0.0,0.0,0.0,0.0,0.0,0.0,0.0,0.0,0.0,0.0,0.0,0.0,0.0,0.0,0.0,0.0,0.0,0.0,0.0,0.0,0.0,0.0,0.0,0.0,0.0,0.0,0.0,0.0,0.0,0.0,0.0,0.0,0.0,0.0,0.0,0.0,0.0,0.0,0.0,0.0,0.0,0.0,0.0,0.0,0.0,0.0,0.0,0.0,0.0,0.0,-0.8765,-0.9226,-0.8753,-0.8308,0.0,0.0,0.0,0.0,0.0,0.0,0.0,0.0,0.0,0.0,0.0,0.0,0.0,0.0,0.0,0.0,0.0,0.0,0.0,0.0,0.0,0.0,0.0,0.0,0.0,0.0,0.0,0.0,0.0,0.0,0.0,0.0,0.0,0.0,0.0,0.0,0.0,0.0,0.0,0.0,0.0,0.0,0.0,0.0,0.0,0.0,0.0,0.0,0.0,0.0,0.0,0.0,0.0,0.0,0.0,0.0,0.0,0.0,0.0,0.0,0.0,0.0,0.0,0.0,0.0,0.0,0.0,0.0,0.0,0.0,0.0,0.0,0.0,0.0,0.0,0.0,0.0,0.0,0.0,0.0,0.0,0.0,0.0,0.0,0.0,0.0,0.0,0.0,0.0,0.0,0.0,0.0,0.0,0.0,0.0,0.0,0.0,0.0,0.0,0.0,0.0,0.0,0.0,0.0,0.0,0.0,0.0,0.0,0.0,0.0,-0.8637,-0.8791,-0.8978,-0.877,-0.8401,-0.792,0.0,0.0,0.0,0.0,0.0,0.0,0.0,0.0,0.0,0.0,0.0,0.0,0.0,0.0,0.0,0.0,0.0,0.0,0.0,0.0,0.0,0.0,0.0,0.0,0.0,0.0,0.0,0.0,0.0,0.0,0.0,0.0,0.0,0.0,0.0,0.0,0.0,0.0,0.0,0.0,0.0,0.0,0.0,0.0,0.0,0.0,0.0,0.0,0.0,0.0,0.0,0.0,0.0,0.0,0.0,0.0,0.0,0.0,0.0,0.0,0.0,0.0,0.0,0.0,0.0,0.0,0.0,0.0,0.0,0.0,0.0,0.0,0.0,0.0,0.0,0.0,0.0,0.0,0.0,0.0,0.0,0.0,0.0,0.0,0.0,0.0,0.0,0.0,0.0,0.0,0.0,0.0,0.0,0.0,0.0,0.0,0.0,0.0,0.0,0.0,0.0,0.0,0.0,0.0,0.0,0.0,0.0,0.0,-0.9833,-0.8648,-0.8296,-0.8987,-0.8978,-0.8628,0.0,0.0,0.0,0.0,0.0,0.0,0.0,0.0,0.0,0.0,0.0,0.0,0.0,0.0,0.0,0.0,0.0,0.0,0.0,0.0,0.0,0.0,0.0,0.0,0.0,0.0,0.0,0.0,0.0,0.0,0.0,0.0,0.0,0.0,0.0,0.0,0.0,0.0,0.0,0.0,0.0,0.0,0.0,0.0,0.0,0.0,0.0,0.0,0.0,0.0,0.0,0.0,0.0,0.0,0.0,0.0,0.0,0.0,0.0,0.0,0.0,0.0,0.0,0.0,0.0,0.0,0.0,0.0,0.0,0.0,0.0,0.0,0.0,0.0,0.0,0.0,0.0,0.0,0.0,0.0,0.0,0.0,0.0,0.0,0.0,0.0,0.0,0.0,0.0,0.0,0.0,0.0,0.0,0.0,0.0,0.0,0.0,0.0,0.0,0.0,0.0,0.0,0.0,0.0,0.0,0.0,0.0,0.0,0.0,-0.7937,-0.768,-0.8218,-0.9602,-0.8543,-0.8023,0.0,0.0,0.0,0.0,0.0,0.0,0.0,0.0,0.0,0.0,0.0,0.0,0.0,0.0,0.0,0.0,0.0,0.0,0.0,0.0,0.0,0.0,0.0,0.0,0.0,0.0,0.0,0.0,0.0,0.0,0.0,0.0,0.0,0.0,0.0,0.0,0.0,0.0,0.0,0.0,0.0,0.0,0.0,0.0,0.0,0.0,0.0,0.0,0.0,0.0,0.0,0.0,0.0,0.0,0.0,0.0,0.0,0.0,0.0,0.0,0.0,0.0,0.0,0.0,0.0,0.0,0.0,0.0,0.0,0.0,0.0,0.0,0.0,0.0,0.0,0.0,0.0,0.0,0.0,0.0,0.0,0.0,0.0,0.0,0.0,0.0,0.0,0.0,0.0,0.0,0.0,0.0,0.0,0.0,0.0,0.0,0.0,0.0,0.0,0.0,0.0,0.0,0.0,0.0,0.0,0.0,0.0,0.0,0.0,-0.7492,0.0,-0.8705,-0.9645,-0.8517,-0.7843,0.0,0.0,0.0,0.0,0.0,0.0,0.0,0.0,0.0,0.0,0.0,0.0,0.0,0.0,0.0,0.0,0.0,0.0,0.0,0.0,0.0,0.0,0.0,0.0,0.0,0.0,0.0,0.0,0.0,0.0,0.0,0.0,0.0,0.0,0.0,0.0,0.0,0.0,0.0,0.0,0.0,0.0,0.0,0.0,0.0,0.0,0.0,0.0,0.0,0.0,0.0,0.0,0.0,0.0,0.0,0.0,0.0,0.0,0.0,0.0,0.0,0.0,0.0,0.0,0.0,0.0,0.0,0.0,0.0,0.0,0.0,0.0,0.0,0.0,0.0,0.0,0.0,0.0,0.0,0.0,0.0,0.0,0.0,0.0,0.0,0.0,0.0,0.0,0.0,0.0,0.0,0.0,0.0,0.0,0.0,0.0,0.0,0.0,0.0,0.0,0.0,0.0,0.0,0.0,0.0,0.0,0.0,0.0,-0.7534,-0.891,-0.9606,-0.9662,-0.9055,-0.8953,-0.809,0.0,0.0,0.0,0.0,0.0,0.0,0.0,0.0,0.0,0.0,0.0,0.0,0.0,0.0,0.0,0.0,0.0,0.0,0.0,0.0,0.0,0.0,0.0,0.0,0.0,0.0,0.0,0.0,0.0,0.0,0.0,0.0,0.0,0.0,0.0,0.0,0.0,0.0,0.0,0.0,0.0,0.0,0.0,0.0,0.0,0.0,0.0,0.0,0.0,0.0,0.0,0.0,0.0,0.0,0.0,0.0,0.0,0.0,0.0,0.0,0.0,0.0,0.0,0.0,0.0,0.0,0.0,0.0,0.0,0.0,0.0,0.0,0.0,0.0,0.0,0.0,0.0,0.0,0.0,0.0,0.0,0.0,0.0,0.0,0.0,0.0,0.0,0.0,0.0,0.0,0.0,0.0,0.0,0.0,0.0,0.0,0.0,0.0,0.0,0.0,0.0,0.0,0.0,0.0,0.0,0.0,0.0,0.0,0.0,-0.8254,-0.8744,-0.9358,-1.0072,-0.8665,-0.7919,0.0,0.0,0.0,0.0,0.0,0.0,0.0,0.0,0.0,0.0,0.0,0.0,0.0,0.0,0.0,0.0,0.0,0.0,0.0,0.0,0.0,0.0,0.0,0.0,0.0,0.0,0.0,0.0,0.0,0.0,0.0,0.0,0.0,0.0,0.0,0.0,0.0,0.0,0.0,0.0,0.0,0.0,0.0,0.0,0.0,0.0,0.0,0.0,0.0,0.0,0.0,0.0,0.0,0.0,0.0,0.0,0.0,0.0,0.0,0.0,0.0,0.0,0.0,0.0,0.0,0.0,0.0,0.0,0.0,0.0,0.0,0.0,0.0,0.0,0.0,0.0,0.0,0.0,0.0,0.0,0.0,0.0,0.0,0.0,0.0,0.0,0.0,0.0,0.0,0.0,0.0,0.0,0.0,0.0,0.0,0.0,0.0,0.0,0.0,0.0,0.0,0.0,0.0,0.0,0.0,0.0,0.0,0.0,0.0,-0.8981,-0.9452,-1.0035,-1.0687,-0.9146,-0.8346,-0.8338,0.0,0.0,0.0,0.0,0.0,0.0,0.0,0.0,0.0,0.0,0.0,0.0,0.0,0.0,0.0,0.0,0.0,0.0,0.0,0.0,0.0,0.0,0.0,0.0,0.0,0.0,0.0,0.0,0.0,0.0,0.0,0.0,0.0,0.0,0.0,0.0,0.0,0.0,0.0,0.0,0.0,0.0,0.0,0.0,0.0,0.0,0.0,0.0,0.0,0.0,0.0,0.0,0.0,0.0,0.0,0.0,0.0,0.0,0.0,0.0,0.0,0.0,0.0,0.0,0.0,0.0,0.0,0.0,0.0,0.0,0.0,0.0,0.0,0.0,0.0,0.0,0.0,0.0,0.0,0.0,0.0,0.0,0.0,0.0,0.0,0.0,0.0,0.0,0.0,0.0,0.0,0.0,0.0,0.0,0.0,0.0,0.0,0.0,0.0,0.0,0.0,0.0,0.0,0.0,0.0,0.0,0.0,0.0,-1.079,-1.1473,-1.149,-1.0832,-1.0314,-0.9269,0.0,0.0,0.0,0.0,0.0,0.0,0.0,0.0,0.0,0.0,0.0,0.0,0.0,0.0,0.0,0.0,0.0,0.0,0.0,0.0,0.0,0.0,0.0,0.0,0.0,0.0,0.0,0.0,0.0,0.0,0.0,0.0,0.0,0.0,0.0,0.0,0.0,0.0,0.0,0.0,0.0,0.0,0.0,0.0,0.0,0.0,0.0,0.0,0.0,0.0,0.0,0.0,0.0,0.0,0.0,0.0,0.0,0.0,0.0,0.0,0.0,0.0,0.0,0.0,0.0,0.0,0.0,0.0,0.0,0.0,0.0,0.0,0.0,0.0,0.0,0.0,0.0,0.0,0.0,0.0,0.0,0.0,0.0,0.0,0.0,0.0,0.0,0.0,0.0,0.0,0.0,0.0,0.0,0.0,0.0,0.0,0.0,0.0,0.0,0.0,0.0,0.0,0.0,0.0,0.0,0.0,0.0,0.0,0.0,-1.1901,-1.2141,-1.2149,-1.1935,-1.0747,-0.9764,0.0,0.0,0.0,0.0,0.0,0.0,0.0,0.0,0.0,0.0,0.0,0.0,0.0,0.0,0.0,0.0,0.0,0.0,0.0,0.0,0.0,0.0,0.0,0.0,0.0,0.0,0.0,0.0,0.0,0.0,0.0,0.0,0.0,0.0,0.0,0.0,0.0,0.0,0.0,0.0,0.0,0.0,0.0,0.0,0.0,0.0,0.0,0.0,0.0,0.0,0.0,0.0,0.0,0.0,0.0,0.0,0.0,0.0,0.0,0.0,0.0,0.0,0.0,0.0,0.0,0.0,0.0,0.0,0.0,0.0,0.0,0.0,0.0,0.0,0.0,0.0,0.0,0.0,0.0,0.0,0.0,0.0,0.0,0.0,0.0,0.0,0.0,0.0,0.0,0.0,0.0,0.0,0.0,0.0,0.0,0.0,0.0,0.0,0.0,0.0,0.0,0.0,0.0,0.0,0.0,0.0,0.0,0.0,-1.119,-1.2363,-1.2552,-1.2666,-1.2637,-1.1447,-1.0484,0.0,0.0,0.0,0.0,0.0,0.0,0.0,0.0,0.0,0.0,0.0,0.0,0.0,0.0,0.0,0.0,0.0,0.0,0.0,0.0,0.0,0.0,0.0,0.0,0.0,0.0,0.0,0.0,0.0,0.0,0.0,0.0,0.0,0.0,0.0,0.0,0.0,0.0,0.0,0.0,0.0,0.0,0.0,0.0,0.0,0.0,0.0,0.0,0.0,0.0,0.0,0.0,0.0,0.0,0.0,0.0,0.0,0.0,0.0,0.0,0.0,0.0,0.0,0.0,0.0,0.0,0.0,0.0,0.0,0.0,0.0,0.0,0.0,0.0,0.0,0.0,0.0,0.0,0.0,0.0,0.0,0.0,0.0,0.0,0.0,0.0,0.0,0.0,0.0,0.0,0.0,0.0,0.0,0.0,0.0,0.0,0.0,0.0,0.0,0.0,0.0,0.0,0.0,0.0,0.0,0.0,0.0,0.0,-1.1696,-1.244,-1.2777,-1.2983,-1.3035,-1.2233,-1.1251,0.0,0.0,0.0,0.0,0.0,0.0,0.0,0.0,0.0,0.0,0.0,0.0,0.0,0.0,0.0,0.0,0.0,0.0,0.0,0.0,0.0,0.0,0.0,0.0,0.0,0.0,0.0,0.0,0.0,0.0,0.0,0.0,0.0,0.0,0.0,0.0,0.0,0.0,0.0,0.0,0.0,0.0,0.0,0.0,0.0,0.0,0.0,0.0,0.0,0.0,0.0,0.0,0.0,0.0,0.0,0.0,0.0,0.0,0.0,0.0,0.0,0.0,0.0,0.0,0.0,0.0,0.0,0.0,0.0,0.0,0.0,0.0,0.0,0.0,0.0,0.0,0.0,0.0,0.0,0.0,0.0,0.0,0.0,0.0,0.0,0.0,0.0,0.0,0.0,0.0,0.0,0.0,0.0,0.0,0.0,0.0,0.0,0.0,0.0,0.0,0.0,0.0,0.0,0.0,0.0,0.0,0.0,0.0,-1.2089,-1.2817,-1.2657,-1.28,-1.3374,-1.2361,-1.126,0.0,0.0,0.0,0.0,0.0,0.0,0.0,0.0,0.0,0.0,0.0,0.0,0.0,0.0,0.0,0.0,0.0,0.0,0.0,0.0,0.0,0.0,0.0,0.0,0.0,0.0,0.0,0.0,0.0,0.0,0.0,0.0,0.0,0.0,0.0,0.0,0.0,0.0,0.0,0.0,0.0,0.0,0.0,0.0,0.0,0.0,0.0,0.0,-0.8285,0.0,0.0,0.0,0.0,0.0,0.0,0.0,0.0,0.0,0.0,0.0,0.0,0.0,0.0,0.0,0.0,0.0,0.0,0.0,0.0,0.0,0.0,0.0,0.0,0.0,0.0,0.0,0.0,0.0,0.0,0.0,0.0,0.0,0.0,0.0,0.0,0.0,0.0,0.0,0.0,0.0,0.0,0.0,0.0,0.0,0.0,0.0,0.0,0.0,0.0,0.0,0.0,0.0,0.0,0.0,0.0,0.0,0.0,0.0,-1.1938,-1.2674,-1.2317,-1.2406,-1.2928,-1.2216,-1.1447,0.0,0.0,0.0,0.0,0.0,0.0,0.0,0.0,0.0,0.0,0.0,0.0,0.0,0.0,0.0,0.0,0.0,0.0,0.0,0.0,0.0,0.0,0.0,0.0,0.0,0.0,0.0,0.0,0.0,0.0,0.0,0.0,0.0,0.0,0.0,0.0,0.0,0.0,0.0,0.0,0.0,0.0,0.0,0.0,0.0,0.0,0.0,0.0,0.0,0.0,0.0,0.0,0.0,0.0,0.0,0.0,0.0,0.0,0.0,0.0,0.0,0.0,0.0,0.0,0.0,0.0,0.0,0.0,0.0,0.0,0.0,0.0,0.0,0.0,0.0,0.0,0.0,0.0,0.0,0.0,0.0,0.0,0.0,0.0,0.0,0.0,0.0,0.0,0.0,0.0,0.0,0.0,0.0,0.0,0.0,0.0,0.0,0.0,0.0,0.0,0.0,0.0,0.0,0.0,0.0,0.0,0.0,-1.1298,-1.1754,-1.263,-1.2149,-1.2075,-1.2538,-1.2032,-1.1576,-1.1215,0.0,0.0,0.0,0.0,0.0,0.0,0.0,0.0,0.0,0.0,0.0,0.0,0.0,0.0,0.0,0.0,0.0,0.0,0.0,0.0,0.0,0.0,0.0,0.0,0.0,0.0,0.0,0.0,0.0,0.0,0.0,0.0,0.0,0.0,0.0,0.0,0.0,0.0,-0.8212,-0.9203,0.0,0.0,0.0,0.0,0.0,0.0,0.0,0.0,-0.9222,0.0,0.0,0.0,0.0,0.0,0.0,0.0,0.0,0.0,0.0,0.0,0.0,0.0,0.0,0.0,0.0,0.0,0.0,0.0,0.0,0.0,0.0,0.0,0.0,0.0,0.0,0.0,0.0,0.0,0.0,0.0,0.0,0.0,0.0,0.0,0.0,0.0,0.0,0.0,0.0,0.0,0.0,0.0,0.0,0.0,0.0,0.0,0.0,0.0,0.0,0.0,0.0,0.0,0.0,0.0,0.0,-1.2786,-1.1932,-1.2288,-1.3912,-1.2758,-1.2476,-1.3177,-1.2139,-1.1315,-1.0797,0.0,0.0,0.0,0.0,0.0,0.0,0.0,0.0,0.0,0.0,0.0,0.0,0.0,0.0,0.0,0.0,0.0,0.0,0.0,0.0,0.0,0.0,0.0,0.0,0.0,0.0,0.0,0.0,0.0,0.0,0.0,0.0,0.0,0.0,0.0,0.0,0.0,0.0,0.0,-1.1244,-1.1844,0.0,0.0,0.0,0.0,0.0,0.0,0.0,0.0,-0.876,0.0,0.0,0.0,0.0,0.0,0.0,0.0,0.0,0.0,0.0,0.0,0.0,0.0,0.0,0.0,0.0,0.0,0.0,0.0,0.0,0.0,0.0,0.0,0.0,0.0,0.0,0.0,0.0,0.0,0.0,0.0,0.0,0.0,0.0,0.0,0.0,0.0,0.0,0.0,0.0,0.0,0.0,0.0,0.0,0.0,0.0,0.0,0.0,0.0,0.0,0.0,0.0,0.0,0.0,0.0,-1.288,-1.2607,-1.2864,-1.3771,-1.3101,-1.2739,-1.2753,-1.1822,-1.1039,0.0,0.0,0.0,0.0,0.0,0.0,0.0,0.0,0.0,0.0,0.0,0.0,0.0,0.0,0.0,0.0,0.0,0.0,0.0,0.0,0.0,0.0,0.0,0.0,0.0,0.0,0.0,0.0,0.0,0.0,0.0,0.0,0.0,0.0,0.0,0.0,0.0,0.0,0.0,0.0,-1.2055,-1.2695,-1.3184,0.0,0.0,0.0,0.0,0.0,0.0,-1.0654,-0.9751,0.0,0.0,0.0,0.0,0.0,0.0,0.0,0.0,0.0,0.0,0.0,0.0,0.0,0.0,0.0,0.0,0.0,0.0,0.0,0.0,0.0,0.0,0.0,0.0,0.0,0.0,0.0,0.0,0.0,0.0,0.0,0.0,0.0,0.0,0.0,0.0,0.0,0.0,0.0,0.0,0.0,0.0,0.0,0.0,0.0,0.0,0.0,0.0,0.0,0.0,0.0,0.0,0.0,0.0,0.0,-1.2972,-1.3086,-1.3318,-1.3695,-1.3433,-1.304,-1.2517,-1.1909,-1.1182,0.0,0.0,0.0,0.0,0.0,0.0,0.0,0.0,0.0,0.0,0.0,0.0,0.0,0.0,0.0,0.0,0.0,0.0,0.0,0.0,0.0,0.0,0.0,0.0,0.0,0.0,0.0,0.0,0.0,0.0,0.0,0.0,0.0,0.0,0.0,0.0,0.0,0.0,0.0,0.0,0.0,-1.3575,-1.3773,-1.3563,0.0,0.0,0.0,0.0,-1.3101,-1.2477,0.0,0.0,0.0,0.0,0.0,0.0,0.0,0.0,0.0,0.0,0.0,0.0,0.0,0.0,0.0,0.0,0.0,0.0,0.0,0.0,0.0,0.0,0.0,0.0,0.0,0.0,0.0,0.0,0.0,0.0,0.0,0.0,0.0,0.0,0.0,0.0,0.0,0.0,0.0,0.0,0.0,0.0,0.0,0.0,0.0,0.0,0.0,0.0,0.0,0.0,0.0,0.0,0.0,0.0,0.0,0.0,-1.3402,-1.3073,-1.3519,-1.4778,-1.4035,-1.3566,-1.3627,-1.3297,-1.2299,0.0,0.0,0.0,0.0,0.0,0.0,0.0,0.0,0.0,0.0,0.0,0.0,0.0,0.0,0.0,0.0,0.0,0.0,0.0,0.0,0.0,0.0,0.0,0.0,0.0,0.0,0.0,0.0,0.0,0.0,0.0,0.0,0.0,0.0,0.0,0.0,0.0,0.0,0.0,0.0,0.0,-1.5043,-1.4628,-1.4194,-1.4283,0.0,0.0,-1.4236,-1.5337,-1.5266,0.0,0.0,0.0,0.0,0.0,0.0,0.0,0.0,0.0,0.0,0.0,0.0,0.0,0.0,0.0,0.0,0.0,0.0,0.0,0.0,0.0,0.0,0.0,0.0,0.0,0.0,0.0,0.0,0.0,0.0,0.0,0.0,0.0,0.0,0.0,0.0,0.0,0.0,0.0,0.0,0.0,0.0,0.0,0.0,0.0,0.0,0.0,0.0,0.0,0.0,0.0,0.0,0.0,0.0,0.0,-1.1398,-1.3322,-1.3861,-1.4338,-1.4846,-1.4593,-1.4305,-1.4025,-1.3228,-1.2103,0.0,0.0,0.0,0.0,0.0,0.0,0.0,0.0,0.0,0.0,0.0,0.0,0.0,0.0,0.0,0.0,0.0,0.0,0.0,0.0,0.0,0.0,0.0,0.0,0.0,0.0,0.0,0.0,0.0,0.0,0.0,0.0,0.0,0.0,0.0,0.0,0.0,0.0,0.0,0.0,0.0,0.0,-1.5181,-1.5106,0.0,0.0,0.0,-1.5564,-1.6789,0.0,0.0,0.0,0.0,0.0,0.0,0.0,0.0,0.0,0.0,0.0,0.0,0.0,0.0,0.0,0.0,0.0,0.0,0.0,0.0,0.0,0.0,0.0,0.0,0.0,0.0,0.0,0.0,0.0,0.0,0.0,0.0,0.0,0.0,0.0,0.0,0.0,0.0,0.0,0.0,0.0,0.0,0.0,0.0,0.0,0.0,0.0,0.0,0.0,0.0,0.0,0.0,0.0,0.0,0.0,0.0,0.0,-1.3283,-1.4482,-1.4994,-1.48,-1.4994,-1.4846,-1.4328,-1.3356,0.0,0.0,0.0,0.0,0.0,0.0,0.0,0.0,0.0,0.0,0.0,0.0,0.0,0.0,0.0,0.0,0.0,0.0,0.0,0.0,0.0,0.0,0.0,0.0,0.0,0.0,0.0,-0.6128,0.0,0.0,0.0,0.0,0.0,0.0,0.0,0.0,0.0,0.0,0.0,0.0,0.0,0.0,-1.5761,-1.5943,-1.635,-1.6956,0.0,0.0,-1.7149,-1.7954,-1.7493,-1.6413,0.0,0.0,0.0,0.0,0.0,0.0,0.0,0.0,0.0,0.0,0.0,0.0,0.0,0.0,0.0,0.0,0.0,0.0,0.0,0.0,0.0,0.0,0.0,0.0,0.0,0.0,0.0,0.0,0.0,0.0,0.0,0.0,0.0,0.0,0.0,0.0,0.0,0.0,0.0,0.0,0.0,0.0,0.0,0.0,0.0,0.0,0.0,0.0,0.0,0.0,0.0,0.0,0.0,0.0,-1.1583,-1.3526,-1.4569,-1.5085,-1.5097,-1.5085,-1.4971,-1.4674,-1.4416,-1.3215,0.0,0.0,0.0,0.0,0.0,0.0,0.0,0.0,0.0,0.0,0.0,0.0,0.0,0.0,0.0,0.0,0.0,0.0,0.0,0.0,0.0,0.0,0.0,0.0,0.0,0.0,0.0,0.0,0.0,0.0,0.0,0.0,0.0,0.0,0.0,0.0,0.0,0.0,0.0,0.0,0.0,-1.7232,-1.7266,-1.8081,-1.8885,0.0,-1.9482,-1.931,-1.8908,-1.9539,-1.8937,-1.5566,0.0,0.0,0.0,0.0,0.0,0.0,0.0,0.0,0.0,0.0,0.0,0.0,0.0,0.0,0.0,0.0,0.0,0.0,0.0,0.0,0.0,0.0,0.0,0.0,0.0,0.0,0.0,0.0,-0.7026,0.0,0.0,0.0,0.0,0.0,0.0,0.0,0.0,0.0,0.0,0.0,0.0,0.0,0.0,0.0,0.0,0.0,0.0,0.0,0.0,0.0,0.0,0.0,0.0,-1.1583,-1.359,-1.4591,-1.5119,-1.5119,-1.5119,-1.504,-1.4949,-1.4176,-1.3063,0.0,0.0,0.0,0.0,0.0,0.0,0.0,0.0,0.0,0.0,0.0,0.0,0.0,0.0,0.0,0.0,0.0,0.0,0.0,0.0,0.0,0.0,0.0,0.0,0.0,0.0,0.0,0.0,-0.7869,-0.8164,-0.833,0.0,0.0,0.0,0.0,0.0,0.0,0.0,0.0,0.0,0.0,-1.7243,-1.8173,-1.8655,0.0,0.0,-1.9884,-1.9838,-2.0258,-1.9562,-1.8421,-1.6798,-1.5257,0.0,0.0,0.0,0.0,0.0,0.0,0.0,0.0,0.0,0.0,0.0,0.0,0.0,0.0,0.0,0.0,0.0,0.0,0.0,0.0,0.0,0.0,0.0,0.0,0.0,0.0,-0.8009,-0.7525,0.0,0.0,0.0,0.0,0.0,0.0,0.0,0.0,0.0,0.0,0.0,0.0,0.0,0.0,0.0,0.0,0.0,0.0,0.0,0.0,0.0,0.0,0.0,0.0,-1.1595,-1.3558,-1.4454,-1.4959,-1.5108,-1.5119,-1.5119,-1.5085,-1.4197,-1.3232,0.0,0.0,0.0,0.0,0.0,0.0,0.0,0.0,0.0,0.0,0.0,0.0,0.0,0.0,0.0,0.0,0.0,0.0,0.0,0.0,0.0,0.0,0.0,0.0,0.0,0.0,0.0,0.0,-0.8372,-0.8527,-0.8413,0.0,0.0,0.0,0.0,0.0,0.0,0.0,0.0,0.0,0.0,-1.7978,-1.9172,-1.947,-1.9826,-2.0527,-2.0217,-2.0074,-2.0454,-1.9424,-1.8203,-1.7143,0.0,0.0,0.0,0.0,0.0,0.0,0.0,0.0,0.0,0.0,0.0,0.0,0.0,0.0,0.0,0.0,0.0,0.0,0.0,0.0,0.0,0.0,0.0,0.0,0.0,0.0,0.0,-0.8885,0.0,0.0,-0.7763,0.0,0.0,0.0,0.0,0.0,0.0,0.0,0.0,0.0,0.0,0.0,0.0,0.0,0.0,0.0,0.0,0.0,0.0,0.0,0.0,0.0,0.0,-1.1618,-1.359,-1.4178,-1.466,-1.5096,-1.5119,-1.5119,-1.5085,-1.4616,-1.3973,-1.3129,0.0,0.0,0.0,0.0,0.0,0.0,0.0,0.0,0.0,0.0,0.0,0.0,0.0,0.0,0.0,0.0,0.0,0.0,0.0,0.0,0.0,0.0,0.0,0.0,0.0,0.0,-0.7511,-0.7483,-0.7356,0.0,0.0,0.0,0.0,0.0,0.0,0.0,0.0,0.0,-1.5866,-1.8058,-1.9803,-2.0308,-2.0822,-2.1109,-2.1155,-2.0741,-2.0067,-1.9183,-1.9344,-1.8816,0.0,0.0,0.0,0.0,0.0,0.0,0.0,0.0,0.0,0.0,0.0,0.0,0.0,0.0,0.0,0.0,0.0,0.0,0.0,0.0,0.0,0.0,0.0,0.0,0.0,0.0,0.0,-1.1391,-1.087,0.0,0.0,0.0,0.0,0.0,0.0,0.0,0.0,0.0,0.0,0.0,-1.4813,-1.5602,0.0,0.0,0.0,0.0,0.0,0.0,0.0,0.0,0.0,0.0,0.0,0.0,-1.244,-1.4063,-1.497,-1.5315,-1.5119,-1.5119,-1.5119,-1.5085,-1.4129,-1.2942,-1.1575,0.0,0.0,0.0,0.0,0.0,0.0,0.0,0.0,0.0,0.0,0.0,0.0,0.0,0.0,0.0,0.0,0.0,0.0,0.0,0.0,0.0,0.0,0.0,0.0,0.0,-0.7862,0.0,0.0,0.0,0.0,0.0,0.0,0.0,0.0,0.0,0.0,-1.4476,-1.5934,-1.8127,-1.9149,-1.9987,-2.0822,-2.1086,-2.1201,0.0,0.0,0.0,0.0,0.0,0.0,0.0,0.0,0.0,0.0,0.0,0.0,0.0,0.0,-1.7898,-1.4974,-1.427,-1.3972,-1.3596,0.0,0.0,0.0,0.0,0.0,0.0,0.0,0.0,0.0,0.0,0.0,0.0,0.0,0.0,-1.3696,-1.3466,-1.285,0.0,0.0,0.0,0.0,0.0,0.0,0.0,0.0,-1.5588,-1.6469,-1.6516,-1.7273,-1.7473,-1.7114,-1.6646,-1.5142,0.0,0.0,0.0,0.0,0.0,0.0,0.0,0.0,-1.3038,-1.435,-1.5039,-1.528,-1.5131,-1.5119,-1.5062,-1.4949,-1.435,-1.3121,-1.1262,-1.1014,-1.0459,0.0,0.0,0.0,0.0,0.0,0.0,0.0,0.0,0.0,0.0,0.0,0.0,0.0,0.0,0.0,0.0,0.0,0.0,0.0,0.0,0.0,0.0,0.0,-0.8367,0.0,0.0,0.0,0.0,0.0,0.0,0.0,0.0,0.0,-1.5326,-1.6153,-1.7565,-1.9913,-2.0205,-2.0534,-2.1319,0.0,0.0,0.0,0.0,0.0,0.0,0.0,-1.9062,-1.9822,-1.9041,-1.8468,-1.8851,-1.9547,-1.9846,-1.9287,0.0,0.0,-1.7105,-1.645,-1.6223,-1.6037,-1.674,-1.7386,-1.739,-1.7992,-1.8567,0.0,0.0,0.0,0.0,-1.6039,0.0,0.0,0.0,-1.6256,-1.6279,0.0,-1.5635,0.0,0.0,0.0,0.0,-1.3199,-1.5452,0.0,0.0,-1.8265,-1.8885,-1.7565,-1.7974,-1.8153,-1.818,-1.8609,-1.8058,-1.6461,-1.3171,-1.1222,0.0,0.0,0.0,0.0,0.0,-1.3452,-1.4441,-1.4488,-1.4672,-1.5074,-1.5085,-1.4926,-1.4639,-1.5096,-1.4278,-1.2256,-1.2966,-1.2163,-0.9345,-0.8849,0.0,0.0,0.0,0.0,0.0,0.0,0.0,0.0,0.0,0.0,0.0,0.0,0.0,0.0,0.0,0.0,0.0,0.0,0.0,0.0,-0.8213,0.0,0.0,0.0,0.0,0.0,0.0,0.0,0.0,0.0,-1.605,-1.619,-1.8189,-2.0109,-2.1075,0.0,0.0,0.0,0.0,-2.1894,-2.1894,-2.153,-2.125,-2.1174,-2.0549,-1.981,-1.9293,0.0,0.0,-1.8837,-1.9487,-1.9803,-1.887,-1.9532,-2.0169,-2.0267,-1.9674,-1.9325,-1.9314,-1.9265,-1.9494,-1.968,-1.9366,-1.9295,-2.024,0.0,0.0,0.0,0.0,-1.8345,-1.8736,-1.9856,-1.9333,-1.8782,-1.823,-1.7943,0.0,0.0,0.0,0.0,0.0,0.0,-1.7381,-1.7863,-1.9114,-1.9459,-1.9046,-1.9528,-1.9361,-1.8673,-1.8827,-1.8495,-1.7641,-1.6325,-1.4649,-1.2766,0.0,0.0,0.0,0.0,-1.4798,-1.5395,-1.5266,-1.506,-1.4823,-1.4685,-1.4199,-1.3375,-1.3294,-1.2974,-1.2345,-1.2459,-1.2118,-1.1202,-1.035,0.0,0.0,0.0,0.0,0.0,0.0,0.0,0.0,0.0,0.0,0.0,0.0,0.0,0.0,0.0,0.0,0.0,0.0,0.0,-0.795,-0.8308,-0.8716,0.0,0.0,0.0,0.0,0.0,0.0,0.0,0.0,0.0,-1.9551,-1.9953,-2.0572,0.0,0.0,-2.2157,-2.1917,-2.1906,-2.1906,-2.1906,-2.128,0.0,-2.0765,-1.9771,-1.9344,-2.0248,-2.0595,-2.0625,-2.0368,-2.03,-2.0222,-1.9905,-2.0093,-2.0331,-2.0367,-1.9936,-1.9515,-1.9318,-1.9454,-1.9792,-2.0147,-2.0316,-2.0542,-2.2559,-2.1399,-2.0607,-2.0561,-2.0897,-2.0166,-2.0465,-2.141,-2.0722,-2.0285,-2.0079,-1.9884,-1.9143,-1.7936,-1.7039,0.0,0.0,0.0,-1.8632,-1.9229,-1.9734,-1.9872,-1.9711,-1.978,-1.9608,-1.9247,-1.9,-1.8736,-1.8409,-1.8127,-1.7039,-1.5142,0.0,-1.4947,-1.528,-1.5532,-1.5762,-1.5889,-1.5745,-1.54,-1.488,-1.4558,-1.4093,-1.3471,-1.3369,-1.3066,-1.2457,-1.2735,-1.2574,-1.195,-1.1185,-1.0339,0.0,0.0,0.0,0.0,0.0,0.0,0.0,0.0,0.0,0.0,0.0,-0.688,-0.6027,0.0,0.0,0.0,-0.7657,-0.8702,-0.9526,-1.0279,0.0,0.0,0.0,0.0,0.0,0.0,0.0,-1.805,-1.8962,-1.9873,-2.1,-2.1078,-2.1287,-2.2122,-2.2145,-2.2075,-2.1906,0.0,-2.1906,-2.1906,-2.1374,-2.103,-2.1196,-2.002,-1.9383,-2.0224,-2.0311,-2.0321,-2.04,-2.0135,-1.9893,-1.9893,-1.9882,-1.9882,-1.9882,-1.964,-1.9488,-1.9599,-1.9958,-2.0355,-2.0607,-2.0717,-2.085,-2.4189,-2.4039,-2.2213,-2.1686,-2.202,-2.1592,-2.1606,-2.1929,-2.1009,-2.1101,-2.1837,-2.1433,-2.1236,-2.1098,-1.97,0.0,-1.9815,-1.9815,-1.9803,-1.9826,-2.0262,-2.0217,-1.9734,-1.9281,-1.9229,-1.9608,-1.9126,-1.8896,-1.8885,-1.8885,-1.8449,-1.7591,-1.7094,-1.6805,-1.6724,-1.6724,-1.6508,-1.6085,-1.6014,-1.5703,-1.5085,-1.4581,-1.4314,-1.4257,-1.4521,-1.3953,-1.2639,-1.3449,-1.3323,-1.194,-1.149,-1.0846,-0.982,0.0,0.0,0.0,0.0,0.0,0.0,0.0,0.0,0.0,0.0,0.0,0.0,0.0,0.0,0.0,-0.9736,0.0,-1.1967,-1.3257,0.0,0.0,0.0,-1.5703,-1.638,-1.689,-1.7834,-1.957,0.0,0.0,-2.1063,-2.1596,-2.2043,-2.2456,-2.1812,-2.1445,-2.1804,-2.1894,-2.1906,-2.1906,-2.1654,-2.1612,-2.1744,-2.0644,-1.9685,-1.9601,-1.9308,-1.9293,-1.9526,-1.9349,-1.9119,-1.916,-1.9108,-1.9129,-1.9108,-1.9129,-1.9367,-2.0089,-2.0537,-2.0793,-2.0729,-2.0488,-2.0243,-2.4189,-2.4154,-2.3672,-2.3546,-2.3615,-2.3086,-2.2937,-2.2983,-2.2421,-2.2065,-2.1894,-2.1801,-2.1537,-2.1178,-2.081,-2.0718,-2.0845,-2.0845,-2.0845,-2.0845,-2.096,-2.071,-2.024,-2.0113,-1.97,-1.9091,-1.8954,-1.8896,-1.8896,-1.8896,-1.9005,-1.9155,-1.9023,-1.8575,-1.779,-1.7756,-1.7699,-1.7573,-1.7013,-1.6137,-1.4903,-1.3954,-1.3423,-1.3338,-1.3242,-1.3115,-1.289,-1.2871,-1.2689,-1.2266,-1.163,-1.1286,-1.1259,-0.9132,0.0,0.0,0.0,0.0,0.0,0.0,0.0,0.0,0.0,-0.9709,-0.7865,0.0,-1.0261,0.0,-1.0779,-1.1901,-1.3293,-1.346,0.0,0.0,-1.5854,-1.6426,-1.84,-1.8197,-1.8507,-2.0187,-2.0542,-2.0743,-2.0941,-2.1517,-2.1681,-2.1213,-2.1819,-2.2147,-2.1642,-2.1751,-2.1906,-2.1805,-2.1107,-2.0588,-2.0852,-2.0248,-1.9544,-1.9262,-1.9164,-1.9131,-1.9208,-1.9142,-1.9098,-1.9098,-1.9098,-1.9098,-1.9098,-1.9098,-1.916,-1.9378,-1.9497,-1.9554,-1.9554,-1.9471,-1.9408,-2.4189,-2.4189,-2.4189,-2.4189,-2.4154,-2.3614,-2.3407,-2.3361,-2.2891,-2.2398,-2.1906,-2.1906,-2.1893,-2.1857,-2.1606,-2.1502,-2.1491,-2.1293,-2.1201,-2.1201,-2.1201,-2.104,-2.0733,-2.0515,-2.0113,-1.9574,-1.9356,-1.9126,-1.8908,-1.8896,-1.8931,-1.8983,-1.8983,-1.8827,-1.8478,-1.8521,-1.8448,-1.8232,-1.7249,-1.6144,-1.4976,-1.4251,-1.3755,-1.3454,-1.3035,-1.2885,-1.2999,-1.283,-1.2638,-1.2429,-1.2022,-1.1713,-1.157,-0.9874,-0.8985,0.0,0.0,0.0,0.0,0.0,0.0,0.0,0.0,0.0,0.0,0.0,-1.1917,-1.2037,-1.2999,-1.4073,-1.5227,-1.5747,-1.6458,-1.7473,-1.7513,-1.7971,-1.9393,-1.8956,-1.9105,-2.0555,-2.0621,-2.0566,-2.0555,-2.1017,-2.1091,-2.0475,-2.1171,-2.1662,-2.1379,-2.1213,-2.1148,-2.1267,-2.0641,-2.0096,-2.015,-1.9726,-1.9308,-1.9131,-1.9098,-1.9098,-1.9098,-1.9098,-1.9098,-1.9098,-1.9098,-1.9098,-1.9098,-1.9098,-1.9098,-1.9098,-1.9098,-1.9098,-1.9098,-1.9098,-1.9098,-2.4189,-2.4189,-2.4189,-2.4189,-2.4166,-2.3694,-2.3499,-2.3476,-2.2995,-2.2455,-2.1906,-2.1906,-2.2134,-2.2477,-2.203,-2.1791,-2.1801,-2.1365,-2.1201,-2.1201,-2.1201,-2.1201,-2.1178,-2.0722,-2.0469,-2.04,-1.9987,-1.9505,-1.9,-1.8919,-1.8701,-1.8318,-1.8183,-1.8411,-1.8903,-1.8984,-1.8818,-1.8494,-1.7153,-1.6035,-1.5225,-1.4949,-1.4613,-1.4128,-1.349,-1.3168,-1.3153,-1.307,-1.2916,-1.2668,-1.2567,-1.22,-1.1573,-1.0739,-0.9981,0.0,-0.9214,0.0,0.0,0.0,0.0,0.0,0.0,0.0,0.0,-1.3163,-1.3769,-1.4379,-1.5514,-1.6518,-1.7268,-1.8517,-1.9048,-1.8458,-1.9061,-1.955,-1.9669,-1.9328,-1.9521,-2.0607,-2.0314,-2.0042,-1.9987,-2.0269,-2.041,-2.0118,-2.0302,-2.0649,-2.0914,-2.0593,-2.0367,-2.0506,-2.0291,-2.0009,-1.9638,-1.9374,-1.9175,-1.9142,-1.9191,-1.917,-1.9108,-1.917,-1.9181,-1.9119,-1.9098,-1.9098,-1.9098,-1.9098,-1.9098,-1.9098,-1.9098,-1.9098,-1.9098,-1.9098,-1.9098,-2.4189,-2.4189,-2.4189,-2.4189,-2.4189,-2.4085,-2.4051,-2.4016,-2.3476,-2.2754,-2.1917,-2.1906,-2.1755,-2.1489,-2.1385,-2.1339,-2.1339,-2.1236,-2.1201,-2.1201,-2.1201,-2.1201,-2.119,-2.1098,-2.0802,-2.0423,-2.0308,-2.0021,-1.9539,-1.9103,-1.9057,-1.9378,-1.8748,-1.8678,-1.9081,0.0,0.0,0.0,-1.752,-1.6434,-1.5845,-1.5625,-1.5246,-1.4747,-1.4297,0.0,-1.402,-1.3361,-1.3157,-1.3455,-1.3158,0.0,0.0,0.0,0.0,0.0,0.0,0.0,0.0,0.0,0.0,0.0,-1.3394,-1.3334,-1.258,-1.4045,-1.5339,-1.6052,-1.6567,-1.7299,-1.8448,-1.8564,-1.877,-1.9194,-1.9212,-1.9277,-1.9496,-1.9292,-1.9316,-1.9788,-1.9768,-1.9594,-1.9396,-1.9813,-2.0042,-1.9758,-1.9769,-1.9922,-2.0269,-2.0399,-2.0399,-2.0237,-2.0107,-1.9846,-1.9274,-1.9374,-1.9341,-1.9239,-1.945,-1.9482,-1.9202,-1.9409,-1.9482,-1.9191,-1.9098,-1.9098,-1.9098,-1.9098,-1.9098,-1.9098,-1.9098,-1.9098,-1.9098,-1.9098,-1.9098,-2.408,-2.3897,-2.3897,-2.3787,0.0,-2.3604,-2.3593,-2.3618,-2.3745,-2.3338,-2.2639,-2.2376,-2.2019,-2.1537,-2.1537,-2.1399,-2.1201,-2.1201,-2.1201,-2.1201,-2.1201,-2.1201,-2.1201,-2.1201,-2.1063,-2.081,-2.081,-2.0527,-2.0044,-1.962,-1.9406,-1.9388,-1.8599,-1.8342,-1.8534,-1.7862,-1.7715,-1.81,-1.7305,-1.6563,-1.5882,-1.5739,-1.5457,-1.4969,-1.4544,0.0,0.0,0.0,0.0,0.0,0.0,0.0,0.0,0.0,0.0,-1.2859,-1.2519,-1.249,-1.2867,-1.3247,-1.3662,-1.4007,-1.485,-1.507,-1.44,-1.5739,-1.684,-1.7431,-1.7843,-1.829,-1.8921,-1.8821,-1.8909,-1.9232,-1.9199,-1.9168,-1.9266,-1.9176,-1.9175,-1.9297,-1.9264,-1.9154,-1.9098,-1.9287,-1.9507,-1.9572,-1.9583,-1.9671,-1.9824,-1.9857,-1.9813,-1.9857,-1.9682,-1.9551,-1.9396,-1.9308,-1.9297,-1.9173,-1.9295,-1.9336,-1.915,-1.9285,-1.9367,-1.9139,-1.9098,-1.9098,-1.9098,-1.9098,-1.9098,-1.9098,-1.9098,-1.9098,-1.9098,-1.9098,-1.9098,-2.4007,-2.3714,-2.3714,-2.3519,-2.3224,-2.3224,-2.3224,-2.3272,-2.3861,0.0,0.0,-2.3006,-2.2502,-2.1932,-2.1862,-2.1556,-2.1136,-2.1097,-2.1063,-2.0987,-2.1063,-2.1063,-2.0999,-2.0987,-2.1031,-2.0999,-2.0999,-2.0782,-2.0353,-1.9972,-1.9591,-1.9129,-1.8338,-1.7878,-1.7722,-1.7126,-1.6854,-1.6882,-1.6975,-1.6616,-1.5838,-1.5901,-1.5715,-1.5225,-1.4837,-1.4783,-1.5121,-1.473,-1.4533,-1.4623,-1.4262,-1.4035,-1.4022,-1.3961,-1.4063,-1.4355,-1.4677,-1.4714,-1.4468,-1.4874,-1.5085,-1.4955,-1.5817,-1.6496,-1.6862,-1.7369,-1.7935,-1.8464,-1.8808,-1.8971,-1.8965,-1.8965,-1.8875,-1.8687,-1.8721,-1.8798,-1.8808,-1.8898,-1.8975,-1.9075,-1.8988,-1.8911,-1.9065,-1.8988,-1.9011,-1.9396,-1.9473,-1.9506,-1.9473,-1.933,-1.9274,-1.9429,-1.933,-1.9241,-1.9374,-1.9274,-1.9098,-1.9098,-1.9191,-1.9202,-1.9129,-1.916,-1.9181,-1.9119,-1.9098,-1.9098,-1.9098,-1.9098,-1.9098,-1.9098,-1.9098,-1.9098,-1.9098,-1.9098,-1.9098,-2.4164,-2.4116,-2.4127,-2.408,-2.4007,-2.4043,-2.4043,-2.4007,-2.3776,-2.3578,-2.3407,-2.3338,-2.2844,-2.2059,-2.1632,-2.1241,-2.0875,-2.0728,-2.0539,-2.0269,-2.0539,-2.0539,-2.0269,-2.0269,-2.0258,-2.0269,-2.0269,-2.0193,-2.0105,-1.971,-1.9406,-1.9277,-1.8545,-1.7844,-1.7156,-1.7033,-1.6827,-1.6498,-1.682,-1.6736,-1.6148,-1.6574,-1.6543,-1.6059,-1.569,-1.5533,-1.5597,-1.5177,-1.5084,-1.5488,-1.5455,-1.5249,-1.4939,-1.4551,-1.4157,-1.3854,-1.3871,-1.3976,-1.4197,-1.5317,-1.6344,-1.7061,-1.6997,-1.7411,-1.8587,-1.8023,-1.7988,-1.8876,-1.8745,-1.8455,-1.8435,-1.8438,-1.8124,-1.7251,-1.7432,-1.7647,-1.7784,-1.8221,-1.8671,-1.9073,-1.9065,-1.9062,-1.9116,-1.9062,-1.9062,-1.9142,-1.9175,-1.9175,-1.9208,-1.9131,-1.9098,-1.9164,-1.9131,-1.9142,-1.9164,-1.9164,-1.9098,-1.9098,-1.9409,-1.9471,-1.915,-1.9367,-1.9461,-1.917,-1.9108,-1.9098,-1.9098,-1.9098,-1.9098,-1.9098,-1.9098,-1.9098,-1.9098,-1.9098,-1.9098,-2.3641,-2.3261,-2.3224,-2.3113,-2.2889,-2.2889,-2.3038,-2.3187,-2.3038,-2.3297,-2.3831,-2.3844,-2.3462,-2.2786,-2.2116,-2.1677,-2.1385,-2.0827,-2.0624,-2.07,-2.086,-2.0732,-2.0399,-2.0366,-2.0269,-2.0128,-2.0096,-2.0096,-2.0074,-1.9695,-1.948,-1.9447,-1.8691,-1.7978,-1.742,-1.7389,-1.7285,-1.7108,-1.6829,-1.6557,-1.6342,-1.6557,-1.6557,-1.6313,-1.6164,-1.6091,-1.6063,-1.5856,-1.5866,-1.6091,-1.5832,-1.5727,-1.5792,-1.5583,-1.5547,-1.584,-1.587,-1.6033,-1.6414,-1.6782,-1.7308,-1.7976,-1.7866,-1.8148,-1.9046,-1.8455,-1.834,-1.9013,-1.8901,-1.8781,-1.8744,-1.8741,-1.8529,-1.8012,-1.8182,-1.8327,-1.8391,-1.8771,-1.9209,-1.9434,-1.9414,-1.9406,-1.9468,-1.9199,-1.9043,-1.907,-1.8908,-1.8774,-1.9052,-1.8885,-1.8808,-1.9031,-1.9098,-1.9098,-1.9098,-1.9098,-1.9098,-1.9098,-1.9274,-1.9316,-1.9129,-1.9326,-1.9305,-1.916,-1.9098,-1.9098,-1.9098,-1.9098,-1.9098,-1.9098,-1.9098,-1.9098,-1.9098,-1.9098,-1.9098,-2.3102,-2.2553,-2.2563,-2.2354,-2.2063,-2.2063,-2.2252,-2.2515,-2.2563,-2.3038,-2.3861,-2.3934,-2.3646,-2.3118,-2.2412,-2.1898,-2.1498,-2.0841,-2.0618,-2.0711,-2.0807,-2.0635,-2.028,-2.028,-2.0107,-1.9911,-1.9879,-1.9879,-1.9846,-1.9594,-1.9506,-1.9431,-1.8833,-1.8319,-1.7854,-1.7843,-1.7833,-1.7668,-1.7006,-1.6632,-1.6529,-1.6464,-1.6402,-1.6402,-1.6402,-1.6402,-1.6402,-1.6402,-1.6402,-1.6374,-1.6058,-1.607,-1.65,-1.6367,-1.6657,-1.7441,-1.7533,-1.7728,-1.8149,-1.7913,-1.7871,-1.8334,-1.8504,-1.8725,-1.9025,-1.8776,-1.8704,-1.9036,-1.9088,-1.9031,-1.8908,-1.8908,-1.8906,-1.8876,-1.8873,-1.8887,-1.9192,-1.9524,-1.9799,-1.9885,-1.9824,-1.9803,-1.9646,-1.9334,-1.9109,-1.9113,-1.8831,-1.8797,-1.9206,-1.9002,-1.8981,-1.9085,-1.9181,-1.9108,-1.9108,-1.9212,-1.9212,-1.915,-1.9222,-1.9243,-1.9181,-1.9098,-1.9108,-1.9098,-1.9098,-1.9098,-1.9098,-1.9098,-1.9098,-1.9098,-1.9098,-1.9098,-1.9098,-1.9098,-1.9098,-2.3001,-2.2964,-2.2889,-2.2927,-2.2815,-2.2852,-2.2852,-2.2889,-2.2927,-2.3001,-2.3113,-2.3113,-2.2905,-2.2462,-2.1975,-2.136,-2.0656,-2.0387,-2.0009,-1.9472,-1.9605,-1.9572,-1.9341,-1.9264,-1.9231,-1.9231,-1.9231,-1.9264,-1.9264,-1.9198,-1.9164,-1.9142,-1.9056,-1.8797,-1.8371,-1.8351,-1.8133,-1.7719,-1.7626,-1.7378,-1.6955,-1.6591,-1.6402,-1.6402,-1.6413,-1.6402,-1.6454,-1.6402,-1.6413,-1.6374,-1.6376,-1.6523,-1.6833,-1.6548,-1.6535,-1.7036,-1.7108,-1.7256,-1.7653,-1.7705,-1.7921,-1.8285,-1.8749,-1.9036,-1.9098,-1.9067,-1.9056,-1.9119,-1.9108,-1.8908,-1.8472,-1.8458,-1.8492,-1.8516,-1.8405,-1.8524,-1.9382,-1.9587,-1.9797,-2.0298,-2.0283,-2.0114,-1.9617,-1.9387,-1.9393,-1.9417,-1.9235,-1.9378,-2.0,-2.001,-1.9873,-1.9682,-1.9409,-1.9181,-1.9191,-1.9482,-1.9523,-1.9264,-1.9482,-1.9554,-1.9378,-1.9202,-1.9108,-1.9233,-1.9108,-1.9108,-1.9098,-1.9098,-1.9098,-1.9098,-1.9098,-1.9098,-1.9098,-1.9098,-1.9098,-2.2515,-2.2289,-2.2289,-2.2289,-2.2289,-2.2289,-2.2289,-2.23,-2.2289,-2.2289,-2.2289,-2.2289,-2.244,-2.2708,-2.2013,-2.1583,-2.1396,-2.0658,-2.0234,-2.0078,-1.9953,-1.9726,-1.9407,-1.9407,-1.9308,-1.9098,-1.9098,-1.9098,-1.9098,-1.9098,-1.9098,-1.9098,-1.9098,-1.9005,-1.8828,-1.8828,-1.8725,-1.8516,-1.8257,-1.8019,-1.7812,-1.7398,-1.7181,-1.7181,-1.7171,-1.7181,-1.7151,-1.7181,-1.7181,-1.7151,-1.7171,-1.7223,-1.7409,-1.7226,-1.7327,-1.7776,-1.8094,-1.8328,-1.8479,-1.8512,-1.8594,-1.8764,-1.8965,-1.9098,-1.9119,-1.9347,-1.9513,-1.9492,-1.9264,-1.9101,-1.9155,-1.9206,-1.9241,-1.9394,-1.9459,-1.962,-1.9996,-2.0307,-2.0459,-2.036,-2.0508,-2.0314,-1.9509,-1.9129,-1.9131,-1.933,-1.9268,-1.9406,-2.0191,-2.0135,-2.0027,-2.0112,-1.9975,-1.9793,-1.9606,-1.9637,-1.9793,-1.9882,-2.0017,-2.0027,-1.9893,-1.9637,-1.9523,-1.9502,-1.9305,-1.915,-1.9098,-1.9098,-1.9098,-1.9119,-1.9108,-1.9098,-1.9098,-1.9098,-1.9191,-2.2063,-2.1807,-2.1807,-2.1807,-2.1807,-2.1807,-2.1807,-2.1807,-2.1807,-2.1807,-2.1807,-2.1807,-2.2111,-2.2547,-2.2004,-2.1791,-2.176,-2.0928,-2.0581,-2.064,-2.0233,-1.9896,-1.9663,-1.9493,-1.9341,-1.9131,-1.9098,-1.9098,-1.9098,-1.9098,-1.9098,-1.9098,-1.9098,-1.9098,-1.9098,-1.9098,-1.9098,-1.9067,-1.8756,-1.8611,-1.8548,-1.8257,-1.7946,-1.774,-1.7709,-1.7709,-1.7709,-1.7709,-1.7709,-1.7709,-1.7709,-1.7761,-1.7905,-1.7884,-1.8102,-1.8569,-1.8911,-1.9098,-1.9098,-1.9098,-1.9098,-1.9108,-1.9202,-1.9285,-1.9367,-1.972,-1.9924,-1.9958,-1.9668,-1.9624,-1.9862,-1.9979,-2.0141,-2.0498,-2.0473,-2.0385,-2.0522,-2.0744,-2.0569,-2.0221,-2.0341,-2.0246,-1.9323,-1.8756,-1.8637,-1.9145,-1.9201,-1.9359,-2.0282,-2.0396,-2.0392,-2.054,-2.0607,-2.042,-2.0058,-2.0166,-2.0265,-2.0327,-2.0462,-2.0555,-2.0447,-2.011,-1.9855,-1.972,-1.9461,-1.9326,-1.9347,-1.9305,-1.9233,-1.9295,-1.9367,-1.9461,-1.9561,-1.9468,-1.9582,-2.1807,-2.1807,-2.1807,-2.1807,-2.1807,-2.1807,-2.1807,-2.1807,-2.1807,-2.1807,-2.1807,-2.1807,-2.1807,-2.1873,-2.1821,-2.1565,-2.1203,-2.1115,-2.0834,-2.0486,-2.0038,-1.983,-1.9765,-1.936,-1.9152,-1.916,-1.9119,-1.9098,-1.9098,-1.9098,-1.9098,-1.9098,-1.9098,-1.9098,-1.9098,-1.9098,-1.9098,-1.9088,-1.9036,-1.9046,-1.9056,-1.9025,-1.8557,-1.7864,-1.773,-1.7771,-1.775,-1.773,-1.774,-1.773,-1.7771,-1.7947,-1.8331,-1.8393,-1.859,-1.8994,-1.9077,-1.9098,-1.9098,-1.9129,-1.9139,-1.9181,-1.9533,-1.9761,-1.9793,-2.0141,-2.0379,-2.0364,-2.0354,-2.0364,-2.0395,-2.042,-2.056,-2.09,-2.0555,-2.0464,-2.0756,-2.0313,-2.0012,-1.9886,-1.9875,-1.9571,-1.9018,-1.8439,-1.8461,-1.8958,-1.9457,-2.0043,-2.0668,-2.1225,-2.1364,-2.1123,-2.1015,-2.0901,-2.0555,-2.0586,-2.07,-2.0803,-2.0917,-2.0932,-2.0602,-2.0312,-2.0141,-1.999,-1.9865,-1.9761,-1.9689,-1.9616,-1.9533,-1.9658,-1.9975,-2.0131,-2.0017,-2.022,-2.0302,-2.1807,-2.1807,-2.1807,-2.1807,-2.1807,-2.1807,-2.1807,-2.1807,-2.1807,-2.1807,-2.1807,-2.1807,-2.1807,-2.1807,-2.1807,-2.1714,-2.1538,-2.1259,-2.1021,-2.0777,-2.0389,-2.0193,-2.0141,-1.9751,-1.9544,-1.9502,-1.9243,-1.9098,-1.9098,-1.9098,-1.9098,-1.9098,-1.9098,-1.9098,-1.9098,-1.9098,-1.9098,-1.9098,-1.9098,-1.9098,-1.9098,-1.9098,-1.8932,-1.8609,-1.8589,-1.8589,-1.8589,-1.8589,-1.8589,-1.8589,-1.8589,-1.8661,-1.8828,-1.8849,-1.8922,-1.9077,-1.9098,-1.9098,-1.9129,-1.9378,-1.9544,-1.9575,-1.9924,-2.0182,-2.0265,-2.0586,-2.0829,-2.0907,-2.1166,-2.1253,-2.1248,-2.1052,-2.0868,-2.0908,-2.0781,-2.0543,-2.0294,-2.0021,-1.9747,-1.9381,-1.8975,-1.8585,-1.8474,-1.8152,-1.8273,-1.8913,-1.9529,-2.0148,-2.0779,-2.1405,-2.1725,-2.1611,-2.1549,-2.1507,-2.1335,-2.1087,-2.1067,-2.1284,-2.1455,-2.1476,-2.1253,-2.0912,-2.0731,-2.0545,-2.0379,-2.0151,-2.0089,-2.0182,-2.0058,-2.01,-2.0452,-2.0596,-2.0374,-2.0571,-2.0684,-2.1807,-2.1807,-2.1807,-2.1807,-2.1807,-2.1807,-2.1807,-2.1807,-2.1807,-2.1807,-2.1807,-2.1807,-2.1807,-2.1807,-2.1807,-2.1807,-2.1776,-2.1476,-2.1342,-2.13,-2.0866,-2.0612,-2.0576,-2.0182,-1.9927,-1.9741,-1.9326,-1.9098,-1.9098,-1.9098,-1.9098,-1.9098,-1.9098,-1.9098,-1.9098,-1.9098,-1.9098,-1.9098,-1.9098,-1.9098,-1.9119,-1.9253,-1.9326,-1.9326,-1.9326,-1.9243,-1.9108,-1.9098,-1.9098,-1.9098,-1.9098,-1.9098,-1.9098,-1.9098,-1.917,-1.9305,-1.9336,-1.9409,-1.952,-1.9799,-1.9975,-2.0031,-2.0379,-2.0612,-2.0643,-2.1036,-2.13,-2.1414,-2.159,-2.1807,-2.1756,-2.1518,-2.1278,-2.1163,-2.1021,-2.0741,-2.0265,-1.9883,-1.9332,-1.8754,-1.8353,-1.8072,-1.7991,-1.7991,-1.8313,-1.8913,-1.952,-2.0138,-2.0779,-2.1377,-2.1807,-2.1807,-2.1776,-2.1766,-2.1635,-2.1459,-2.1387,-2.16,-2.1652,-2.1756,-2.1756,-2.1466,-2.1248,-2.1067,-2.087,-2.0622,-2.056,-2.0684,-2.0695,-2.0643,-2.0907,-2.1135,-2.1021,-2.0938,-2.1073,-2.1807,-2.1807,-2.1807,-2.1807,-2.1807,-2.1807,-2.1807,-2.1807,-2.1807,-2.1807,-2.1807,-2.1807,-2.1807,-2.1807,-2.1807,-2.1807,-2.1797,-2.1756,-2.1735,-2.1694,-2.1311,-2.1124,-2.1083,-2.0612,-2.0203,-1.9865,-1.9378,-1.917,-1.9233,-1.9253,-1.9243,-1.917,-1.9243,-1.9285,-1.915,-1.9243,-1.9191,-1.9222,-1.9253,-1.9202,-1.917,-1.9585,-1.9803,-1.9793,-1.9793,-1.9616,-1.9191,-1.9129,-1.9098,-1.9098,-1.9098,-1.9108,-1.916,-1.9202,-1.9357,-1.973,-1.9793,-1.9975,-2.0307,-2.0389,-2.0431,-2.0493,-2.0819,-2.1114,-2.1176,-2.1487,-2.1735,-2.1735,-2.1766,-2.1807,-2.1807,-2.1766,-2.1707,-2.1731,-2.1175,-2.0867,-2.0586,-1.9736,-1.8754,-1.8282,-1.8072,-1.7991,-1.7991,-1.8112,-1.8353,-1.8834,-1.9529,-2.0138,-2.0702,-2.1339,-2.1731,-2.1807,-2.1807,-2.1807,-2.1807,-2.1759,-2.1787,-2.1797,-2.1776,-2.1807,-2.1807,-2.1621,-2.1497,-2.1362,-2.1263,-2.1025,-2.0932,-2.1093,-2.1248,-2.128,-2.1518,-2.158,-2.1487,-2.1404,-2.1528,-2.1807,-2.1807,-2.1807,-2.1807,-2.1807,-2.1807,-2.1807,-2.1807,-2.1807,-2.1807,-2.1807,-2.1807,-2.1807,-2.1807,-2.1807,-2.1807,-2.1807,-2.1807,-2.1807,-2.1776,-2.1642,-2.158,-2.1487,-2.1114,-2.0659,-2.0265,-2.0079,-1.9996,-1.9975,-1.9986,-1.9996,-2.0006,-1.9986,-2.0006,-1.9955,-2.0006,-2.0006,-1.9996,-1.9996,-2.0006,-2.0006,-2.0141,-2.0224,-2.0213,-2.0213,-2.0131,-1.9986,-1.944,-1.9119,-1.9129,-1.9098,-1.9243,-1.9554,-1.9841,-2.0023,-2.0193,-2.0213,-2.0255,-2.042,-2.0721,-2.0897,-2.0943,-2.1321,-2.1559,-2.159,-2.1704,-2.1807,-2.1807,-2.1807,-2.1807,-2.1807,-2.1807,-2.1645,-2.1223,-2.1021,-2.0741,-2.0304,-1.9539,-1.9002,-1.8674,-1.8273,-1.8031,-1.8112,-1.8313,-1.8514,-1.8554,-1.9569,-2.0498,-2.0421,-2.1175,-2.1769,-2.1807,-2.1807,-2.1807,-2.1807,-2.1807,-2.1807,-2.1807,-2.1807,-2.1807,-2.1807,-2.1797,-2.1683,-2.1621,-2.1559,-2.1497,-2.1377,-2.1445,-2.1569,-2.1652,-2.1694,-2.1745,-2.1797,-2.1807,-2.1807,-2.1807,-2.1807,-2.1807,-2.1807,-2.1807,-2.1807,-2.1807,-2.1807,-2.1807,-2.1807,-2.1807,-2.1807,-2.1807,-2.1807,-2.1807,-2.1807,-2.1807,-2.1807,-2.1807,-2.1807,-2.1807,-2.1807,-2.1745,-2.1331,-2.099,-2.0653,-2.0467,-2.0385,-2.0374,-2.0374,-2.0374,-2.0374,-2.0374,-2.0364,-2.0374,-2.0374,-2.0374,-2.0374,-2.0364,-2.0374,-2.0416,-2.056,-2.0643,-2.0643,-2.0653,-2.0643,-2.0591,-1.9965,-1.9572,-1.9616,-1.9572,-1.9727,-2.0041,-2.0265,-2.0457,-2.0612,-2.0653,-2.0752,-2.0891,-2.1228,-2.1373,-2.1424,-2.1642,-2.1797,-2.1807,-2.1807,-2.1807,-2.1807,-2.1807,-2.1807,-2.1807,-2.1807,-2.1606,-2.129,-2.1252,-2.0934,-2.0343,-1.9726,-1.9371,-1.9134,-1.8545,-1.8233,-1.8393,-1.8353,-1.8643,-1.8594,-1.942,-2.0479,-2.0304,-2.0982,-2.1339,-2.1655,-2.1807,-2.1807,-2.1807,-2.1807,-2.1807,-2.1807,-2.1807,-2.1807,-2.1807,-2.1807,-2.1745,-2.1745,-2.1704,-2.1683,-2.1621,-2.1662,-2.1756,-2.1807,-2.1807,-2.1807,-2.1807,-2.1807,-2.1807,-2.1807,-2.1807,-2.1807,-2.1807,-2.1807,-2.1807,-2.1807,-2.1807,-2.1807,-2.1807,-2.1807,-2.1807,-2.1807,-2.1807,-2.1807,-2.1807,-2.1807,-2.1807,-2.1807,-2.1807,-2.1807,-2.1807,-2.1745,-2.1414,-2.1217,-2.1067,-2.0746,-2.055,-2.0659,-2.0612,-2.0457,-2.0581,-2.0602,-2.0498,-2.0602,-2.0488,-2.0571,-2.0602,-2.055,-2.055,-2.0617,-2.0938,-2.1118,-2.1108,-2.1118,-2.1155,-2.1083,-2.0731,-2.0426,-2.0374,-2.0358,-2.0374,-2.0426,-2.0436,-2.0757,-2.1087,-2.1155,-2.1342,-2.1662,-2.1704,-2.1735,-2.1735,-2.1766,-2.1807,-2.1807,-2.1807,-2.1807,-2.1807,-2.1807,-2.1807,-2.1807,-2.1807,-2.1769,-2.1769,-2.1693,-2.1454,-2.0982,-2.0304,-1.9913,-1.9717,-1.8935,-1.8233,-1.8803,-1.8482,-1.8523,-1.8803,-1.9152,-1.9766,-2.0313,-2.0779,-2.1136,-2.1377,-2.153,-2.1693,-2.1693,-2.1807,-2.1807,-2.1807,-2.1807,-2.1807,-2.1807,-2.1807,-2.1807,-2.1807,-2.1807,-2.1807,-2.1807,-2.1807,-2.1807,-2.1807,-2.1807,-2.1807,-2.1807,-2.1807,-2.1807,-2.1807,-2.1807,-2.1807,-2.1807,-2.1807,-2.1807,-2.1807,-2.1807,-2.1807,-2.1807,-2.1807,-2.1807,-2.1807,-2.1807,-2.1807,-2.1807,-2.1807,-2.1807,-2.1807,-2.1807,-2.1807,-2.1807,-2.1797,-2.1694,-2.1611,-2.1532,-2.1397,-2.1445,-2.1445,-2.1373,-2.1356,-2.1455,-2.1362,-2.1414,-2.1445,-2.1393,-2.1445,-2.1435,-2.1424,-2.1414,-2.1424,-2.1518,-2.1621,-2.1621,-2.1611,-2.1611,-2.1621,-2.1518,-2.1046,-2.0467,-2.0762,-2.0891,-2.0922,-2.1207,-2.1435,-2.1538,-2.1611,-2.1614,-2.1766,-2.1807,-2.1807,-2.1807,-2.1807,-2.1807,-2.1807,-2.1807,-2.1807,-2.1807,-2.1807,-2.1769,-2.1769,-2.1731,-2.1769,-2.1807,-2.1693,-2.1655,-2.1367,-2.0615,-2.006,-2.0343,-1.9015,-1.8594,-1.8754,-1.8794,-1.8683,-1.8962,-1.9262,-1.9638,-2.0031,-2.0196,-2.043,-2.0867,-2.1136,-2.1415,-2.1606,-2.1731,-2.1807,-2.1807,-2.1807,-2.1807,-2.1807,-2.1807,-2.1807,-2.1807,-2.1807,-2.1807,-2.1807,-2.1807,-2.1807,-2.1807,-2.1807,-2.1807,-2.1807,-2.1807,-2.1807,-2.1807,-2.1807,-2.1807,-2.1807,-2.1807,-2.1807,-2.1807,-2.1807,-2.1807,-2.1807,-2.1807,-2.1807,-2.1807,-2.1807,-2.1807,-2.1807,-2.1807,-2.1807,-2.1807,-2.1807,-2.1807,-2.1807,-2.1807,-2.1807,-2.1807,-2.1807,-2.1807,-2.1797,-2.1787,-2.1807,-2.1807,-2.1776,-2.1807,-2.1807,-2.1766,-2.1807,-2.1807,-2.1797,-2.1807,-2.1807,-2.1807,-2.1807,-2.1807,-2.1807,-2.1807,-2.1807,-2.1807,-2.1797,-2.1528,-2.1139,-2.1269,-2.1404,-2.1424,-2.1642,-2.1807,-2.1807,-2.1807,-2.1807,-2.1807,-2.1807,-2.1807,-2.1807,-2.1807,-2.1807,-2.1807,-2.1807,-2.1807,-2.1807,-2.1807,-2.1645,-2.1415,-2.1175,-2.1165,-2.129,-2.1175,-2.1126,-2.1377,-2.0498,-2.0138,-2.0031,-1.9371,-1.8514,-1.8922,-1.8754,-1.8594,-1.8594,-1.8745,-1.9094,-1.9441,-1.9529,-1.9805,-2.0391,-2.0867,-2.1175,-2.1443,-2.1645,-2.1693,-2.1693,-2.1807,-2.1807,-2.1807,-2.1807,-2.1807,-2.1807,-2.1807,-2.1807,-2.1807,-2.1807,-2.1807,-2.1807,-2.1807,-2.1807,-2.1807,-2.1807,-2.1807,-2.1807,-2.1807,-2.1807,-2.1807,-2.1807,-2.1807,-2.1807,-2.1807,-2.1807,-2.1807,-2.1807,-2.1807,-2.1807,-2.1807,-2.1807,-2.1807,-2.1807,-2.1807,-2.1807,-2.1807,-2.1807,-2.1807,-2.1807,-2.1807,-2.1807,-2.1807,-2.1807,-2.1807,-2.1807,-2.1807,-2.1807,-2.1807,-2.1807,-2.1807,-2.1807,-2.1807,-2.1807,-2.1807,-2.1807,-2.1807,-2.1807,-2.1807,-2.1807,-2.1807,-2.1807,-2.1807,-2.1807,-2.1807,-2.1718,-2.1787,-2.1807,-2.1766,-2.1787,-2.1807,-2.1807,-2.1807,-2.1807,-2.1807,-2.1807,-2.1807,-2.1807,-2.1807,-2.1807,-2.1807,-2.1769,-2.1731,-2.1606,-2.1568,-2.1645,-2.1254,-2.0927,-2.0351,-2.0399,-2.0683,-2.0292,-2.0127,-2.0391,-2.0187,-1.9825,-1.9816,-1.9332,-1.8953,-1.8843,-1.8482,-1.808,-1.8603,-1.8625,-1.8665,-1.8904,-1.8984,-1.946,-2.0157,-2.0586,-2.0934,-2.1252,-2.152,-2.153,-2.1578,-2.1731,-2.1807,-2.1807,-2.1807,-2.1807,-2.1807,-2.1807,-2.1807,-2.1807,-2.1807,-2.1807,-2.1807,-2.1807,-2.1807,-2.1807,-2.1807,-2.1807,-2.1807,-2.1807,-2.1807,-2.1807,-2.1807,-2.1807,-2.1769,-2.1769,-2.1769,-2.1731,-2.1769,-2.1769,-2.1807,-2.1769,-2.1769,-2.1807,-2.1769,-2.1769,-2.1807,-2.1807,-2.1807,-2.1807,-2.1769,-2.1769,-2.1807,-2.1807,-2.1807,-2.1807,-2.1807,-2.1807,-2.1807,-2.1807,-2.1807,-2.1807,-2.1807,-2.1807,-2.1807,-2.1807,-2.1807,-2.1807,-2.1807,-2.1807,-2.1807,-2.1807,-2.1807,-2.1807,-2.1807,-2.1807,-2.1807,-2.1807,-2.1807,-2.1807,-2.1807,-2.1807,-2.1807,-2.1807,-2.1807,-2.1807,-2.1807,-2.1807,-2.1807,-2.1807,-2.1731,-2.1769,-2.1731,-2.1328,-2.1136,-2.0982,-2.0624,-2.0517,-2.0617,-2.0309,-2.0222,-2.0279,-1.967,-1.9133,-1.9323,-1.932,-1.942,-1.9481,-1.8935,-1.8393,-1.8873,-1.8402,-1.8241,-1.8563,-1.8523,-1.8393,-1.8434,-1.8474,-1.9024,-1.9736,-2.0001,-2.0313,-2.0692,-2.1049,-2.129,-2.1415,-2.1617,-2.1807,-2.1807,-2.1807,-2.1807,-2.1807,-2.1807,-2.1807,-2.1807,-2.1807,-2.1807,-2.1807,-2.1807,-2.1807,-2.1807,-2.1807,-2.1807,-2.1655,-2.1415,-2.1683,-2.1807,-2.1731,-2.1492,-2.1377,-2.1367,-2.1377,-2.1367,-2.1454,-2.1645,-2.1645,-2.1425,-2.1655,-2.1693,-2.1492,-2.1693,-2.1617,-2.1492,-2.1617,-2.1655,-2.1492,-2.1645,-2.1807,-2.1807,-2.1807,-2.1807,-2.1807,-2.1807,-2.1807,-2.1807,-2.1807,-2.1807,-2.1807,-2.1807,-2.1807,-2.1807,-2.1807,-2.1807,-2.1807,-2.1807,-2.1807,-2.1807,-2.1807,-2.1807,-2.1807,-2.1807,-2.1807,-2.1807,-2.1807,-2.1807,-2.1807,-2.1807,-2.1807,-2.1807,-2.1807,-2.1807,-2.1807,-2.1807,-2.1807,-2.1769,-2.1568,-2.1415,-2.1213,-2.0779,-2.0469,-2.043,-2.0349,-2.0346,-2.0671,-1.9994,-1.9937,-2.0065,-1.9483,-1.8977,-1.9059,-1.9044,-1.8913,-1.9015,-1.8714,-1.8482,-1.8402,-1.8256,-1.8155,-1.8365,-1.8299,-1.8178,-1.8152,-1.8273,-1.8563,-1.9033,-1.9301,-1.9648,-2.007,-2.0459,-2.0982,-2.1223,-2.1492,-2.1693,-2.1807,-2.1807,-2.1807,-2.1807,-2.1807,-2.1807,-2.1807,-2.1807,-2.1807,-2.1807,-2.1807,-2.1807,-2.1807,-2.1807,-2.1807,-2.13,-2.0818,-2.1492,-2.1683,-2.1492,-2.1059,-2.0867,-2.0741,-2.0857,-2.0982,-2.1021,-2.153,-2.1568,-2.1262,-2.1568,-2.1492,-2.1339,-2.1492,-2.1568,-2.1328,-2.1606,-2.1568,-2.1377,-2.1568,-2.1807,-2.1807,-2.1807,-2.1807,-2.1807,-2.1807,-2.1807,-2.1807,-2.1807,-2.1807,-2.1807,-2.1807,-2.1807,-2.1807,-2.1807,-2.1807,-2.1807,-2.1807,-2.1807,-2.1807,-2.1807,-2.1807,-2.1807,-2.1807,-2.1807,-2.1807,-2.1807,-2.1807,-2.1807,-2.1807,-2.1807,-2.1807,-2.1807,-2.1807,-2.1807,-2.1807,-2.1769,-2.1759,-2.1262,-2.1003,-2.0878,-2.0389,-2.0052,-2.0071,-2.0142,-2.0389,-2.0735,-2.0179,-1.9756,-1.9831,-1.9557,-1.9273,-1.9195,-1.9076,-1.8839,-1.8574,-1.8769,-1.8813,-1.8588,-1.84,-1.8254,-1.8094,-1.8085,-1.8051,-1.8042,-1.8089,-1.8379,-1.8603,-1.8944,-1.9183,-1.9569,-1.9991,-2.0469,-2.0712,-2.1098,-2.1492,-2.1655,-2.1769,-2.1769,-2.1769,-2.1807,-2.1807,-2.1807,-2.1807,-2.1807,-2.1807,-2.1807,-2.1807,-2.1807,-2.1807,-2.1807,-2.0663,-2.0177,-2.1328,-2.1203,-2.0382,-2.0702,-2.0615,-2.0216,-2.0702,-2.0905,-2.0982,-2.153,-2.1731,-2.1655,-2.1693,-2.1693,-2.1655,-2.1731,-2.1693,-2.153,-2.1721,-2.1655,-2.153,-2.1645,-2.1769,-2.1807,-2.1807,-2.1807,-2.1807,-2.1807,-2.1807,-2.1807,-2.1807,-2.1807,-2.1807,-2.1807,-2.1807,-2.1807,-2.1807,-2.1807,-2.1807,-2.1807,-2.1807,-2.1807,-2.1807,-2.1807,-2.1807,-2.1807,-2.1807,-2.1807,-2.1807,-2.1807,-2.1807,-2.1807,-2.1807,-2.1807,-2.1807,-2.1807,-2.1807,-2.1807,-2.1807,-2.1645,-2.1225,-2.1026,-2.0897,-2.0292,-1.9802,-1.9931,-1.9949,-1.9939,-1.9904,-1.9971,-1.9978,-1.9841,-1.9712,-1.9538,-1.9325,-1.923,-1.9236,-1.9067,-1.9109,-1.9107,-1.8869,-1.8708,-1.8639,-1.8554,-1.8511,-1.84,-1.8297,-1.8162,-1.814,-1.8397,-1.8634,-1.8873,-1.9121,-1.9569,-1.9991,-2.004,-2.0401,-2.1146,-2.1377,-2.1606,-2.1721,-2.1769,-2.1807,-2.1807,-2.1807,-2.1807,-2.1807,-2.1807,-2.1807,-2.1807,-2.1807,-2.1807,-2.1807,-2.0982,-2.0537,-2.1405,-2.1443,-2.0972,-2.0867,-2.0702,-2.0498,-2.0779,-2.0905,-2.1098,-2.1502,-2.1617,-2.1492,-2.1693,-2.1807,-2.1769,-2.1769,-2.1655,-2.1443,-2.1606,-2.1606,-2.1454,-2.1606,-2.1769,-2.1807,-2.1807,-2.1769,-2.1807,-2.1807,-2.1807,-2.1807,-2.1807,-2.1807,-2.1807,-2.1807,-2.1807,-2.1807,-2.1807,-2.1807,-2.1807,-2.1807,-2.1807,-2.1807,-2.1807,-2.1807,-2.1807,-2.1807,-2.1807,-2.1807,-2.1807,-2.1807,-2.1807,-2.1807,-2.1807,-2.1807,-2.1807,-2.1818,-2.1807,-2.178,-2.1747,-2.1546,-2.1086,-2.0694,-2.0501,-1.9964,-1.9662,-1.986,-2.0252,-2.0175,-2.0099,-2.0234,-2.018,-2.0086,-1.9973,-1.9924,-1.9804,-1.9744,-1.9727,-1.9702,-1.9462,-1.929,-1.9187,-1.905,-1.9084,-1.9024,-1.8947,-1.8751,-1.8571,-1.8442,-1.8323,-1.846,-1.8696,-1.8882,-1.9115,-1.9562,-1.9972,-1.9935,-2.0183,-2.0888,-2.1274,-2.165,-2.1772,-2.1769,-2.1807,-2.1807,-2.1807,-2.1807,-2.1807,-2.1807,-2.1807,-2.1807,-2.1807,-2.1807,-2.1807,-2.1252,-2.0741,-2.1492,-2.1655,-2.1367,-2.1069,-2.0779,-2.0741,-2.0828,-2.0828,-2.0779,-2.1262,-2.1252,-2.0934,-2.1136,-2.1367,-2.1405,-2.1367,-2.1059,-2.0857,-2.1049,-2.1098,-2.0972,-2.1126,-2.1367,-2.1492,-2.154,-2.1693,-2.1769,-2.1807,-2.1807,-2.1807,-2.1807,-2.1807,-2.1807,-2.1807,-2.1807,-2.1807,-2.1807,-2.1807,-2.1807,-2.1807,-2.1807,-2.1807,-2.1807,-2.1807,-2.1807,-2.1807,-2.1807,-2.1807,-2.1807,-2.1807,-2.1807,-2.1807,-2.1807,-2.1807,-2.1807,-2.1849,-2.1952,-2.1983,-2.1996,-2.1979,-2.1238,-2.0866,-2.0759,-2.0622,-2.0104,-2.0175,-2.0703,-2.0934,-2.0675,-2.0546,-2.0456,-2.0275,-2.0257,-2.0275,-2.0249,-2.0249,-2.0326,-2.0129,-1.9744,-1.9607,-1.9607,-1.9538,-1.9599,-1.9367,-1.9281,-1.911,-1.8939,-1.8802,-1.8699,-1.8731,-1.8863,-1.8952,-1.9265,-1.977,-2.0158,-2.0481,-2.0804,-2.1382,-2.1644,-2.186,-2.1886,-2.1942,-2.1807,-2.1807,-2.1807,-2.1818,-2.1807,-2.1807,-2.1807,-2.1807,-2.1807,-2.1807,-2.1807,-2.0624,-2.0148,-2.129,-2.1165,-2.0333,-2.0702,-2.0547,-2.0138,-2.0615,-2.0537,-2.0138,-2.0702,-2.0702,-2.0343,-2.0177,-2.0177,-2.0216,-2.0294,-2.0304,-2.0216,-2.0255,-2.0294,-2.006,-2.006,-2.0615,-2.0934,-2.1021,-2.1339,-2.153,-2.1645,-2.1769,-2.1721,-2.1731,-2.1769,-2.1655,-2.1655,-2.1807,-2.1769,-2.1769,-2.1807,-2.1807,-2.1807,-2.1807,-2.1807,-2.1807,-2.1807,-2.1807,-2.1807,-2.1807,-2.1807,-2.1807,-2.1807,-2.1807,-2.1807,-2.1807,-2.1807,-2.1849,-2.1983,-2.2283,-2.2397,-2.2496,-2.2544,-2.2218,-2.2209,-2.1911,-2.1891,-2.1597,-2.1203,-2.1745,-2.1647,-2.115,-2.1132,-2.0907,-2.0555,-2.0292,-2.0292,-2.0317,-2.0549,-2.0651,-2.0728,-2.0377,-2.0292,-2.0275,-2.0172,-2.0069,-1.9847,-1.9641,-1.9478,-1.9333,-1.9204,-1.9102,-1.9101,-1.9142,-1.9267,-1.9578,-2.0043,-2.0507,-2.0945,-2.1405,-2.185,-2.2068,-2.221,-2.2162,-2.2139,-2.2025,-2.1994,-2.2087,-2.2066,-2.189,-2.1807,-2.1807,-2.1807,-2.1807,-2.1807,-2.1828,-2.0382,-2.0508,-2.1059,-2.0982,-2.0547,-2.0779,-2.0498,-2.006,-2.0177,-2.0177,-2.006,-2.0576,-2.0895,-2.0653,-2.0294,-2.0138,-2.0294,-2.0021,-1.9894,-1.9855,-1.9855,-1.9894,-1.9933,-1.9894,-2.0138,-2.0255,-2.0333,-2.0382,-2.0847,-2.1405,-2.1683,-2.1328,-2.1568,-2.1568,-2.1339,-2.13,-2.13,-2.1377,-2.1578,-2.1769,-2.1807,-2.1807,-2.1807,-2.1807,-2.1807,-2.1807,-2.1807,-2.1807,-2.1807,-2.1807,-2.1807,-2.1807,-2.1807,-2.1828,-2.189,-2.2211,-2.2211,-2.2304,-2.248,-2.2739,-2.295,-2.2929,-2.2707,-2.236,-2.2298,-2.2596,-2.228,-2.0853,-2.1784,-2.1828,-2.1087,-2.0781,-2.0609,-2.0382,-2.0292,-2.0292,-2.0369,-2.0668,-2.0895,-2.0951,-2.1045,-2.096,-2.0797,-2.0531,-2.0369,-2.0172,-2.0026,-1.9924,-1.9778,-1.965,-1.9555,-1.9487,-1.9549,-1.9606,-2.0,-2.0434,-2.1014,-2.145,-2.183,-2.2271,-2.2584,-2.2681,-2.2627,-2.2656,-2.2708,-2.2646,-2.2511,-2.2232,-2.1994,-2.189,-2.1807,-2.1869,-2.1911,-2.1869,-2.1869,-2.0177,-2.0663,-2.0663,-2.0741,-2.0867,-2.0741,-2.0576,-2.0421,-2.0255,-2.0187,-2.0187,-2.0352,-2.0557,-2.0586,-1.9795,-1.9511,-1.9991,-1.9638,-1.9599,-1.9638,-1.9708,-1.9756,-1.9864,-1.9894,-1.9894,-1.9894,-2.0012,-2.0021,-2.0333,-2.0818,-2.1213,-2.0702,-2.0972,-2.0972,-2.0789,-2.0663,-2.0702,-2.1021,-2.153,-2.1769,-2.1807,-2.1807,-2.1807,-2.1807,-2.1807,-2.1807,-2.1807,-2.1807,-2.1807,-2.1807,-2.1807,-2.1807,-2.1807,-2.1973,-2.2149,-2.247,-2.2646,-2.2904,-2.3029,-2.3185,-2.3288,-2.3271,-2.3135,-2.2945,-2.208,-2.2784,-2.2784,-2.0907,-2.1695,-2.1615,-2.0952,-2.0645,-2.0555,-2.0473,-2.0292,-2.0292,-2.0386,-2.0771,-2.1071,-2.1191,-2.1328,-2.1525,-2.1293,-2.09,-2.0651,-2.048,-2.0386,-2.0309,-2.0163,-1.9984,-1.9932,-1.9847,-1.9866,-2.0158,-2.0871,-2.1265,-2.1673,-2.208,-2.2464,-2.2765,-2.3125,-2.3237,-2.3215,-2.3256,-2.3287,-2.3091,-2.2842,-2.2459,-2.2108,-2.2118,-2.2118,-2.2056,-2.2035,-2.2025,-2.2118,-1.9894,-1.9982,-1.9982,-2.0333,-2.0857,-2.0226,-2.0615,-2.1252,-2.0905,-2.0663,-2.0391,-1.9696,-1.8953,-1.8625,-1.8625,-1.8385,-1.8353,-1.8201,-1.8594,-1.8913,-1.9112,-1.9292,-1.9481,-1.9629,-1.9737,-1.9737,-1.9747,-1.9786,-2.0012,-2.0459,-2.0498,-2.0138,-2.0576,-2.0216,-2.0138,-2.0343,-2.0537,-2.0934,-2.1502,-2.1769,-2.1807,-2.1807,-2.1807,-2.1807,-2.1807,-2.1807,-2.1807,-2.1807,-2.1807,-2.1807,-2.189,-2.1911,-2.1983,-2.2273,-2.2522,-2.2801,-2.3256,-2.3525,-2.3691,-2.3753,-2.3991,-2.4205,-2.4104,-2.3408,-2.2173,-2.2872,-2.2608,-2.1445,-2.1793,-2.1784,-2.1392,-2.1212,-2.0736,-2.0464,-2.0292,-2.0292,-2.0497,-2.1002,-2.1276,-2.1422,-2.1627,-2.1867,-2.1824,-2.143,-2.0934,-2.0728,-2.0377,-2.0292,-2.0292,-2.0163,-2.0198,-2.0172,-2.0189,-2.073,-2.1919,-2.2341,-2.2409,-2.2978,-2.3569,-2.3656,-2.3784,-2.3805,-2.3732,-2.3608,-2.3567,-2.337,-2.3256,-2.3143,-2.2956,-2.2604,-2.2449,-2.2449,-2.2511,-2.2584,-2.2739,-1.9303,-1.9012,-1.9261,-1.9971,-2.0905,-2.0624,-2.0537,-2.0498,-2.0001,-1.9745,-1.9696,-1.8834,-1.8665,-1.8816,-1.8264,-1.8241,-1.8482,-1.8161,-1.8282,-1.8282,-1.8434,-1.8545,-1.8736,-1.8856,-1.8696,-1.8895,-1.9134,-1.9341,-1.9371,-1.9991,-2.0099,-2.0099,-2.0498,-2.0741,-2.0692,-2.0421,-2.0624,-2.0895,-2.1454,-2.1769,-2.1807,-2.1807,-2.1807,-2.1807,-2.1807,-2.1807,-2.1807,-2.1807,-2.1807,-2.188,-2.2076,-2.2159,-2.2224,-2.2617,-2.2957,-2.3195,-2.3732,-2.3939,-2.4187,-2.4176,-2.4171,-2.3846,-2.3754,-2.3309,-2.2059,-2.2457,-2.2024,-2.1445,-2.1356,-2.1436,-2.0862,-2.069,-2.051,-2.0382,-2.0292,-2.0292,-2.0549,-2.1037,-2.1345,-2.143,-2.1893,-2.2354,-2.2225,-2.1978,-2.1448,-2.1006,-2.0591,-2.0292,-2.0292,-2.0292,-2.0292,-2.0292,-2.0292,-2.0862,-2.1961,-2.2492,-2.2931,-2.3701,-2.4421,-2.4299,-2.4124,-2.4259,-2.4166,-2.4043,-2.395,-2.3929,-2.3939,-2.4002,-2.3722,-2.3153,-2.2946,-2.2915,-2.3008,-2.3122,-2.3277,-1.8815,-1.8484,-1.8939,-1.9711,-2.0498,-2.0196,-1.9982,-1.9825,-1.9301,-1.9002,-1.8962,-1.8563,-1.8625,-1.8935,-1.8505,-1.8193,-1.8393,-1.8233,-1.8193,-1.8313,-1.8434,-1.8385,-1.8496,-1.8656,-1.8825,-1.8514,-1.8683,-1.9042,-1.9073,-1.945,-1.9717,-2.0138,-2.0692,-2.0731,-2.0702,-2.0828,-2.0789,-2.0779,-2.1367,-2.1769,-2.1807,-2.1807,-2.1807,-2.1807,-2.1807,-2.1807,-2.1807,-2.1807,-2.1807,-2.1952,-2.217,-2.2439,-2.2608,-2.2898,-2.333,-2.367,-2.3875,-2.3932,-2.4094,-2.4153,-2.3884,-2.3299,-2.3169,-2.2555,-2.1882,-2.1784,-2.149,-2.069,-2.0826,-2.0871,-2.0292,-2.0374,-2.0419,-2.0292,-2.0292,-2.0317,-2.054,-2.0925,-2.1199,-2.143,-2.1978,-2.2542,-2.2405,-2.2124,-2.1659,-2.1178,-2.0805,-2.048,-2.0292,-2.0292,-2.0292,-2.0292,-2.0292,-2.1033,-2.1828,-2.205,-2.2413,-2.3396,-2.4024,-2.4282,-2.4253,-2.4411,-2.4464,-2.4321,-2.4301,-2.4456,-2.4414,-2.428,-2.3971,-2.3536,-2.3443,-2.3391,-2.3494,-2.3608,-2.3722,-1.8639,-1.8525,-1.9041,-1.9544,-1.9778,-1.8616,-1.8856,-1.9747,-1.9262,-1.8962,-1.8922,-1.8803,-1.8514,-1.8273,-1.8072,-1.8112,-1.8112,-1.808,-1.8201,-1.8554,-1.8594,-1.9094,-1.9362,-1.9323,-1.8856,-1.8953,-1.9002,-1.9002,-1.9002,-1.9262,-1.9529,-1.9795,-2.0138,-2.0177,-2.0012,-2.0586,-2.0547,-2.0216,-2.1165,-2.1482,-2.1655,-2.1568,-2.1492,-2.1655,-2.1492,-2.1415,-2.1415,-2.1415,-2.1405,-2.1486,-2.1983,-2.2218,-2.2309,-2.263,-2.3082,-2.3646,-2.3523,-2.3487,-2.346,-2.3493,-2.3091,-2.2536,-2.2457,-2.2015,-2.1535,-2.1356,-2.1177,-2.0382,-2.0419,-2.0419,-2.0292,-2.0292,-2.0292,-2.0292,-2.0292,-2.0335,-2.0549,-2.0814,-2.1105,-2.1336,-2.2028,-2.256,-2.2457,-2.2242,-2.1744,-2.1333,-2.0994,-2.0737,-2.0506,-2.0403,-2.0446,-2.0386,-2.0432,-2.0817,-2.1436,-2.1481,-2.1926,-2.296,-2.359,-2.3744,-2.4057,-2.4196,-2.4282,-2.4454,-2.4507,-2.4507,-2.4507,-2.4476,-2.4156,-2.3929,-2.3898,-2.3888,-2.3981,-2.4043,-2.4115,-1.8088,-1.7733,-1.8201,-1.8616,-1.8898,-1.9212,-1.9511,-1.9756,-1.9262,-1.8754,-1.8393,-1.8362,-1.8282,-1.804,-1.7991,-1.7991,-1.7991,-1.7991,-1.8233,-1.8313,-1.8393,-1.8393,-1.8656,-1.8776,-1.8576,-1.8514,-1.8683,-1.8962,-1.9002,-1.9183,-1.9559,-1.9864,-1.9698,-1.9894,-1.9943,-2.0177,-2.006,-1.9982,-2.0372,-2.0692,-2.1088,-2.0847,-2.0808,-2.1213,-2.0934,-2.0731,-2.0779,-2.0857,-2.0818,-2.0888,-2.1412,-2.1756,-2.1883,-2.2148,-2.2669,-2.2924,-2.2799,-2.2536,-2.229,-2.2069,-2.2024,-2.1793,-2.1704,-2.1392,-2.0826,-2.069,-2.0473,-2.0382,-2.0292,-2.0292,-2.0292,-2.0292,-2.0292,-2.0292,-2.0292,-2.0292,-2.0454,-2.0763,-2.1045,-2.1216,-2.1727,-2.2276,-2.2414,-2.2362,-2.195,-2.1753,-2.1473,-2.1242,-2.102,-2.0805,-2.0728,-2.0609,-2.0623,-2.0868,-2.1087,-2.1132,-2.1481,-2.2413,-2.2906,-2.3071,-2.3387,-2.3884,-2.4196,-2.4368,-2.4464,-2.4507,-2.4507,-2.4497,-2.4445,-2.4311,-2.425,-2.4219,-2.4271,-2.428,-2.4352,-1.7179,-1.6972,-1.7239,-1.753,-1.7988,-1.8752,-1.9136,-1.9137,-1.8825,-1.8402,-1.808,-1.8031,-1.7991,-1.7991,-1.7991,-1.7991,-1.7991,-1.7991,-1.7991,-1.7991,-1.8031,-1.8072,-1.8072,-1.7991,-1.8152,-1.8152,-1.8353,-1.8634,-1.8603,-1.9024,-1.9134,-1.9125,-1.9274,-1.9125,-1.9283,-1.952,-1.9786,-1.9747,-1.9874,-2.0333,-2.0537,-2.0537,-2.0411,-2.0818,-2.0818,-2.0459,-2.045,-2.0382,-2.0235,-2.0476,-2.0888,-2.1361,-2.1555,-2.1864,-2.2337,-2.2394,-2.2094,-2.1872,-2.1579,-2.1141,-2.1132,-2.1042,-2.0997,-2.0781,-2.0428,-2.0382,-2.0382,-2.0292,-2.0292,-2.0292,-2.0292,-2.0292,-2.0292,-2.0292,-2.0292,-2.0292,-2.0377,-2.0686,-2.09,-2.1079,-2.1328,-2.185,-2.2261,-2.2345,-2.2182,-2.2055,-2.1978,-2.1713,-2.1456,-2.1251,-2.102,-2.0883,-2.072,-2.0833,-2.0849,-2.0826,-2.1257,-2.1917,-2.2183,-2.2325,-2.3169,-2.3711,-2.4024,-2.4282,-2.4368,-2.4454,-2.4507,-2.4487,-2.4456,-2.4456,-2.4435,-2.4445,-2.4507,-2.4507,-2.4507,-1.6011,-1.6257,-1.631,-1.6542,-1.6965,-1.745,-1.7782,-1.8063,-1.804,-1.804,-1.7991,-1.7991,-1.7991,-1.7991,-1.7991,-1.7991,-1.7991,-1.7991,-1.7991,-1.7991,-1.7991,-1.7991,-1.7991,-1.7991,-1.7991,-1.7991,-1.8112,-1.8233,-1.8072,-1.8313,-1.8313,-1.8193,-1.8345,-1.8345,-1.8625,-1.8975,-1.9323,-1.9332,-1.9529,-2.0109,-2.0586,-2.0294,-2.0537,-2.0895,-2.0895,-2.0818,-2.0847,-2.0818,-2.0693,-2.0948,-2.1458,-2.1513,-2.1667,-2.1968,-2.2208,-2.2183,-2.1704,-2.1401,-2.1177,-2.069,-2.0518,-2.051,-2.0419,-2.0337,-2.0292,-2.0292,-2.0292,-2.0292,-2.0292,-2.0292,-2.0292,-2.0292,-2.0292,-2.0292,-2.0292,-2.0309,-2.0352,-2.0531,-2.0728,-2.0934,-2.1156,-2.1533,-2.1867,-2.1978,-2.2004,-2.1996,-2.1867,-2.1747,-2.1542,-2.1576,-2.1353,-2.1174,-2.0994,-2.0763,-2.0755,-2.0807,-2.0902,-2.1536,-2.1437,-2.1624,-2.2564,-2.3266,-2.3353,-2.357,-2.4186,-2.4368,-2.4196,-2.4282,-2.4444,-2.4454,-2.4368,-2.4507,-2.4507,-2.4507,-2.4507,-1.5865,-1.5915,-1.5959,-1.6173,-1.6587,-1.6918,-1.7393,-1.7948,-1.7991,-1.7991,-1.7991,-1.7991,-1.7991,-1.7991,-1.7991,-1.7991,-1.7991,-1.7991,-1.7991,-1.7991,-1.7991,-1.7991,-1.7991,-1.7991,-1.7991,-1.7991,-1.7991,-1.7991,-1.8031,-1.7991,-1.7991,-1.8031,-1.7991,-1.7991,-1.8152,-1.8385,-1.8714,-1.8993,-1.9231,-1.9814,-2.0313,-2.007,-2.0459,-2.0702,-2.0498,-2.0459,-2.0459,-2.0382,-2.0322,-2.0736,-2.0664,-2.0787,-2.1812,-2.1717,-2.1659,-2.1624,-2.1096,-2.06,-2.0609,-2.0428,-2.0292,-2.0292,-2.0292,-2.0292,-2.0292,-2.0292,-2.0292,-2.0292,-2.0292,-2.0292,-2.0292,-2.0292,-2.0292,-2.0292,-2.0292,-2.03,-2.0335,-2.0386,-2.0574,-2.0643,-2.0874,-2.1156,-2.1473,-2.1585,-2.1619,-2.1696,-2.1704,-2.1619,-2.1636,-2.1662,-2.1585,-2.1388,-2.1345,-2.1148,-2.102,-2.1027,-2.0945,-2.0971,-2.0972,-2.1104,-2.1847,-2.2369,-2.2501,-2.2853,-2.3474,-2.3711,-2.3764,-2.3937,-2.4196,-2.4153,-2.4067,-2.4325,-2.4507,-2.4507,-2.4507,-1.5805,-1.5805,-1.5805,-1.6019,-1.6398,-1.6584,-1.7077,-1.7723,-1.7809,-1.7877,-1.7983,-1.7991,-1.7991,-1.7991,-1.7991,-1.7991,-1.7991,-1.7991,-1.7991,-1.7991,-1.7991,-1.7991,-1.7991,-1.7991,-1.7991,-1.7991,-1.7991,-1.7991,-1.7991,-1.7991,-1.7991,-1.7991,-1.7991,-1.7991,-1.8031,-1.8152,-1.8442,-1.8683,-1.8962,-1.9301,-1.9569,-1.9638,-1.9795,-2.0226,-1.9874,-1.9756,-1.9835,-1.9756,-1.9832,-2.0155,-2.0032,-2.0303,-2.1089,-2.0909,-2.0952,-2.0871,-2.0654,-2.0382,-2.0382,-2.0337,-2.0292,-2.0292,-2.0292,-2.0292,-2.0292,-2.0292,-2.0292,-2.0292,-2.0292,-2.0292,-2.0292,-2.0292,-2.0292,-2.0292,-2.0292,-2.0292,-2.0292,-2.0292,-2.0326,-2.0352,-2.0549,-2.0823,-2.102,-2.1131,-2.1285,-2.1456,-2.1542,-2.1508,-2.1602,-2.1756,-2.1662,-2.149,-2.1567,-2.1567,-2.143,-2.1242,-2.1135,-2.101,-2.0876,-2.1061,-2.1419,-2.1704,-2.2015,-2.2369,-2.2809,-2.295,-2.3091,-2.3624,-2.3937,-2.3807,-2.3797,-2.4196,-2.4411,-2.4507,-2.4507,-1.5805,-1.5805,-1.5805,-1.6012,-1.6313,-1.6302,-1.6704,-1.7377,-1.7385,-1.7629,-1.7923,-1.7991,-1.7991,-1.7991,-1.7991,-1.7991,-1.7991,-1.7991,-1.7991,-1.7991,-1.7991,-1.7991,-1.7991,-1.7991,-1.7991,-1.7991,-1.7991,-1.7991,-1.7991,-1.7991,-1.7991,-1.7991,-1.7991,-1.7991,-1.7991,-1.7991,-1.8273,-1.8563,-1.8482,-1.8594,-1.8984,-1.8825,-1.8656,-1.9629,-1.9569,-1.9381,-1.9657,-1.9583,-1.9299,-1.9688,-1.9928,-2.0136,-2.0325,-2.0436,-2.0557,-2.0473,-2.0473,-2.0337,-2.0292,-2.0292,-2.0292,-2.0292,-2.0292,-2.0292,-2.0292,-2.0292,-2.0292,-2.0292,-2.0292,-2.0292,-2.0292,-2.0292,-2.0292,-2.0292,-2.0292,-2.0292,-2.0292,-2.0292,-2.03,-2.0309,-2.0369,-2.0609,-2.0703,-2.0823,-2.0848,-2.1131,-2.1199,-2.1174,-2.1328,-2.1542,-2.1593,-2.1456,-2.1559,-2.1619,-2.1619,-2.1439,-2.1293,-2.1131,-2.0994,-2.1217,-2.1744,-2.1761,-2.1615,-2.1926,-2.2236,-2.2271,-2.2457,-2.295,-2.3266,-2.3135,-2.3309,-2.397,-2.4196,-2.4013,-2.4153,-1.5805,-1.5805,-1.5805,-1.5865,-1.5934,-1.5925,-1.6154,-1.6593,-1.6647,-1.7167,-1.7871,-1.7983,-1.7991,-1.7991,-1.7991,-1.7991,-1.7991,-1.7991,-1.7991,-1.7991,-1.7991,-1.7991,-1.7991,-1.7991,-1.7991,-1.7991,-1.7991,-1.7991,-1.7991,-1.7991,-1.7991,-1.7991,-1.7991,-1.7991,-1.7991,-1.7991,-1.8152,-1.8353,-1.8233,-1.8505,-1.9173,-1.952,-1.9708,-1.9825,-1.9599,-1.9548,-1.9781,-2.0005,-2.0261,-2.0721,-2.0622,-2.0762,-2.1034,-2.1033,-2.1078,-2.1042,-2.0555,-2.0382,-2.0292,-2.0292,-2.0292,-2.0292,-2.0292,-2.0292,-2.0292,-2.0292,-2.0292,-2.0292,-2.0292,-2.0292,-2.0292,-2.0292,-2.0292,-2.0292,-2.0292,-2.0292,-2.0292,-2.0292,-2.0292,-2.0292,-2.0292,-2.0352,-2.0446,-2.0472,-2.048,-2.0506,-2.0523,-2.0557,-2.0711,-2.0925,-2.1234,-2.1216,-2.1405,-2.149,-2.1567,-2.1636,-2.149,-2.1513,-2.1522,-2.1746,-2.2035,-2.2142,-2.2145,-2.1651,-2.1615,-2.1748,-2.1961,-2.2271,-2.2448,-2.2325,-2.2545,-2.3071,-2.2799,-2.2536,-2.3038,-1.5805,-1.5805,-1.5805,-1.5805,-1.5805,-1.5805,-1.6002,-1.6257,-1.6381,-1.6922,-1.7697,-1.78,-1.7869,-1.7957,-1.7991,-1.7991,-1.7991,-1.7991,-1.7991,-1.7991,-1.7991,-1.7991,-1.7991,-1.7991,-1.7991,-1.7991,-1.7991,-1.7991,-1.7991,-1.7991,-1.7991,-1.7991,-1.7991,-1.7991,-1.7991,-1.7991,-1.7991,-1.8031,-1.7991,-1.8465,-1.9134,-1.9125,-1.9045,-1.9045,-1.9094,-1.9149,-1.9344,-1.9589,-1.9969,-2.0406,-2.043,-2.0563,-2.0711,-2.0772,-2.0826,-2.0781,-2.0518,-2.0292,-2.0292,-2.0292,-2.0292,-2.0292,-2.0292,-2.0292,-2.0292,-2.0292,-2.0292,-2.0292,-2.0292,-2.0292,-2.0292,-2.0292,-2.0292,-2.0292,-2.0292,-2.0292,-2.0292,-2.0292,-2.0292,-2.0292,-2.0292,-2.03,-2.0369,-2.0369,-2.0377,-2.0377,-2.0309,-2.0309,-2.0394,-2.0463,-2.0728,-2.0951,-2.1122,-2.1353,-2.1499,-2.1627,-2.1687,-2.1784,-2.1864,-2.2277,-2.2511,-2.2706,-2.2688,-2.2028,-2.157,-2.1436,-2.165,-2.1872,-2.1606,-2.1392,-2.165,-2.2041,-2.1587,-2.1186,-2.1507,-1.5805,-1.5805,-1.5805,-1.5805,-1.5805,-1.5805,-1.5977,-1.6189,-1.6321,-1.6682,-1.7291,-1.7411,-1.7638,-1.788,-1.7991,-1.7991,-1.7991,-1.7991,-1.7991,-1.7991,-1.7991,-1.7991,-1.7991,-1.7991,-1.7991,-1.7991,-1.7991,-1.7991,-1.7991,-1.7991,-1.7991,-1.7991,-1.7991,-1.7991,-1.7991,-1.7991,-1.7991,-1.7991,-1.7991,-1.7991,-1.8031,-1.7991,-1.8112,-1.8072,-1.8025,-1.8237,-1.8459,-1.8801,-1.9085,-1.9582,-2.0143,-2.0361,-2.0393,-2.0473,-2.0428,-2.0382,-2.0428,-2.0292,-2.0292,-2.0292,-2.0292,-2.0292,-2.0292,-2.0292,-2.0292,-2.0292,-2.0292,-2.0292,-2.0292,-2.0292,-2.0292,-2.0292,-2.0292,-2.0292,-2.0292,-2.0292,-2.0292,-2.0292,-2.0292,-2.0292,-2.0292,-2.0292,-2.0292,-2.0292,-2.0292,-2.0292,-2.0292,-2.0292,-2.0309,-2.0343,-2.0489,-2.0651,-2.0788,-2.1037,-2.1302,-2.143,-2.1516,-2.1736,-2.19,-2.251,-2.2917,-2.2753,-2.2497,-2.2178,-2.1748,-2.1481,-2.1392,-2.1561,-2.1168,-2.0673,-2.0898,-2.1114,-2.0331,-1.9968,-1.9968,-1.5805,-1.5805,-1.5805,-1.5805,-1.5805,-1.5805,-1.584,-1.5899,-1.5917,-1.6165,-1.6639,-1.697,-1.7333,-1.7991,-1.7991,-1.7991,-1.7991,-1.7991,-1.7991,-1.7991,-1.7991,-1.7991,-1.7991,-1.7991,-1.7991,-1.7991,-1.7991,-1.7991,-1.7991,-1.7991,-1.7991,-1.7991,-1.7991,-1.7991,-1.7991,-1.7991,-1.7991,-1.7991,-1.7991,-1.7991,-1.7991,-1.7991,-1.7991,-1.7991,-1.8,-1.8271,-1.8545,-1.8938,-1.929,-1.9657,-2.0069,-2.024,-2.0292,-2.0292,-2.0292,-2.0292,-2.0292,-2.0292,-2.0292,-2.0292,-2.0292,-2.0292,-2.0292,-2.0292,-2.0292,-2.0292,-2.0292,-2.0292,-2.0292,-2.0292,-2.0292,-2.0292,-2.0292,-2.0292,-2.0292,-2.0292,-2.0292,-2.0292,-2.0292,-2.0292,-2.0292,-2.0292,-2.0292,-2.0292,-2.0292,-2.0292,-2.0292,-2.0292,-2.0292,-2.0292,-2.0292,-2.0394,-2.0523,-2.0677,-2.0917,-2.1045,-2.1221,-2.1509,-2.1865,-2.2348,-2.2593,-2.2433,-2.2173,-2.2052,-2.1748,-2.1392,-2.1392,-2.1526,-2.0808,-2.0402,-2.0374,-2.0192,-1.9401,-1.9117,-1.943]}]]